<?xml version='1.0' encoding='UTF-8'?>
<gpx version="1.1" creator="https://www.komoot.de" xmlns="http://www.topografix.com/GPX/1/1" xmlns:xsi="http://www.w3.org/2001/XMLSchema-instance" xsi:schemaLocation="http://www.topografix.com/GPX/1/1 http://www.topografix.com/GPX/1/1/gpx.xsd">
  <metadata>
    <name>RTCN rondje Landingsbaan 120 km</name>
    <author>
      <link href="https://www.komoot.de">
        <text>komoot</text>
        <type>text/html</type>
      </link>
    </author>
  </metadata>
  <wpt lat="52.127233" lon="5.281922">
    <name>Landingsbaan Vliegbasis Soesterberg</name>
    <sym>Flag, Blue</sym>
  </wpt>
  <trk>
    <name>RTCN rondje Landingsbaan 120 km</name>
    <type>racebike</type>
    <trkseg>
      <trkpt lat="52.132637" lon="4.762827">
        <ele>-0.753256</ele>
        <time>2026-08-19T12:52:56.649Z</time>
      </trkpt>
      <trkpt lat="52.132726" lon="4.762964">
        <ele>-0.753256</ele>
        <time>2026-08-19T12:52:59.051Z</time>
      </trkpt>
      <trkpt lat="52.132814" lon="4.763143">
        <ele>-0.753256</ele>
        <time>2026-08-19T12:53:01.806Z</time>
      </trkpt>
      <trkpt lat="52.132968" lon="4.763456">
        <ele>-0.753256</ele>
        <time>2026-08-19T12:53:06.553Z</time>
      </trkpt>
      <trkpt lat="52.133001" lon="4.763528">
        <ele>-0.753256</ele>
        <time>2026-08-19T12:53:07.684Z</time>
      </trkpt>
      <trkpt lat="52.133199" lon="4.763873">
        <ele>-0.753256</ele>
        <time>2026-08-19T12:53:13.379Z</time>
      </trkpt>
      <trkpt lat="52.133226" lon="4.763918">
        <ele>-0.753256</ele>
        <time>2026-08-19T12:53:14.135Z</time>
      </trkpt>
      <trkpt lat="52.133456" lon="4.764302">
        <ele>-0.778915</ele>
        <time>2026-08-19T12:53:20.673Z</time>
      </trkpt>
      <trkpt lat="52.133537" lon="4.764438">
        <ele>-0.788151</ele>
        <time>2026-08-19T12:53:22.996Z</time>
      </trkpt>
      <trkpt lat="52.133659" lon="4.764591">
        <ele>-0.800375</ele>
        <time>2026-08-19T12:53:26.100Z</time>
      </trkpt>
      <trkpt lat="52.134311" lon="4.765224">
        <ele>-0.860640</ele>
        <time>2026-08-19T12:53:41.192Z</time>
      </trkpt>
      <trkpt lat="52.134794" lon="4.765634">
        <ele>-0.904677</ele>
        <time>2026-08-19T12:53:52.168Z</time>
      </trkpt>
      <trkpt lat="52.134871" lon="4.765699">
        <ele>-0.912262</ele>
        <time>2026-08-19T12:53:53.908Z</time>
      </trkpt>
      <trkpt lat="52.134905" lon="4.765728">
        <ele>-0.915618</ele>
        <time>2026-08-19T12:53:54.693Z</time>
      </trkpt>
      <trkpt lat="52.135289" lon="4.765926">
        <ele>-0.950844</ele>
        <time>2026-08-19T12:54:02.710Z</time>
      </trkpt>
      <trkpt lat="52.135842" lon="4.766196">
        <ele>-1.001333</ele>
        <time>2026-08-19T12:54:14.183Z</time>
      </trkpt>
      <trkpt lat="52.136032" lon="4.766290">
        <ele>-1.018699</ele>
        <time>2026-08-19T12:54:18.196Z</time>
      </trkpt>
      <trkpt lat="52.136241" lon="4.766402">
        <ele>-1.037941</ele>
        <time>2026-08-19T12:54:22.640Z</time>
      </trkpt>
      <trkpt lat="52.136380" lon="4.766475">
        <ele>-1.050713</ele>
        <time>2026-08-19T12:54:25.557Z</time>
      </trkpt>
      <trkpt lat="52.136592" lon="4.766588">
        <ele>-1.107828</ele>
        <time>2026-08-19T12:54:29.866Z</time>
      </trkpt>
      <trkpt lat="52.136639" lon="4.766611">
        <ele>-1.121701</ele>
        <time>2026-08-19T12:54:30.819Z</time>
      </trkpt>
      <trkpt lat="52.136838" lon="4.766707">
        <ele>-1.180370</ele>
        <time>2026-08-19T12:54:34.819Z</time>
      </trkpt>
      <trkpt lat="52.137017" lon="4.766794">
        <ele>-1.233175</ele>
        <time>2026-08-19T12:54:38.420Z</time>
      </trkpt>
      <trkpt lat="52.137027" lon="4.766800">
        <ele>-1.236187</ele>
        <time>2026-08-19T12:54:38.628Z</time>
      </trkpt>
      <trkpt lat="52.137180" lon="4.766877">
        <ele>-1.281455</ele>
        <time>2026-08-19T12:54:41.745Z</time>
      </trkpt>
      <trkpt lat="52.137249" lon="4.766911">
        <ele>-1.301833</ele>
        <time>2026-08-19T12:54:43.125Z</time>
      </trkpt>
      <trkpt lat="52.137395" lon="4.766985">
        <ele>-1.345056</ele>
        <time>2026-08-19T12:54:45.993Z</time>
      </trkpt>
      <trkpt lat="52.137492" lon="4.767033">
        <ele>-1.373714</ele>
        <time>2026-08-19T12:54:47.864Z</time>
      </trkpt>
      <trkpt lat="52.137619" lon="4.767097">
        <ele>-1.411293</ele>
        <time>2026-08-19T12:54:50.316Z</time>
      </trkpt>
      <trkpt lat="52.137697" lon="4.767136">
        <ele>-1.434358</ele>
        <time>2026-08-19T12:54:51.810Z</time>
      </trkpt>
      <trkpt lat="52.138196" lon="4.767383">
        <ele>-1.561675</ele>
        <time>2026-08-19T12:55:01.635Z</time>
      </trkpt>
      <trkpt lat="52.138605" lon="4.767595">
        <ele>-1.560743</ele>
        <time>2026-08-19T12:55:10.018Z</time>
      </trkpt>
      <trkpt lat="52.139087" lon="4.767849">
        <ele>-1.559644</ele>
        <time>2026-08-19T12:55:20.426Z</time>
      </trkpt>
      <trkpt lat="52.139183" lon="4.767905">
        <ele>-1.559422</ele>
        <time>2026-08-19T12:55:22.480Z</time>
      </trkpt>
      <trkpt lat="52.139325" lon="4.767986">
        <ele>-1.559096</ele>
        <time>2026-08-19T12:55:25.494Z</time>
      </trkpt>
      <trkpt lat="52.139504" lon="4.768092">
        <ele>-1.558682</ele>
        <time>2026-08-19T12:55:29.361Z</time>
      </trkpt>
      <trkpt lat="52.139841" lon="4.768296">
        <ele>-1.555937</ele>
        <time>2026-08-19T12:55:37.222Z</time>
      </trkpt>
      <trkpt lat="52.140168" lon="4.768555">
        <ele>-1.484531</ele>
        <time>2026-08-19T12:55:45.029Z</time>
      </trkpt>
      <trkpt lat="52.140409" lon="4.768805">
        <ele>-1.428423</ele>
        <time>2026-08-19T12:55:51.020Z</time>
      </trkpt>
      <trkpt lat="52.140748" lon="4.769156">
        <ele>-1.349541</ele>
        <time>2026-08-19T12:55:59.279Z</time>
      </trkpt>
      <trkpt lat="52.140865" lon="4.769284">
        <ele>-1.321864</ele>
        <time>2026-08-19T12:56:02.203Z</time>
      </trkpt>
      <trkpt lat="52.141382" lon="4.769843">
        <ele>-1.202488</ele>
        <time>2026-08-19T12:56:15.339Z</time>
      </trkpt>
      <trkpt lat="52.141906" lon="4.770411">
        <ele>-1.144454</ele>
        <time>2026-08-19T12:56:28.389Z</time>
      </trkpt>
      <trkpt lat="52.142087" lon="4.770607">
        <ele>-1.124414</ele>
        <time>2026-08-19T12:56:32.855Z</time>
      </trkpt>
      <trkpt lat="52.143000" lon="4.771604">
        <ele>-1.049546</ele>
        <time>2026-08-19T12:56:55.332Z</time>
      </trkpt>
      <trkpt lat="52.143098" lon="4.771706">
        <ele>-1.056840</ele>
        <time>2026-08-19T12:56:57.646Z</time>
      </trkpt>
      <trkpt lat="52.143991" lon="4.772627">
        <ele>-1.123129</ele>
        <time>2026-08-19T12:57:18.812Z</time>
      </trkpt>
      <trkpt lat="52.144553" lon="4.773200">
        <ele>-1.191042</ele>
        <time>2026-08-19T12:57:31.725Z</time>
      </trkpt>
      <trkpt lat="52.144812" lon="4.773480">
        <ele>-1.249821</ele>
        <time>2026-08-19T12:57:37.920Z</time>
      </trkpt>
      <trkpt lat="52.145034" lon="4.773719">
        <ele>-1.300139</ele>
        <time>2026-08-19T12:57:43.284Z</time>
      </trkpt>
      <trkpt lat="52.145210" lon="4.773910">
        <ele>-1.340129</ele>
        <time>2026-08-19T12:57:47.551Z</time>
      </trkpt>
      <trkpt lat="52.145493" lon="4.774211">
        <ele>-1.404039</ele>
        <time>2026-08-19T12:57:54.333Z</time>
      </trkpt>
      <trkpt lat="52.145901" lon="4.774621">
        <ele>-1.506487</ele>
        <time>2026-08-19T12:58:03.480Z</time>
      </trkpt>
      <trkpt lat="52.146166" lon="4.774880">
        <ele>-1.802988</ele>
        <time>2026-08-19T12:58:09.208Z</time>
      </trkpt>
      <trkpt lat="52.146296" lon="4.774848">
        <ele>-1.929142</ele>
        <time>2026-08-19T12:58:11.613Z</time>
      </trkpt>
      <trkpt lat="52.146325" lon="4.774809">
        <ele>-1.965220</ele>
        <time>2026-08-19T12:58:12.305Z</time>
      </trkpt>
      <trkpt lat="52.146628" lon="4.774234">
        <ele>-2.411487</ele>
        <time>2026-08-19T12:58:20.397Z</time>
      </trkpt>
      <trkpt lat="52.146825" lon="4.773908">
        <ele>-2.680887</ele>
        <time>2026-08-19T12:58:23.690Z</time>
      </trkpt>
      <trkpt lat="52.147079" lon="4.773652">
        <ele>-2.967453</ele>
        <time>2026-08-19T12:58:27.155Z</time>
      </trkpt>
      <trkpt lat="52.147162" lon="4.773595">
        <ele>-3.053877</ele>
        <time>2026-08-19T12:58:28.196Z</time>
      </trkpt>
      <trkpt lat="52.147644" lon="4.773278">
        <ele>-3.372261</ele>
        <time>2026-08-19T12:58:34.246Z</time>
      </trkpt>
      <trkpt lat="52.147799" lon="4.773179">
        <ele>-3.445996</ele>
        <time>2026-08-19T12:58:36.338Z</time>
      </trkpt>
      <trkpt lat="52.147863" lon="4.773137">
        <ele>-3.476555</ele>
        <time>2026-08-19T12:58:37.232Z</time>
      </trkpt>
      <trkpt lat="52.148058" lon="4.773015">
        <ele>-3.569068</ele>
        <time>2026-08-19T12:58:39.967Z</time>
      </trkpt>
      <trkpt lat="52.148075" lon="4.773004">
        <ele>-3.577169</ele>
        <time>2026-08-19T12:58:40.209Z</time>
      </trkpt>
      <trkpt lat="52.148257" lon="4.772896">
        <ele>-3.662957</ele>
        <time>2026-08-19T12:58:42.866Z</time>
      </trkpt>
      <trkpt lat="52.148394" lon="4.772859">
        <ele>-3.724463</ele>
        <time>2026-08-19T12:58:45.574Z</time>
      </trkpt>
      <trkpt lat="52.148439" lon="4.772839">
        <ele>-3.745122</ele>
        <time>2026-08-19T12:58:46.491Z</time>
      </trkpt>
      <trkpt lat="52.148483" lon="4.772903">
        <ele>-3.771244</ele>
        <time>2026-08-19T12:58:47.378Z</time>
      </trkpt>
      <trkpt lat="52.148541" lon="4.772914">
        <ele>-3.797106</ele>
        <time>2026-08-19T12:58:48.364Z</time>
      </trkpt>
      <trkpt lat="52.148555" lon="4.772964">
        <ele>-3.812042</ele>
        <time>2026-08-19T12:58:48.848Z</time>
      </trkpt>
      <trkpt lat="52.148637" lon="4.773205">
        <ele>-3.886936</ele>
        <time>2026-08-19T12:58:51.572Z</time>
      </trkpt>
      <trkpt lat="52.148842" lon="4.774047">
        <ele>-3.922278</ele>
        <time>2026-08-19T12:59:00.274Z</time>
      </trkpt>
      <trkpt lat="52.148873" lon="4.774176">
        <ele>-3.893132</ele>
        <time>2026-08-19T12:59:01.447Z</time>
      </trkpt>
      <trkpt lat="52.148947" lon="4.774468">
        <ele>-3.826667</ele>
        <time>2026-08-19T12:59:04.696Z</time>
      </trkpt>
      <trkpt lat="52.148959" lon="4.774520">
        <ele>-3.814979</ele>
        <time>2026-08-19T12:59:05.321Z</time>
      </trkpt>
      <trkpt lat="52.149054" lon="4.774921">
        <ele>-3.724547</ele>
        <time>2026-08-19T12:59:10.006Z</time>
      </trkpt>
      <trkpt lat="52.149087" lon="4.775063">
        <ele>-3.692602</ele>
        <time>2026-08-19T12:59:11.534Z</time>
      </trkpt>
      <trkpt lat="52.149134" lon="4.775262">
        <ele>-3.647742</ele>
        <time>2026-08-19T12:59:13.709Z</time>
      </trkpt>
      <trkpt lat="52.149195" lon="4.775507">
        <ele>-3.592117</ele>
        <time>2026-08-19T12:59:16.317Z</time>
      </trkpt>
      <trkpt lat="52.149239" lon="4.775684">
        <ele>-3.551940</ele>
        <time>2026-08-19T12:59:18.211Z</time>
      </trkpt>
      <trkpt lat="52.149264" lon="4.775786">
        <ele>-3.528833</ele>
        <time>2026-08-19T12:59:19.206Z</time>
      </trkpt>
      <trkpt lat="52.149303" lon="4.775941">
        <ele>-3.493589</ele>
        <time>2026-08-19T12:59:20.951Z</time>
      </trkpt>
      <trkpt lat="52.149368" lon="4.776189">
        <ele>-3.436855</ele>
        <time>2026-08-19T12:59:23.561Z</time>
      </trkpt>
      <trkpt lat="52.149450" lon="4.776394">
        <ele>-3.386962</ele>
        <time>2026-08-19T12:59:25.846Z</time>
      </trkpt>
      <trkpt lat="52.149721" lon="4.776629">
        <ele>-3.295393</ele>
        <time>2026-08-19T12:59:30.538Z</time>
      </trkpt>
      <trkpt lat="52.149775" lon="4.776670">
        <ele>-3.277623</ele>
        <time>2026-08-19T12:59:31.412Z</time>
      </trkpt>
      <trkpt lat="52.150291" lon="4.777057">
        <ele>-3.108187</ele>
        <time>2026-08-19T12:59:41.106Z</time>
      </trkpt>
      <trkpt lat="52.150394" lon="4.777173">
        <ele>-3.070841</ele>
        <time>2026-08-19T12:59:43.102Z</time>
      </trkpt>
      <trkpt lat="52.150417" lon="4.777204">
        <ele>-3.061938</ele>
        <time>2026-08-19T12:59:43.565Z</time>
      </trkpt>
      <trkpt lat="52.150494" lon="4.777314">
        <ele>-3.031395</ele>
        <time>2026-08-19T12:59:45.095Z</time>
      </trkpt>
      <trkpt lat="52.150712" lon="4.777639">
        <ele>-2.943264</ele>
        <time>2026-08-19T12:59:49.629Z</time>
      </trkpt>
      <trkpt lat="52.150777" lon="4.777737">
        <ele>-2.916851</ele>
        <time>2026-08-19T12:59:51.072Z</time>
      </trkpt>
      <trkpt lat="52.151088" lon="4.778184">
        <ele>-2.825872</ele>
        <time>2026-08-19T12:59:57.689Z</time>
      </trkpt>
      <trkpt lat="52.151146" lon="4.778271">
        <ele>-2.813684</ele>
        <time>2026-08-19T12:59:58.948Z</time>
      </trkpt>
      <trkpt lat="52.151386" lon="4.778632">
        <ele>-2.763187</ele>
        <time>2026-08-19T13:00:04.088Z</time>
      </trkpt>
      <trkpt lat="52.151718" lon="4.779146">
        <ele>-2.692385</ele>
        <time>2026-08-19T13:00:11.249Z</time>
      </trkpt>
      <trkpt lat="52.151969" lon="4.779519">
        <ele>-2.639865</ele>
        <time>2026-08-19T13:00:16.398Z</time>
      </trkpt>
      <trkpt lat="52.152140" lon="4.779860">
        <ele>-2.598084</ele>
        <time>2026-08-19T13:00:20.463Z</time>
      </trkpt>
      <trkpt lat="52.152889" lon="4.781855">
        <ele>-2.303366</ele>
        <time>2026-08-19T13:00:42.083Z</time>
      </trkpt>
      <trkpt lat="52.153266" lon="4.782862">
        <ele>-2.064987</ele>
        <time>2026-08-19T13:00:54.175Z</time>
      </trkpt>
      <trkpt lat="52.153445" lon="4.783544">
        <ele>-1.818873</ele>
        <time>2026-08-19T13:01:02.376Z</time>
      </trkpt>
      <trkpt lat="52.153487" lon="4.783749">
        <ele>-1.747164</ele>
        <time>2026-08-19T13:01:04.756Z</time>
      </trkpt>
      <trkpt lat="52.153503" lon="4.783820">
        <ele>-1.722069</ele>
        <time>2026-08-19T13:01:05.803Z</time>
      </trkpt>
      <trkpt lat="52.153287" lon="4.783953">
        <ele>-1.597205</ele>
        <time>2026-08-19T13:01:11.168Z</time>
      </trkpt>
      <trkpt lat="52.153203" lon="4.784152">
        <ele>-1.517063</ele>
        <time>2026-08-19T13:01:14.514Z</time>
      </trkpt>
      <trkpt lat="52.153206" lon="4.784287">
        <ele>-1.472242</ele>
        <time>2026-08-19T13:01:16.330Z</time>
      </trkpt>
      <trkpt lat="52.153507" lon="4.784930">
        <ele>-1.227547</ele>
        <time>2026-08-19T13:01:27.390Z</time>
      </trkpt>
      <trkpt lat="52.154466" lon="4.786838">
        <ele>-1.046613</ele>
        <time>2026-08-19T13:01:58.414Z</time>
      </trkpt>
      <trkpt lat="52.154535" lon="4.787043">
        <ele>-1.029461</ele>
        <time>2026-08-19T13:02:01.339Z</time>
      </trkpt>
      <trkpt lat="52.154790" lon="4.787747">
        <ele>-1.088423</ele>
        <time>2026-08-19T13:02:11.390Z</time>
      </trkpt>
      <trkpt lat="52.154857" lon="4.787821">
        <ele>-1.101894</ele>
        <time>2026-08-19T13:02:12.989Z</time>
      </trkpt>
      <trkpt lat="52.155047" lon="4.788415">
        <ele>-1.170300</ele>
        <time>2026-08-19T13:02:20.985Z</time>
      </trkpt>
      <trkpt lat="52.155784" lon="4.790725">
        <ele>-1.313357</ele>
        <time>2026-08-19T13:02:51.856Z</time>
      </trkpt>
      <trkpt lat="52.156479" lon="4.793111">
        <ele>-1.322573</ele>
        <time>2026-08-19T13:03:25.817Z</time>
      </trkpt>
      <trkpt lat="52.156605" lon="4.793550">
        <ele>-1.332304</ele>
        <time>2026-08-19T13:03:31.780Z</time>
      </trkpt>
      <trkpt lat="52.156936" lon="4.794703">
        <ele>-1.357863</ele>
        <time>2026-08-19T13:03:47.031Z</time>
      </trkpt>
      <trkpt lat="52.157355" lon="4.796170">
        <ele>-1.359646</ele>
        <time>2026-08-19T13:04:06.973Z</time>
      </trkpt>
      <trkpt lat="52.157830" lon="4.797868">
        <ele>-1.366935</ele>
        <time>2026-08-19T13:04:24.184Z</time>
      </trkpt>
      <trkpt lat="52.158075" lon="4.798610">
        <ele>-1.412278</ele>
        <time>2026-08-19T13:04:31.706Z</time>
      </trkpt>
      <trkpt lat="52.158197" lon="4.799199">
        <ele>-1.445731</ele>
        <time>2026-08-19T13:04:37.179Z</time>
      </trkpt>
      <trkpt lat="52.158701" lon="4.801008">
        <ele>-1.502671</ele>
        <time>2026-08-19T13:04:54.687Z</time>
      </trkpt>
      <trkpt lat="52.159239" lon="4.802843">
        <ele>-1.478196</ele>
        <time>2026-08-19T13:05:13.436Z</time>
      </trkpt>
      <trkpt lat="52.159309" lon="4.803090">
        <ele>-1.464535</ele>
        <time>2026-08-19T13:05:15.986Z</time>
      </trkpt>
      <trkpt lat="52.159503" lon="4.803778">
        <ele>-1.396243</ele>
        <time>2026-08-19T13:05:23.109Z</time>
      </trkpt>
      <trkpt lat="52.160011" lon="4.805587">
        <ele>-1.216809</ele>
        <time>2026-08-19T13:05:41.948Z</time>
      </trkpt>
      <trkpt lat="52.160480" lon="4.807187">
        <ele>-1.054776</ele>
        <time>2026-08-19T13:05:58.790Z</time>
      </trkpt>
      <trkpt lat="52.160533" lon="4.807373">
        <ele>-1.036029</ele>
        <time>2026-08-19T13:06:00.724Z</time>
      </trkpt>
      <trkpt lat="52.160558" lon="4.807479">
        <ele>-1.025648</ele>
        <time>2026-08-19T13:06:01.800Z</time>
      </trkpt>
      <trkpt lat="52.160532" lon="4.807614">
        <ele>-1.012713</ele>
        <time>2026-08-19T13:06:03.124Z</time>
      </trkpt>
      <trkpt lat="52.161476" lon="4.810932">
        <ele>-0.731626</ele>
        <time>2026-08-19T13:06:37.565Z</time>
      </trkpt>
      <trkpt lat="52.161774" lon="4.812112">
        <ele>-0.773130</ele>
        <time>2026-08-19T13:06:49.132Z</time>
      </trkpt>
      <trkpt lat="52.162254" lon="4.814108">
        <ele>-0.836702</ele>
        <time>2026-08-19T13:07:08.177Z</time>
      </trkpt>
      <trkpt lat="52.162664" lon="4.815808">
        <ele>-0.857508</ele>
        <time>2026-08-19T13:07:24.900Z</time>
      </trkpt>
      <trkpt lat="52.163535" lon="4.819429">
        <ele>-1.079808</ele>
        <time>2026-08-19T13:07:59.124Z</time>
      </trkpt>
      <trkpt lat="52.163547" lon="4.819475">
        <ele>-1.080508</ele>
        <time>2026-08-19T13:07:59.553Z</time>
      </trkpt>
      <trkpt lat="52.163827" lon="4.820597">
        <ele>-1.097483</ele>
        <time>2026-08-19T13:08:10.259Z</time>
      </trkpt>
      <trkpt lat="52.163946" lon="4.821500">
        <ele>-1.110426</ele>
        <time>2026-08-19T13:08:18.695Z</time>
      </trkpt>
      <trkpt lat="52.164085" lon="4.823041">
        <ele>-0.946911</ele>
        <time>2026-08-19T13:08:33.533Z</time>
      </trkpt>
      <trkpt lat="52.164109" lon="4.823316">
        <ele>-0.905020</ele>
        <time>2026-08-19T13:08:36.493Z</time>
      </trkpt>
      <trkpt lat="52.164116" lon="4.823434">
        <ele>-0.887141</ele>
        <time>2026-08-19T13:08:37.806Z</time>
      </trkpt>
      <trkpt lat="52.164174" lon="4.824277">
        <ele>-0.759210</ele>
        <time>2026-08-19T13:08:46.188Z</time>
      </trkpt>
      <trkpt lat="52.164217" lon="4.824908">
        <ele>-0.682150</ele>
        <time>2026-08-19T13:08:52.257Z</time>
      </trkpt>
      <trkpt lat="52.164226" lon="4.825076">
        <ele>-0.700656</ele>
        <time>2026-08-19T13:08:54.370Z</time>
      </trkpt>
      <trkpt lat="52.164250" lon="4.825355">
        <ele>-0.731573</ele>
        <time>2026-08-19T13:08:57.983Z</time>
      </trkpt>
      <trkpt lat="52.164269" lon="4.825594">
        <ele>-0.758020</ele>
        <time>2026-08-19T13:09:00.997Z</time>
      </trkpt>
      <trkpt lat="52.164288" lon="4.825821">
        <ele>-0.783162</ele>
        <time>2026-08-19T13:09:03.807Z</time>
      </trkpt>
      <trkpt lat="52.164305" lon="4.825998">
        <ele>-0.802822</ele>
        <time>2026-08-19T13:09:05.986Z</time>
      </trkpt>
      <trkpt lat="52.164338" lon="4.826394">
        <ele>-0.846678</ele>
        <time>2026-08-19T13:09:10.849Z</time>
      </trkpt>
      <trkpt lat="52.164344" lon="4.826456">
        <ele>-0.853566</ele>
        <time>2026-08-19T13:09:11.546Z</time>
      </trkpt>
      <trkpt lat="52.164443" lon="4.827687">
        <ele>-0.989810</ele>
        <time>2026-08-19T13:09:21.506Z</time>
      </trkpt>
      <trkpt lat="52.164494" lon="4.828288">
        <ele>-1.027035</ele>
        <time>2026-08-19T13:09:26.906Z</time>
      </trkpt>
      <trkpt lat="52.164640" lon="4.830006">
        <ele>-1.124750</ele>
        <time>2026-08-19T13:09:42.465Z</time>
      </trkpt>
      <trkpt lat="52.164654" lon="4.830161">
        <ele>-1.133577</ele>
        <time>2026-08-19T13:09:43.959Z</time>
      </trkpt>
      <trkpt lat="52.164660" lon="4.830230">
        <ele>-1.137503</ele>
        <time>2026-08-19T13:09:44.621Z</time>
      </trkpt>
      <trkpt lat="52.164810" lon="4.832104">
        <ele>-1.152068</ele>
        <time>2026-08-19T13:10:02.172Z</time>
      </trkpt>
      <trkpt lat="52.164837" lon="4.832656">
        <ele>-1.148600</ele>
        <time>2026-08-19T13:10:07.097Z</time>
      </trkpt>
      <trkpt lat="52.164973" lon="4.834018">
        <ele>-1.101769</ele>
        <time>2026-08-19T13:10:19.397Z</time>
      </trkpt>
      <trkpt lat="52.165077" lon="4.835164">
        <ele>-1.000293</ele>
        <time>2026-08-19T13:10:30.193Z</time>
      </trkpt>
      <trkpt lat="52.165226" lon="4.837550">
        <ele>-0.845558</ele>
        <time>2026-08-19T13:10:53.424Z</time>
      </trkpt>
      <trkpt lat="52.165330" lon="4.838589">
        <ele>-0.806599</ele>
        <time>2026-08-19T13:11:03.022Z</time>
      </trkpt>
      <trkpt lat="52.165398" lon="4.839382">
        <ele>-0.778144</ele>
        <time>2026-08-19T13:11:10.095Z</time>
      </trkpt>
      <trkpt lat="52.165561" lon="4.841862">
        <ele>-0.879245</ele>
        <time>2026-08-19T13:11:32.227Z</time>
      </trkpt>
      <trkpt lat="52.165667" lon="4.843196">
        <ele>-0.993164</ele>
        <time>2026-08-19T13:11:44.529Z</time>
      </trkpt>
      <trkpt lat="52.165769" lon="4.844503">
        <ele>-1.131426</ele>
        <time>2026-08-19T13:11:56.262Z</time>
      </trkpt>
      <trkpt lat="52.165807" lon="4.845055">
        <ele>-1.189717</ele>
        <time>2026-08-19T13:12:00.905Z</time>
      </trkpt>
      <trkpt lat="52.165824" lon="4.845274">
        <ele>-1.223321</ele>
        <time>2026-08-19T13:12:02.721Z</time>
      </trkpt>
      <trkpt lat="52.166013" lon="4.847611">
        <ele>-1.765077</ele>
        <time>2026-08-19T13:12:21.777Z</time>
      </trkpt>
      <trkpt lat="52.166188" lon="4.850094">
        <ele>-1.820096</ele>
        <time>2026-08-19T13:12:44.285Z</time>
      </trkpt>
      <trkpt lat="52.166299" lon="4.851255">
        <ele>-1.752032</ele>
        <time>2026-08-19T13:12:55.912Z</time>
      </trkpt>
      <trkpt lat="52.166483" lon="4.851190">
        <ele>-1.701317</ele>
        <time>2026-08-19T13:12:59.004Z</time>
      </trkpt>
      <trkpt lat="52.166602" lon="4.851712">
        <ele>-1.609304</ele>
        <time>2026-08-19T13:13:06.506Z</time>
      </trkpt>
      <trkpt lat="52.166522" lon="4.851773">
        <ele>-1.585514</ele>
        <time>2026-08-19T13:13:08.438Z</time>
      </trkpt>
      <trkpt lat="52.166481" lon="4.851779">
        <ele>-1.574425</ele>
        <time>2026-08-19T13:13:09.356Z</time>
      </trkpt>
      <trkpt lat="52.166413" lon="4.851868">
        <ele>-1.550936</ele>
        <time>2026-08-19T13:13:11.243Z</time>
      </trkpt>
      <trkpt lat="52.166346" lon="4.852071">
        <ele>-1.512847</ele>
        <time>2026-08-19T13:13:14.321Z</time>
      </trkpt>
      <trkpt lat="52.165912" lon="4.853005">
        <ele>-1.319242</ele>
        <time>2026-08-19T13:13:29.428Z</time>
      </trkpt>
      <trkpt lat="52.165541" lon="4.853636">
        <ele>-1.451367</ele>
        <time>2026-08-19T13:13:39.911Z</time>
      </trkpt>
      <trkpt lat="52.165305" lon="4.853916">
        <ele>-1.534910</ele>
        <time>2026-08-19T13:13:45.428Z</time>
      </trkpt>
      <trkpt lat="52.164919" lon="4.854067">
        <ele>-1.648528</ele>
        <time>2026-08-19T13:13:52.793Z</time>
      </trkpt>
      <trkpt lat="52.163865" lon="4.854381">
        <ele>-1.887071</ele>
        <time>2026-08-19T13:14:13.108Z</time>
      </trkpt>
      <trkpt lat="52.163647" lon="4.854447">
        <ele>-1.917651</ele>
        <time>2026-08-19T13:14:17.445Z</time>
      </trkpt>
      <trkpt lat="52.163406" lon="4.854520">
        <ele>-1.951458</ele>
        <time>2026-08-19T13:14:22.290Z</time>
      </trkpt>
      <trkpt lat="52.162508" lon="4.854794">
        <ele>-2.066764</ele>
        <time>2026-08-19T13:14:40.813Z</time>
      </trkpt>
      <trkpt lat="52.161819" lon="4.855004">
        <ele>-1.981493</ele>
        <time>2026-08-19T13:14:55.356Z</time>
      </trkpt>
      <trkpt lat="52.161628" lon="4.855062">
        <ele>-1.957858</ele>
        <time>2026-08-19T13:14:59.410Z</time>
      </trkpt>
      <trkpt lat="52.160764" lon="4.855321">
        <ele>-1.852727</ele>
        <time>2026-08-19T13:15:17.802Z</time>
      </trkpt>
      <trkpt lat="52.156014" lon="4.856775">
        <ele>-1.708703</ele>
        <time>2026-08-19T13:16:55.620Z</time>
      </trkpt>
      <trkpt lat="52.155903" lon="4.856808">
        <ele>-1.700476</ele>
        <time>2026-08-19T13:16:57.963Z</time>
      </trkpt>
      <trkpt lat="52.155461" lon="4.856976">
        <ele>-1.664256</ele>
        <time>2026-08-19T13:17:07.505Z</time>
      </trkpt>
      <trkpt lat="52.155328" lon="4.857056">
        <ele>-1.631830</ele>
        <time>2026-08-19T13:17:10.502Z</time>
      </trkpt>
      <trkpt lat="52.155251" lon="4.857142">
        <ele>-1.610481</ele>
        <time>2026-08-19T13:17:12.501Z</time>
      </trkpt>
      <trkpt lat="52.155225" lon="4.857243">
        <ele>-1.595111</ele>
        <time>2026-08-19T13:17:13.920Z</time>
      </trkpt>
      <trkpt lat="52.155199" lon="4.857877">
        <ele>-1.505945</ele>
        <time>2026-08-19T13:17:22.241Z</time>
      </trkpt>
      <trkpt lat="52.155029" lon="4.858748">
        <ele>-1.377684</ele>
        <time>2026-08-19T13:17:34.241Z</time>
      </trkpt>
      <trkpt lat="52.154840" lon="4.860051">
        <ele>-1.255809</ele>
        <time>2026-08-19T13:17:51.438Z</time>
      </trkpt>
      <trkpt lat="52.154647" lon="4.861851">
        <ele>-1.249581</ele>
        <time>2026-08-19T13:18:13.884Z</time>
      </trkpt>
      <trkpt lat="52.154488" lon="4.863220">
        <ele>-1.230882</ele>
        <time>2026-08-19T13:18:30.987Z</time>
      </trkpt>
      <trkpt lat="52.154261" lon="4.863812">
        <ele>-1.215871</ele>
        <time>2026-08-19T13:18:39.683Z</time>
      </trkpt>
      <trkpt lat="52.154132" lon="4.864209">
        <ele>-1.206212</ele>
        <time>2026-08-19T13:18:43.849Z</time>
      </trkpt>
      <trkpt lat="52.154103" lon="4.864354">
        <ele>-1.202933</ele>
        <time>2026-08-19T13:18:45.771Z</time>
      </trkpt>
      <trkpt lat="52.154090" lon="4.864467">
        <ele>-1.200461</ele>
        <time>2026-08-19T13:18:47.211Z</time>
      </trkpt>
      <trkpt lat="52.154083" lon="4.864539">
        <ele>-1.198894</ele>
        <time>2026-08-19T13:18:47.886Z</time>
      </trkpt>
      <trkpt lat="52.154071" lon="4.864809">
        <ele>-1.193073</ele>
        <time>2026-08-19T13:18:50.404Z</time>
      </trkpt>
      <trkpt lat="52.154124" lon="4.865235">
        <ele>-1.187858</ele>
        <time>2026-08-19T13:18:54.463Z</time>
      </trkpt>
      <trkpt lat="52.154333" lon="4.865891">
        <ele>-1.265615</ele>
        <time>2026-08-19T13:19:01.378Z</time>
      </trkpt>
      <trkpt lat="52.154676" lon="4.867032">
        <ele>-1.399275</ele>
        <time>2026-08-19T13:19:12.376Z</time>
      </trkpt>
      <trkpt lat="52.155153" lon="4.868758">
        <ele>-1.638227</ele>
        <time>2026-08-19T13:19:28.096Z</time>
      </trkpt>
      <trkpt lat="52.155329" lon="4.868997">
        <ele>-1.692316</ele>
        <time>2026-08-19T13:19:31.269Z</time>
      </trkpt>
      <trkpt lat="52.155530" lon="4.869748">
        <ele>-1.811007</ele>
        <time>2026-08-19T13:19:38.454Z</time>
      </trkpt>
      <trkpt lat="52.155621" lon="4.869974">
        <ele>-1.850166</ele>
        <time>2026-08-19T13:19:40.848Z</time>
      </trkpt>
      <trkpt lat="52.155651" lon="4.870072">
        <ele>-1.866032</ele>
        <time>2026-08-19T13:19:42.173Z</time>
      </trkpt>
      <trkpt lat="52.155696" lon="4.870437">
        <ele>-1.916741</ele>
        <time>2026-08-19T13:19:45.465Z</time>
      </trkpt>
      <trkpt lat="52.155942" lon="4.871316">
        <ele>-1.873573</ele>
        <time>2026-08-19T13:19:54.094Z</time>
      </trkpt>
      <trkpt lat="52.156176" lon="4.872151">
        <ele>-1.832557</ele>
        <time>2026-08-19T13:20:02.587Z</time>
      </trkpt>
      <trkpt lat="52.158014" lon="4.878772">
        <ele>-1.162098</ele>
        <time>2026-08-19T13:21:11.875Z</time>
      </trkpt>
      <trkpt lat="52.158080" lon="4.879132">
        <ele>-1.160695</ele>
        <time>2026-08-19T13:21:15.442Z</time>
      </trkpt>
      <trkpt lat="52.158163" lon="4.879425">
        <ele>-1.159490</ele>
        <time>2026-08-19T13:21:19.530Z</time>
      </trkpt>
      <trkpt lat="52.158332" lon="4.880025">
        <ele>-1.157025</ele>
        <time>2026-08-19T13:21:27.760Z</time>
      </trkpt>
      <trkpt lat="52.158438" lon="4.880404">
        <ele>-1.155470</ele>
        <time>2026-08-19T13:21:32.902Z</time>
      </trkpt>
      <trkpt lat="52.158572" lon="4.880792">
        <ele>-1.153807</ele>
        <time>2026-08-19T13:21:38.293Z</time>
      </trkpt>
      <trkpt lat="52.159120" lon="4.882707">
        <ele>-1.199964</ele>
        <time>2026-08-19T13:22:03.653Z</time>
      </trkpt>
      <trkpt lat="52.159439" lon="4.883826">
        <ele>-1.231796</ele>
        <time>2026-08-19T13:22:19.340Z</time>
      </trkpt>
      <trkpt lat="52.159534" lon="4.884308">
        <ele>-1.237827</ele>
        <time>2026-08-19T13:22:25.794Z</time>
      </trkpt>
      <trkpt lat="52.159642" lon="4.884810">
        <ele>-1.244165</ele>
        <time>2026-08-19T13:22:32.528Z</time>
      </trkpt>
      <trkpt lat="52.160338" lon="4.887027">
        <ele>-1.259879</ele>
        <time>2026-08-19T13:23:03.053Z</time>
      </trkpt>
      <trkpt lat="52.161478" lon="4.890300">
        <ele>-1.249076</ele>
        <time>2026-08-19T13:23:50.049Z</time>
      </trkpt>
      <trkpt lat="52.161657" lon="4.891116">
        <ele>-1.254304</ele>
        <time>2026-08-19T13:24:00.638Z</time>
      </trkpt>
      <trkpt lat="52.161752" lon="4.891768">
        <ele>-1.262540</ele>
        <time>2026-08-19T13:24:08.803Z</time>
      </trkpt>
      <trkpt lat="52.161780" lon="4.892194">
        <ele>-1.281460</ele>
        <time>2026-08-19T13:24:14.039Z</time>
      </trkpt>
      <trkpt lat="52.161746" lon="4.893634">
        <ele>-1.345095</ele>
        <time>2026-08-19T13:24:31.726Z</time>
      </trkpt>
      <trkpt lat="52.161762" lon="4.894500">
        <ele>-1.383353</ele>
        <time>2026-08-19T13:24:42.241Z</time>
      </trkpt>
      <trkpt lat="52.161831" lon="4.894491">
        <ele>-1.388391</ele>
        <time>2026-08-19T13:24:43.637Z</time>
      </trkpt>
      <trkpt lat="52.161905" lon="4.894487">
        <ele>-1.393971</ele>
        <time>2026-08-19T13:24:45.069Z</time>
      </trkpt>
      <trkpt lat="52.162016" lon="4.894492">
        <ele>-1.402339</ele>
        <time>2026-08-19T13:24:47.263Z</time>
      </trkpt>
      <trkpt lat="52.162008" lon="4.895627">
        <ele>-1.454809</ele>
        <time>2026-08-19T13:25:00.899Z</time>
      </trkpt>
      <trkpt lat="52.162298" lon="4.905600">
        <ele>-1.778523</ele>
        <time>2026-08-19T13:27:03.215Z</time>
      </trkpt>
      <trkpt lat="52.162269" lon="4.906304">
        <ele>-1.649992</ele>
        <time>2026-08-19T13:27:12.527Z</time>
      </trkpt>
      <trkpt lat="52.162063" lon="4.907665">
        <ele>-1.231140</ele>
        <time>2026-08-19T13:27:31.911Z</time>
      </trkpt>
      <trkpt lat="52.162072" lon="4.908314">
        <ele>-1.037173</ele>
        <time>2026-08-19T13:27:41.182Z</time>
      </trkpt>
      <trkpt lat="52.162166" lon="4.908774">
        <ele>-0.900218</ele>
        <time>2026-08-19T13:27:47.883Z</time>
      </trkpt>
      <trkpt lat="52.162297" lon="4.908695">
        <ele>-0.895463</ele>
        <time>2026-08-19T13:27:50.930Z</time>
      </trkpt>
      <trkpt lat="52.162330" lon="4.908807">
        <ele>-0.892869</ele>
        <time>2026-08-19T13:27:52.585Z</time>
      </trkpt>
      <trkpt lat="52.162353" lon="4.908891">
        <ele>-0.890948</ele>
        <time>2026-08-19T13:27:53.779Z</time>
      </trkpt>
      <trkpt lat="52.162368" lon="4.908950">
        <ele>-0.889615</ele>
        <time>2026-08-19T13:27:54.614Z</time>
      </trkpt>
      <trkpt lat="52.162324" lon="4.909203">
        <ele>-0.884124</ele>
        <time>2026-08-19T13:27:58.001Z</time>
      </trkpt>
      <trkpt lat="52.162307" lon="4.909251">
        <ele>-0.882966</ele>
        <time>2026-08-19T13:27:58.712Z</time>
      </trkpt>
      <trkpt lat="52.162327" lon="4.909337">
        <ele>-0.881046</ele>
        <time>2026-08-19T13:27:59.871Z</time>
      </trkpt>
      <trkpt lat="52.162355" lon="4.909481">
        <ele>-0.877892</ele>
        <time>2026-08-19T13:28:01.770Z</time>
      </trkpt>
      <trkpt lat="52.162449" lon="4.910734">
        <ele>-0.851534</ele>
        <time>2026-08-19T13:28:17.079Z</time>
      </trkpt>
      <trkpt lat="52.162498" lon="4.910988">
        <ele>-0.845974</ele>
        <time>2026-08-19T13:28:20.176Z</time>
      </trkpt>
      <trkpt lat="52.162599" lon="4.911358">
        <ele>-0.852576</ele>
        <time>2026-08-19T13:28:24.853Z</time>
      </trkpt>
      <trkpt lat="52.163293" lon="4.913005">
        <ele>-1.114270</ele>
        <time>2026-08-19T13:28:48.800Z</time>
      </trkpt>
      <trkpt lat="52.163570" lon="4.913955">
        <ele>-1.276180</ele>
        <time>2026-08-19T13:29:01.503Z</time>
      </trkpt>
      <trkpt lat="52.163593" lon="4.914035">
        <ele>-1.297584</ele>
        <time>2026-08-19T13:29:02.571Z</time>
      </trkpt>
      <trkpt lat="52.163661" lon="4.914298">
        <ele>-1.366728</ele>
        <time>2026-08-19T13:29:05.945Z</time>
      </trkpt>
      <trkpt lat="52.164085" lon="4.916023">
        <ele>-1.816928</ele>
        <time>2026-08-19T13:29:27.146Z</time>
      </trkpt>
      <trkpt lat="52.164328" lon="4.916896">
        <ele>-2.000893</ele>
        <time>2026-08-19T13:29:38.156Z</time>
      </trkpt>
      <trkpt lat="52.164439" lon="4.917319">
        <ele>-2.065639</ele>
        <time>2026-08-19T13:29:43.530Z</time>
      </trkpt>
      <trkpt lat="52.164473" lon="4.917450">
        <ele>-2.085657</ele>
        <time>2026-08-19T13:29:45.214Z</time>
      </trkpt>
      <trkpt lat="52.165091" lon="4.919847">
        <ele>-2.415196</ele>
        <time>2026-08-19T13:30:16.476Z</time>
      </trkpt>
      <trkpt lat="52.165676" lon="4.922116">
        <ele>-2.603661</ele>
        <time>2026-08-19T13:30:46.020Z</time>
      </trkpt>
      <trkpt lat="52.165953" lon="4.923192">
        <ele>-2.550098</ele>
        <time>2026-08-19T13:31:00.972Z</time>
      </trkpt>
      <trkpt lat="52.166869" lon="4.926664">
        <ele>-2.156045</ele>
        <time>2026-08-19T13:31:48.965Z</time>
      </trkpt>
      <trkpt lat="52.167163" lon="4.927808">
        <ele>-1.891434</ele>
        <time>2026-08-19T13:32:05.903Z</time>
      </trkpt>
      <trkpt lat="52.167274" lon="4.928155">
        <ele>-1.777950</ele>
        <time>2026-08-19T13:32:11.371Z</time>
      </trkpt>
      <trkpt lat="52.167362" lon="4.928297">
        <ele>-1.719414</ele>
        <time>2026-08-19T13:32:14.240Z</time>
      </trkpt>
      <trkpt lat="52.167627" lon="4.928458">
        <ele>-1.585715</ele>
        <time>2026-08-19T13:32:20.792Z</time>
      </trkpt>
      <trkpt lat="52.167949" lon="4.928663">
        <ele>-1.422289</ele>
        <time>2026-08-19T13:32:28.623Z</time>
      </trkpt>
      <trkpt lat="52.168227" lon="4.928721">
        <ele>-1.289788</ele>
        <time>2026-08-19T13:32:34.627Z</time>
      </trkpt>
      <trkpt lat="52.168267" lon="4.928751">
        <ele>-1.268972</ele>
        <time>2026-08-19T13:32:35.554Z</time>
      </trkpt>
      <trkpt lat="52.168300" lon="4.928975">
        <ele>-1.225154</ele>
        <time>2026-08-19T13:32:38.553Z</time>
      </trkpt>
      <trkpt lat="52.168253" lon="4.929156">
        <ele>-1.277587</ele>
        <time>2026-08-19T13:32:41.077Z</time>
      </trkpt>
      <trkpt lat="52.168202" lon="4.929251">
        <ele>-1.311266</ele>
        <time>2026-08-19T13:32:42.664Z</time>
      </trkpt>
      <trkpt lat="52.168150" lon="4.929358">
        <ele>-1.347684</ele>
        <time>2026-08-19T13:32:44.377Z</time>
      </trkpt>
      <trkpt lat="52.168061" lon="4.929743">
        <ele>-1.457441</ele>
        <time>2026-08-19T13:32:49.367Z</time>
      </trkpt>
      <trkpt lat="52.168050" lon="4.929814">
        <ele>-1.476976</ele>
        <time>2026-08-19T13:32:50.216Z</time>
      </trkpt>
      <trkpt lat="52.168036" lon="4.929914">
        <ele>-1.504339</ele>
        <time>2026-08-19T13:32:51.404Z</time>
      </trkpt>
      <trkpt lat="52.168015" lon="4.930073">
        <ele>-1.547727</ele>
        <time>2026-08-19T13:32:53.282Z</time>
      </trkpt>
      <trkpt lat="52.168009" lon="4.930138">
        <ele>-1.565262</ele>
        <time>2026-08-19T13:32:54.030Z</time>
      </trkpt>
      <trkpt lat="52.167895" lon="4.931222">
        <ele>-1.858656</ele>
        <time>2026-08-19T13:33:06.130Z</time>
      </trkpt>
      <trkpt lat="52.167839" lon="4.931722">
        <ele>-1.994245</ele>
        <time>2026-08-19T13:33:11.556Z</time>
      </trkpt>
      <trkpt lat="52.167833" lon="4.932204">
        <ele>-2.091096</ele>
        <time>2026-08-19T13:33:16.785Z</time>
      </trkpt>
      <trkpt lat="52.167873" lon="4.932670">
        <ele>-2.185088</ele>
        <time>2026-08-19T13:33:21.955Z</time>
      </trkpt>
      <trkpt lat="52.167938" lon="4.933033">
        <ele>-2.260625</ele>
        <time>2026-08-19T13:33:26.199Z</time>
      </trkpt>
      <trkpt lat="52.168158" lon="4.933939">
        <ele>-2.455268</ele>
        <time>2026-08-19T13:33:37.944Z</time>
      </trkpt>
      <trkpt lat="52.168445" lon="4.935124">
        <ele>-2.544901</ele>
        <time>2026-08-19T13:33:54.596Z</time>
      </trkpt>
      <trkpt lat="52.170255" lon="4.942589">
        <ele>-2.021834</ele>
        <time>2026-08-19T13:35:35.890Z</time>
      </trkpt>
      <trkpt lat="52.170824" lon="4.944936">
        <ele>-1.706359</ele>
        <time>2026-08-19T13:36:09.458Z</time>
      </trkpt>
      <trkpt lat="52.171031" lon="4.945512">
        <ele>-1.674849</ele>
        <time>2026-08-19T13:36:17.652Z</time>
      </trkpt>
      <trkpt lat="52.171377" lon="4.946214">
        <ele>-1.941809</ele>
        <time>2026-08-19T13:36:27.818Z</time>
      </trkpt>
      <trkpt lat="52.171569" lon="4.946685">
        <ele>-2.109451</ele>
        <time>2026-08-19T13:36:32.298Z</time>
      </trkpt>
      <trkpt lat="52.171626" lon="4.946916">
        <ele>-2.183259</ele>
        <time>2026-08-19T13:36:34.245Z</time>
      </trkpt>
      <trkpt lat="52.171716" lon="4.947719">
        <ele>-2.425228</ele>
        <time>2026-08-19T13:36:40.588Z</time>
      </trkpt>
      <trkpt lat="52.171791" lon="4.948015">
        <ele>-2.511640</ele>
        <time>2026-08-19T13:36:43.085Z</time>
      </trkpt>
      <trkpt lat="52.173237" lon="4.951873">
        <ele>-2.869730</ele>
        <time>2026-08-19T13:37:23.430Z</time>
      </trkpt>
      <trkpt lat="52.173948" lon="4.953770">
        <ele>-2.944176</ele>
        <time>2026-08-19T13:37:43.725Z</time>
      </trkpt>
      <trkpt lat="52.174909" lon="4.956334">
        <ele>-3.114451</ele>
        <time>2026-08-19T13:38:10.280Z</time>
      </trkpt>
      <trkpt lat="52.174965" lon="4.956487">
        <ele>-3.128949</ele>
        <time>2026-08-19T13:38:11.768Z</time>
      </trkpt>
      <trkpt lat="52.175162" lon="4.957066">
        <ele>-3.182829</ele>
        <time>2026-08-19T13:38:17.342Z</time>
      </trkpt>
      <trkpt lat="52.175230" lon="4.957289">
        <ele>-3.203094</ele>
        <time>2026-08-19T13:38:19.479Z</time>
      </trkpt>
      <trkpt lat="52.175262" lon="4.957413">
        <ele>-3.214041</ele>
        <time>2026-08-19T13:38:20.618Z</time>
      </trkpt>
      <trkpt lat="52.175342" lon="4.957734">
        <ele>-3.242235</ele>
        <time>2026-08-19T13:38:23.685Z</time>
      </trkpt>
      <trkpt lat="52.175464" lon="4.958548">
        <ele>-3.244738</ele>
        <time>2026-08-19T13:38:31.286Z</time>
      </trkpt>
      <trkpt lat="52.175503" lon="4.958997">
        <ele>-3.218541</ele>
        <time>2026-08-19T13:38:35.531Z</time>
      </trkpt>
      <trkpt lat="52.175528" lon="4.959654">
        <ele>-3.180514</ele>
        <time>2026-08-19T13:38:41.811Z</time>
      </trkpt>
      <trkpt lat="52.175477" lon="4.965182">
        <ele>-2.731034</ele>
        <time>2026-08-19T13:39:33.903Z</time>
      </trkpt>
      <trkpt lat="52.175472" lon="4.965700">
        <ele>-2.665301</ele>
        <time>2026-08-19T13:39:38.780Z</time>
      </trkpt>
      <trkpt lat="52.175466" lon="4.966486">
        <ele>-2.565564</ele>
        <time>2026-08-19T13:39:46.259Z</time>
      </trkpt>
      <trkpt lat="52.175154" lon="4.975524">
        <ele>-0.873444</ele>
        <time>2026-08-19T13:41:15.441Z</time>
      </trkpt>
      <trkpt lat="52.175183" lon="4.975933">
        <ele>-0.813906</ele>
        <time>2026-08-19T13:41:19.637Z</time>
      </trkpt>
      <trkpt lat="52.175242" lon="4.976198">
        <ele>-0.779916</ele>
        <time>2026-08-19T13:41:22.494Z</time>
      </trkpt>
      <trkpt lat="52.175375" lon="4.976529">
        <ele>-0.732206</ele>
        <time>2026-08-19T13:41:26.484Z</time>
      </trkpt>
      <trkpt lat="52.173508" lon="4.978693">
        <ele>-0.537155</ele>
        <time>2026-08-19T13:42:01.403Z</time>
      </trkpt>
      <trkpt lat="52.172652" lon="4.979564">
        <ele>-0.624616</ele>
        <time>2026-08-19T13:42:15.432Z</time>
      </trkpt>
      <trkpt lat="52.171996" lon="4.980161">
        <ele>-0.776951</ele>
        <time>2026-08-19T13:42:25.789Z</time>
      </trkpt>
      <trkpt lat="52.171483" lon="4.980663">
        <ele>-0.898269</ele>
        <time>2026-08-19T13:42:34.250Z</time>
      </trkpt>
      <trkpt lat="52.170979" lon="4.981131">
        <ele>-0.876881</ele>
        <time>2026-08-19T13:42:43.070Z</time>
      </trkpt>
      <trkpt lat="52.170601" lon="4.981507">
        <ele>-0.820868</ele>
        <time>2026-08-19T13:42:49.845Z</time>
      </trkpt>
      <trkpt lat="52.170476" lon="4.981682">
        <ele>-0.800026</ele>
        <time>2026-08-19T13:42:52.452Z</time>
      </trkpt>
      <trkpt lat="52.170262" lon="4.981984">
        <ele>-0.764224</ele>
        <time>2026-08-19T13:42:56.836Z</time>
      </trkpt>
      <trkpt lat="52.170111" lon="4.982200">
        <ele>-0.738813</ele>
        <time>2026-08-19T13:42:59.933Z</time>
      </trkpt>
      <trkpt lat="52.170018" lon="4.982344">
        <ele>-0.722589</ele>
        <time>2026-08-19T13:43:01.891Z</time>
      </trkpt>
      <trkpt lat="52.169789" lon="4.982692">
        <ele>-0.691266</ele>
        <time>2026-08-19T13:43:06.917Z</time>
      </trkpt>
      <trkpt lat="52.169725" lon="4.982865">
        <ele>-0.682156</ele>
        <time>2026-08-19T13:43:09.037Z</time>
      </trkpt>
      <trkpt lat="52.169678" lon="4.983068">
        <ele>-0.672372</ele>
        <time>2026-08-19T13:43:11.133Z</time>
      </trkpt>
      <trkpt lat="52.169658" lon="4.983305">
        <ele>-0.661584</ele>
        <time>2026-08-19T13:43:13.353Z</time>
      </trkpt>
      <trkpt lat="52.169572" lon="4.983612">
        <ele>-0.646365</ele>
        <time>2026-08-19T13:43:16.389Z</time>
      </trkpt>
      <trkpt lat="52.169409" lon="4.983810">
        <ele>-0.631421</ele>
        <time>2026-08-19T13:43:19.437Z</time>
      </trkpt>
      <trkpt lat="52.169267" lon="4.983944">
        <ele>-0.619359</ele>
        <time>2026-08-19T13:43:22.681Z</time>
      </trkpt>
      <trkpt lat="52.169247" lon="4.983964">
        <ele>-0.617634</ele>
        <time>2026-08-19T13:43:23.009Z</time>
      </trkpt>
      <trkpt lat="52.169081" lon="4.984124">
        <ele>-0.603456</ele>
        <time>2026-08-19T13:43:25.675Z</time>
      </trkpt>
      <trkpt lat="52.169049" lon="4.984238">
        <ele>-0.597803</ele>
        <time>2026-08-19T13:43:26.700Z</time>
      </trkpt>
      <trkpt lat="52.168911" lon="4.984477">
        <ele>-0.583001</ele>
        <time>2026-08-19T13:43:29.631Z</time>
      </trkpt>
      <trkpt lat="52.168894" lon="4.984801">
        <ele>-0.562359</ele>
        <time>2026-08-19T13:43:32.651Z</time>
      </trkpt>
      <trkpt lat="52.168848" lon="4.984865">
        <ele>-0.545702</ele>
        <time>2026-08-19T13:43:33.513Z</time>
      </trkpt>
      <trkpt lat="52.168801" lon="4.984942">
        <ele>-0.527349</ele>
        <time>2026-08-19T13:43:34.609Z</time>
      </trkpt>
      <trkpt lat="52.168647" lon="4.985365">
        <ele>-0.444243</ele>
        <time>2026-08-19T13:43:39.538Z</time>
      </trkpt>
      <trkpt lat="52.168608" lon="4.985494">
        <ele>-0.419945</ele>
        <time>2026-08-19T13:43:40.973Z</time>
      </trkpt>
      <trkpt lat="52.168948" lon="4.985755">
        <ele>-0.316429</ele>
        <time>2026-08-19T13:43:47.317Z</time>
      </trkpt>
      <trkpt lat="52.169436" lon="4.986184">
        <ele>-0.163713</ele>
        <time>2026-08-19T13:43:56.189Z</time>
      </trkpt>
      <trkpt lat="52.169549" lon="4.986389">
        <ele>-0.117147</ele>
        <time>2026-08-19T13:43:58.960Z</time>
      </trkpt>
      <trkpt lat="52.169721" lon="4.988084">
        <ele>0.017678</ele>
        <time>2026-08-19T13:44:15.071Z</time>
      </trkpt>
      <trkpt lat="52.169790" lon="4.988311">
        <ele>0.033674</ele>
        <time>2026-08-19T13:44:17.241Z</time>
      </trkpt>
      <trkpt lat="52.169897" lon="4.988539">
        <ele>0.051800</ele>
        <time>2026-08-19T13:44:19.810Z</time>
      </trkpt>
      <trkpt lat="52.170138" lon="4.989041">
        <ele>0.092050</ele>
        <time>2026-08-19T13:44:25.969Z</time>
      </trkpt>
      <trkpt lat="52.170230" lon="4.989318">
        <ele>0.113091</ele>
        <time>2026-08-19T13:44:28.774Z</time>
      </trkpt>
      <trkpt lat="52.170261" lon="4.989402">
        <ele>0.123133</ele>
        <time>2026-08-19T13:44:29.629Z</time>
      </trkpt>
      <trkpt lat="52.170523" lon="4.990192">
        <ele>0.215133</ele>
        <time>2026-08-19T13:44:38.135Z</time>
      </trkpt>
      <trkpt lat="52.170538" lon="4.990399">
        <ele>0.236485</ele>
        <time>2026-08-19T13:44:40.270Z</time>
      </trkpt>
      <trkpt lat="52.170538" lon="4.990587">
        <ele>0.255743</ele>
        <time>2026-08-19T13:44:42.216Z</time>
      </trkpt>
      <trkpt lat="52.170538" lon="4.990592">
        <ele>0.256255</ele>
        <time>2026-08-19T13:44:42.259Z</time>
      </trkpt>
      <trkpt lat="52.170538" lon="4.990633">
        <ele>0.260455</ele>
        <time>2026-08-19T13:44:42.658Z</time>
      </trkpt>
      <trkpt lat="52.170538" lon="4.990678">
        <ele>0.265065</ele>
        <time>2026-08-19T13:44:43.125Z</time>
      </trkpt>
      <trkpt lat="52.170538" lon="4.990903">
        <ele>0.288113</ele>
        <time>2026-08-19T13:44:45.456Z</time>
      </trkpt>
      <trkpt lat="52.170538" lon="4.990984">
        <ele>0.296411</ele>
        <time>2026-08-19T13:44:46.298Z</time>
      </trkpt>
      <trkpt lat="52.170539" lon="4.991126">
        <ele>0.310958</ele>
        <time>2026-08-19T13:44:47.768Z</time>
      </trkpt>
      <trkpt lat="52.170539" lon="4.991766">
        <ele>0.376518</ele>
        <time>2026-08-19T13:44:54.167Z</time>
      </trkpt>
      <trkpt lat="52.170624" lon="4.992144">
        <ele>0.403054</ele>
        <time>2026-08-19T13:44:57.519Z</time>
      </trkpt>
      <trkpt lat="52.170656" lon="4.992359">
        <ele>0.379795</ele>
        <time>2026-08-19T13:44:59.240Z</time>
      </trkpt>
      <trkpt lat="52.170682" lon="4.992931">
        <ele>0.319495</ele>
        <time>2026-08-19T13:45:04.021Z</time>
      </trkpt>
      <trkpt lat="52.170733" lon="4.993348">
        <ele>0.274792</ele>
        <time>2026-08-19T13:45:07.973Z</time>
      </trkpt>
      <trkpt lat="52.170839" lon="4.993499">
        <ele>0.250664</ele>
        <time>2026-08-19T13:45:10.051Z</time>
      </trkpt>
      <trkpt lat="52.170871" lon="4.993626">
        <ele>0.236229</ele>
        <time>2026-08-19T13:45:11.237Z</time>
      </trkpt>
      <trkpt lat="52.170874" lon="4.993769">
        <ele>0.221186</ele>
        <time>2026-08-19T13:45:12.507Z</time>
      </trkpt>
      <trkpt lat="52.170738" lon="4.993959">
        <ele>0.190487</ele>
        <time>2026-08-19T13:45:14.986Z</time>
      </trkpt>
      <trkpt lat="52.170592" lon="4.994023">
        <ele>0.164571</ele>
        <time>2026-08-19T13:45:17.038Z</time>
      </trkpt>
      <trkpt lat="52.170044" lon="4.994143">
        <ele>0.177091</ele>
        <time>2026-08-19T13:45:24.438Z</time>
      </trkpt>
      <trkpt lat="52.169139" lon="4.994222">
        <ele>0.536330</ele>
        <time>2026-08-19T13:45:40.020Z</time>
      </trkpt>
      <trkpt lat="52.168996" lon="4.994087">
        <ele>0.601829</ele>
        <time>2026-08-19T13:45:43.822Z</time>
      </trkpt>
      <trkpt lat="52.168905" lon="4.994019">
        <ele>0.641508</ele>
        <time>2026-08-19T13:45:46.107Z</time>
      </trkpt>
      <trkpt lat="52.167974" lon="4.993787">
        <ele>0.955927</ele>
        <time>2026-08-19T13:46:07.205Z</time>
      </trkpt>
      <trkpt lat="52.167849" lon="4.993794">
        <ele>0.990881</ele>
        <time>2026-08-19T13:46:09.945Z</time>
      </trkpt>
      <trkpt lat="52.167738" lon="4.993865">
        <ele>1.024205</ele>
        <time>2026-08-19T13:46:12.442Z</time>
      </trkpt>
      <trkpt lat="52.167656" lon="4.993980">
        <ele>1.054433</ele>
        <time>2026-08-19T13:46:14.675Z</time>
      </trkpt>
      <trkpt lat="52.167605" lon="4.994134">
        <ele>1.084433</ele>
        <time>2026-08-19T13:46:16.911Z</time>
      </trkpt>
      <trkpt lat="52.167601" lon="4.994346">
        <ele>1.120790</ele>
        <time>2026-08-19T13:46:19.601Z</time>
      </trkpt>
      <trkpt lat="52.167726" lon="4.996378">
        <ele>1.438294</ele>
        <time>2026-08-19T13:46:38.777Z</time>
      </trkpt>
      <trkpt lat="52.167806" lon="4.997609">
        <ele>1.605348</ele>
        <time>2026-08-19T13:46:50.930Z</time>
      </trkpt>
      <trkpt lat="52.167864" lon="4.998034">
        <ele>1.664104</ele>
        <time>2026-08-19T13:46:55.254Z</time>
      </trkpt>
      <trkpt lat="52.167952" lon="4.998400">
        <ele>1.711839</ele>
        <time>2026-08-19T13:46:59.079Z</time>
      </trkpt>
      <trkpt lat="52.168021" lon="4.998529">
        <ele>1.700958</ele>
        <time>2026-08-19T13:47:00.744Z</time>
      </trkpt>
      <trkpt lat="52.168128" lon="4.999099">
        <ele>1.663062</ele>
        <time>2026-08-19T13:47:06.304Z</time>
      </trkpt>
      <trkpt lat="52.168194" lon="4.999355">
        <ele>1.645408</ele>
        <time>2026-08-19T13:47:08.811Z</time>
      </trkpt>
      <trkpt lat="52.168277" lon="4.999375">
        <ele>1.636712</ele>
        <time>2026-08-19T13:47:10.031Z</time>
      </trkpt>
      <trkpt lat="52.168807" lon="4.999026">
        <ele>1.577466</ele>
        <time>2026-08-19T13:47:18.250Z</time>
      </trkpt>
      <trkpt lat="52.168861" lon="4.998899">
        <ele>1.567642</ele>
        <time>2026-08-19T13:47:19.525Z</time>
      </trkpt>
      <trkpt lat="52.168930" lon="4.998943">
        <ele>1.559963</ele>
        <time>2026-08-19T13:47:20.509Z</time>
      </trkpt>
      <trkpt lat="52.169030" lon="4.998970">
        <ele>1.549457</ele>
        <time>2026-08-19T13:47:22.404Z</time>
      </trkpt>
      <trkpt lat="52.169144" lon="4.998902">
        <ele>1.536875</ele>
        <time>2026-08-19T13:47:24.650Z</time>
      </trkpt>
      <trkpt lat="52.169455" lon="4.998679">
        <ele>1.467138</ele>
        <time>2026-08-19T13:47:30.999Z</time>
      </trkpt>
      <trkpt lat="52.169486" lon="4.998799">
        <ele>1.447633</ele>
        <time>2026-08-19T13:47:32.482Z</time>
      </trkpt>
      <trkpt lat="52.169531" lon="4.999179">
        <ele>1.389660</ele>
        <time>2026-08-19T13:47:36.923Z</time>
      </trkpt>
      <trkpt lat="52.169505" lon="4.999460">
        <ele>1.347091</ele>
        <time>2026-08-19T13:47:40.185Z</time>
      </trkpt>
      <trkpt lat="52.169327" lon="4.999741">
        <ele>1.286579</ele>
        <time>2026-08-19T13:47:44.879Z</time>
      </trkpt>
      <trkpt lat="52.169388" lon="5.000021">
        <ele>1.242069</ele>
        <time>2026-08-19T13:47:48.361Z</time>
      </trkpt>
      <trkpt lat="52.169522" lon="5.000680">
        <ele>1.138071</ele>
        <time>2026-08-19T13:47:56.691Z</time>
      </trkpt>
      <trkpt lat="52.169725" lon="5.001721">
        <ele>1.217050</ele>
        <time>2026-08-19T13:48:10.677Z</time>
      </trkpt>
      <trkpt lat="52.169908" lon="5.002657">
        <ele>1.384767</ele>
        <time>2026-08-19T13:48:23.667Z</time>
      </trkpt>
      <trkpt lat="52.170027" lon="5.003228">
        <ele>1.487722</ele>
        <time>2026-08-19T13:48:31.206Z</time>
      </trkpt>
      <trkpt lat="52.170049" lon="5.003306">
        <ele>1.502379</ele>
        <time>2026-08-19T13:48:32.392Z</time>
      </trkpt>
      <trkpt lat="52.170120" lon="5.003230">
        <ele>1.526020</ele>
        <time>2026-08-19T13:48:33.880Z</time>
      </trkpt>
      <trkpt lat="52.170330" lon="5.003013">
        <ele>1.598176</ele>
        <time>2026-08-19T13:48:38.245Z</time>
      </trkpt>
      <trkpt lat="52.170611" lon="5.002788">
        <ele>1.723469</ele>
        <time>2026-08-19T13:48:43.662Z</time>
      </trkpt>
      <trkpt lat="52.170639" lon="5.002897">
        <ele>1.752477</ele>
        <time>2026-08-19T13:48:45.265Z</time>
      </trkpt>
      <trkpt lat="52.170662" lon="5.002992">
        <ele>1.777547</ele>
        <time>2026-08-19T13:48:46.677Z</time>
      </trkpt>
      <trkpt lat="52.170686" lon="5.003125">
        <ele>1.811577</ele>
        <time>2026-08-19T13:48:48.585Z</time>
      </trkpt>
      <trkpt lat="52.170740" lon="5.003443">
        <ele>1.892571</ele>
        <time>2026-08-19T13:48:53.162Z</time>
      </trkpt>
      <trkpt lat="52.170769" lon="5.003592">
        <ele>1.930943</ele>
        <time>2026-08-19T13:48:55.344Z</time>
      </trkpt>
      <trkpt lat="52.170841" lon="5.003746">
        <ele>1.978475</ele>
        <time>2026-08-19T13:48:58.019Z</time>
      </trkpt>
      <trkpt lat="52.171024" lon="5.004057">
        <ele>2.084267</ele>
        <time>2026-08-19T13:49:03.860Z</time>
      </trkpt>
      <trkpt lat="52.171099" lon="5.004079">
        <ele>2.114765</ele>
        <time>2026-08-19T13:49:05.522Z</time>
      </trkpt>
      <trkpt lat="52.171301" lon="5.004009">
        <ele>2.197417</ele>
        <time>2026-08-19T13:49:09.813Z</time>
      </trkpt>
      <trkpt lat="52.171695" lon="5.003840">
        <ele>2.275471</ele>
        <time>2026-08-19T13:49:18.696Z</time>
      </trkpt>
      <trkpt lat="52.171708" lon="5.003832">
        <ele>2.271964</ele>
        <time>2026-08-19T13:49:18.964Z</time>
      </trkpt>
      <trkpt lat="52.171761" lon="5.003812">
        <ele>2.258230</ele>
        <time>2026-08-19T13:49:20.027Z</time>
      </trkpt>
      <trkpt lat="52.171971" lon="5.003684">
        <ele>2.201632</ele>
        <time>2026-08-19T13:49:24.354Z</time>
      </trkpt>
      <trkpt lat="52.172056" lon="5.004058">
        <ele>2.139878</ele>
        <time>2026-08-19T13:49:29.036Z</time>
      </trkpt>
      <trkpt lat="52.172283" lon="5.004811">
        <ele>2.009970</ele>
        <time>2026-08-19T13:49:38.683Z</time>
      </trkpt>
      <trkpt lat="52.172335" lon="5.004940">
        <ele>1.986069</ele>
        <time>2026-08-19T13:49:39.902Z</time>
      </trkpt>
      <trkpt lat="52.172366" lon="5.005050">
        <ele>1.967326</ele>
        <time>2026-08-19T13:49:41.253Z</time>
      </trkpt>
      <trkpt lat="52.172240" lon="5.005224">
        <ele>1.925642</ele>
        <time>2026-08-19T13:49:44.228Z</time>
      </trkpt>
      <trkpt lat="52.171129" lon="5.006909">
        <ele>1.497227</ele>
        <time>2026-08-19T13:50:05.302Z</time>
      </trkpt>
      <trkpt lat="52.170547" lon="5.007723">
        <ele>1.249571</ele>
        <time>2026-08-19T13:50:16.161Z</time>
      </trkpt>
      <trkpt lat="52.169961" lon="5.008483">
        <ele>0.937362</ele>
        <time>2026-08-19T13:50:26.081Z</time>
      </trkpt>
      <trkpt lat="52.169508" lon="5.008956">
        <ele>0.713068</ele>
        <time>2026-08-19T13:50:33.304Z</time>
      </trkpt>
      <trkpt lat="52.169080" lon="5.009350">
        <ele>0.566718</ele>
        <time>2026-08-19T13:50:39.871Z</time>
      </trkpt>
      <trkpt lat="52.168791" lon="5.009518">
        <ele>0.537373</ele>
        <time>2026-08-19T13:50:43.949Z</time>
      </trkpt>
      <trkpt lat="52.168112" lon="5.009873">
        <ele>0.469177</ele>
        <time>2026-08-19T13:50:54.341Z</time>
      </trkpt>
      <trkpt lat="52.167716" lon="5.009957">
        <ele>0.430984</ele>
        <time>2026-08-19T13:51:00.305Z</time>
      </trkpt>
      <trkpt lat="52.166850" lon="5.010060">
        <ele>0.483816</ele>
        <time>2026-08-19T13:51:14.189Z</time>
      </trkpt>
      <trkpt lat="52.165993" lon="5.010245">
        <ele>0.576139</ele>
        <time>2026-08-19T13:51:27.525Z</time>
      </trkpt>
      <trkpt lat="52.165072" lon="5.010443">
        <ele>0.528535</ele>
        <time>2026-08-19T13:51:40.717Z</time>
      </trkpt>
      <trkpt lat="52.164781" lon="5.010498">
        <ele>0.495244</ele>
        <time>2026-08-19T13:51:44.697Z</time>
      </trkpt>
      <trkpt lat="52.164598" lon="5.010535">
        <ele>0.474289</ele>
        <time>2026-08-19T13:51:47.251Z</time>
      </trkpt>
      <trkpt lat="52.164160" lon="5.010640">
        <ele>0.423979</ele>
        <time>2026-08-19T13:51:53.721Z</time>
      </trkpt>
      <trkpt lat="52.163140" lon="5.011021">
        <ele>0.242266</ele>
        <time>2026-08-19T13:52:09.286Z</time>
      </trkpt>
      <trkpt lat="52.162697" lon="5.011241">
        <ele>0.154765</ele>
        <time>2026-08-19T13:52:15.628Z</time>
      </trkpt>
      <trkpt lat="52.162210" lon="5.011540">
        <ele>0.059546</ele>
        <time>2026-08-19T13:52:22.658Z</time>
      </trkpt>
      <trkpt lat="52.161656" lon="5.011934">
        <ele>0.045689</ele>
        <time>2026-08-19T13:52:31.123Z</time>
      </trkpt>
      <trkpt lat="52.161428" lon="5.012146">
        <ele>0.039671</ele>
        <time>2026-08-19T13:52:34.989Z</time>
      </trkpt>
      <trkpt lat="52.160944" lon="5.012742">
        <ele>0.025765</ele>
        <time>2026-08-19T13:52:44.351Z</time>
      </trkpt>
      <trkpt lat="52.160775" lon="5.013074">
        <ele>0.019698</ele>
        <time>2026-08-19T13:52:48.494Z</time>
      </trkpt>
      <trkpt lat="52.160595" lon="5.013649">
        <ele>0.105395</ele>
        <time>2026-08-19T13:52:54.710Z</time>
      </trkpt>
      <trkpt lat="52.160193" lon="5.015018">
        <ele>0.333175</ele>
        <time>2026-08-19T13:53:09.452Z</time>
      </trkpt>
      <trkpt lat="52.160070" lon="5.015468">
        <ele>0.407111</ele>
        <time>2026-08-19T13:53:14.207Z</time>
      </trkpt>
      <trkpt lat="52.159764" lon="5.016426">
        <ele>0.468533</ele>
        <time>2026-08-19T13:53:24.770Z</time>
      </trkpt>
      <trkpt lat="52.159490" lon="5.017132">
        <ele>0.479623</ele>
        <time>2026-08-19T13:53:32.765Z</time>
      </trkpt>
      <trkpt lat="52.159024" lon="5.018097">
        <ele>0.495924</ele>
        <time>2026-08-19T13:53:43.436Z</time>
      </trkpt>
      <trkpt lat="52.158877" lon="5.018385">
        <ele>0.456146</ele>
        <time>2026-08-19T13:53:46.615Z</time>
      </trkpt>
      <trkpt lat="52.158925" lon="5.018893">
        <ele>0.367971</ele>
        <time>2026-08-19T13:53:50.949Z</time>
      </trkpt>
      <trkpt lat="52.159042" lon="5.019322">
        <ele>0.287431</ele>
        <time>2026-08-19T13:53:56.438Z</time>
      </trkpt>
      <trkpt lat="52.159764" lon="5.020923">
        <ele>-0.046637</ele>
        <time>2026-08-19T13:54:19.878Z</time>
      </trkpt>
      <trkpt lat="52.160030" lon="5.021357">
        <ele>-0.137008</ele>
        <time>2026-08-19T13:54:27.210Z</time>
      </trkpt>
      <trkpt lat="52.161384" lon="5.023050">
        <ele>-0.434875</ele>
        <time>2026-08-19T13:55:00.068Z</time>
      </trkpt>
      <trkpt lat="52.161668" lon="5.023541">
        <ele>-0.432783</ele>
        <time>2026-08-19T13:55:08.582Z</time>
      </trkpt>
      <trkpt lat="52.161765" lon="5.023791">
        <ele>-0.431867</ele>
        <time>2026-08-19T13:55:12.468Z</time>
      </trkpt>
      <trkpt lat="52.161895" lon="5.024306">
        <ele>-0.430141</ele>
        <time>2026-08-19T13:55:19.685Z</time>
      </trkpt>
      <trkpt lat="52.161934" lon="5.024825">
        <ele>-0.428520</ele>
        <time>2026-08-19T13:55:26.329Z</time>
      </trkpt>
      <trkpt lat="52.161922" lon="5.025083">
        <ele>-0.438860</ele>
        <time>2026-08-19T13:55:29.577Z</time>
      </trkpt>
      <trkpt lat="52.161853" lon="5.025462">
        <ele>-0.474024</ele>
        <time>2026-08-19T13:55:34.410Z</time>
      </trkpt>
      <trkpt lat="52.161392" lon="5.026783">
        <ele>-0.609209</ele>
        <time>2026-08-19T13:55:52.736Z</time>
      </trkpt>
      <trkpt lat="52.161354" lon="5.026948">
        <ele>-0.624885</ele>
        <time>2026-08-19T13:55:54.719Z</time>
      </trkpt>
      <trkpt lat="52.161336" lon="5.027059">
        <ele>-0.635098</ele>
        <time>2026-08-19T13:55:56.058Z</time>
      </trkpt>
      <trkpt lat="52.161326" lon="5.027226">
        <ele>-0.650023</ele>
        <time>2026-08-19T13:55:57.986Z</time>
      </trkpt>
      <trkpt lat="52.161347" lon="5.027564">
        <ele>-0.680242</ele>
        <time>2026-08-19T13:56:01.920Z</time>
      </trkpt>
      <trkpt lat="52.161416" lon="5.027903">
        <ele>-0.710823</ele>
        <time>2026-08-19T13:56:06.141Z</time>
      </trkpt>
      <trkpt lat="52.161635" lon="5.028954">
        <ele>-0.804478</ele>
        <time>2026-08-19T13:56:16.345Z</time>
      </trkpt>
      <trkpt lat="52.161603" lon="5.029147">
        <ele>-0.821347</ele>
        <time>2026-08-19T13:56:18.127Z</time>
      </trkpt>
      <trkpt lat="52.161363" lon="5.029648">
        <ele>-0.874981</ele>
        <time>2026-08-19T13:56:24.170Z</time>
      </trkpt>
      <trkpt lat="52.161328" lon="5.029843">
        <ele>-0.892124</ele>
        <time>2026-08-19T13:56:26.045Z</time>
      </trkpt>
      <trkpt lat="52.161323" lon="5.030027">
        <ele>-0.907664</ele>
        <time>2026-08-19T13:56:27.644Z</time>
      </trkpt>
      <trkpt lat="52.161425" lon="5.030577">
        <ele>-1.062526</ele>
        <time>2026-08-19T13:56:32.467Z</time>
      </trkpt>
      <trkpt lat="52.161538" lon="5.030879">
        <ele>-1.252306</ele>
        <time>2026-08-19T13:56:35.141Z</time>
      </trkpt>
      <trkpt lat="52.161717" lon="5.031102">
        <ele>-1.449331</ele>
        <time>2026-08-19T13:56:37.885Z</time>
      </trkpt>
      <trkpt lat="52.161746" lon="5.031122">
        <ele>-1.476869</ele>
        <time>2026-08-19T13:56:38.278Z</time>
      </trkpt>
      <trkpt lat="52.161804" lon="5.031154">
        <ele>-1.530419</ele>
        <time>2026-08-19T13:56:39.005Z</time>
      </trkpt>
      <trkpt lat="52.161993" lon="5.031265">
        <ele>-1.706110</ele>
        <time>2026-08-19T13:56:41.444Z</time>
      </trkpt>
      <trkpt lat="52.162197" lon="5.031414">
        <ele>-1.901607</ele>
        <time>2026-08-19T13:56:44.150Z</time>
      </trkpt>
      <trkpt lat="52.162283" lon="5.031541">
        <ele>-2.003090</ele>
        <time>2026-08-19T13:56:45.557Z</time>
      </trkpt>
      <trkpt lat="52.162318" lon="5.031629">
        <ele>-2.059354</ele>
        <time>2026-08-19T13:56:46.317Z</time>
      </trkpt>
      <trkpt lat="52.162357" lon="5.031774">
        <ele>-2.144292</ele>
        <time>2026-08-19T13:56:47.507Z</time>
      </trkpt>
      <trkpt lat="52.162320" lon="5.031878">
        <ele>-2.208790</ele>
        <time>2026-08-19T13:56:48.375Z</time>
      </trkpt>
      <trkpt lat="52.162426" lon="5.032407">
        <ele>-2.507341</ele>
        <time>2026-08-19T13:56:52.476Z</time>
      </trkpt>
      <trkpt lat="52.162659" lon="5.033321">
        <ele>-2.548810</ele>
        <time>2026-08-19T13:57:00.184Z</time>
      </trkpt>
      <trkpt lat="52.164426" lon="5.041028">
        <ele>-2.537832</ele>
        <time>2026-08-19T13:58:17.235Z</time>
      </trkpt>
      <trkpt lat="52.164506" lon="5.041265">
        <ele>-2.533762</ele>
        <time>2026-08-19T13:58:19.715Z</time>
      </trkpt>
      <trkpt lat="52.164601" lon="5.041670">
        <ele>-2.527240</ele>
        <time>2026-08-19T13:58:23.648Z</time>
      </trkpt>
      <trkpt lat="52.164649" lon="5.041971">
        <ele>-2.522562</ele>
        <time>2026-08-19T13:58:26.433Z</time>
      </trkpt>
      <trkpt lat="52.165314" lon="5.044839">
        <ele>-2.367276</ele>
        <time>2026-08-19T13:58:54.288Z</time>
      </trkpt>
      <trkpt lat="52.165355" lon="5.044945">
        <ele>-2.356657</ele>
        <time>2026-08-19T13:58:55.597Z</time>
      </trkpt>
      <trkpt lat="52.165432" lon="5.045026">
        <ele>-2.343997</ele>
        <time>2026-08-19T13:58:57.170Z</time>
      </trkpt>
      <trkpt lat="52.165518" lon="5.045394">
        <ele>-2.310625</ele>
        <time>2026-08-19T13:59:01.231Z</time>
      </trkpt>
      <trkpt lat="52.165763" lon="5.046443">
        <ele>-2.328123</ele>
        <time>2026-08-19T13:59:12.182Z</time>
      </trkpt>
      <trkpt lat="52.165824" lon="5.046711">
        <ele>-2.379669</ele>
        <time>2026-08-19T13:59:14.823Z</time>
      </trkpt>
      <trkpt lat="52.166335" lon="5.049073">
        <ele>-2.816140</ele>
        <time>2026-08-19T13:59:35.173Z</time>
      </trkpt>
      <trkpt lat="52.166301" lon="5.049270">
        <ele>-2.842080</ele>
        <time>2026-08-19T13:59:36.827Z</time>
      </trkpt>
      <trkpt lat="52.166336" lon="5.049479">
        <ele>-2.869541</ele>
        <time>2026-08-19T13:59:38.595Z</time>
      </trkpt>
      <trkpt lat="52.167996" lon="5.056884">
        <ele>-3.664105</ele>
        <time>2026-08-19T14:00:47.465Z</time>
      </trkpt>
      <trkpt lat="52.168076" lon="5.056835">
        <ele>-3.671291</ele>
        <time>2026-08-19T14:00:49.322Z</time>
      </trkpt>
      <trkpt lat="52.169014" lon="5.061094">
        <ele>-2.940766</ele>
        <time>2026-08-19T14:01:34.637Z</time>
      </trkpt>
      <trkpt lat="52.169738" lon="5.064390">
        <ele>-2.929609</ele>
        <time>2026-08-19T14:02:05.243Z</time>
      </trkpt>
      <trkpt lat="52.170002" lon="5.065570">
        <ele>-2.927404</ele>
        <time>2026-08-19T14:02:16.765Z</time>
      </trkpt>
      <trkpt lat="52.170562" lon="5.068104">
        <ele>-2.611223</ele>
        <time>2026-08-19T14:02:42.572Z</time>
      </trkpt>
      <trkpt lat="52.170985" lon="5.070216">
        <ele>-2.134269</ele>
        <time>2026-08-19T14:03:06.051Z</time>
      </trkpt>
      <trkpt lat="52.170937" lon="5.070243">
        <ele>-2.116496</ele>
        <time>2026-08-19T14:03:07.090Z</time>
      </trkpt>
      <trkpt lat="52.171024" lon="5.070615">
        <ele>-2.031029</ele>
        <time>2026-08-19T14:03:12.158Z</time>
      </trkpt>
      <trkpt lat="52.171043" lon="5.071027">
        <ele>-2.107126</ele>
        <time>2026-08-19T14:03:17.090Z</time>
      </trkpt>
      <trkpt lat="52.171619" lon="5.073466">
        <ele>-2.727282</ele>
        <time>2026-08-19T14:03:46.275Z</time>
      </trkpt>
      <trkpt lat="52.171829" lon="5.074356">
        <ele>-2.516993</ele>
        <time>2026-08-19T14:03:58.130Z</time>
      </trkpt>
      <trkpt lat="52.172595" lon="5.077720">
        <ele>-1.454213</ele>
        <time>2026-08-19T14:04:48.555Z</time>
      </trkpt>
      <trkpt lat="52.172685" lon="5.078033">
        <ele>-1.321073</ele>
        <time>2026-08-19T14:04:53.458Z</time>
      </trkpt>
      <trkpt lat="52.172762" lon="5.078130">
        <ele>-1.259968</ele>
        <time>2026-08-19T14:04:55.671Z</time>
      </trkpt>
      <trkpt lat="52.172886" lon="5.078671">
        <ele>-1.037534</ele>
        <time>2026-08-19T14:05:01.844Z</time>
      </trkpt>
      <trkpt lat="52.172875" lon="5.078777">
        <ele>-0.996129</ele>
        <time>2026-08-19T14:05:02.972Z</time>
      </trkpt>
      <trkpt lat="52.172799" lon="5.078900">
        <ele>-0.951883</ele>
        <time>2026-08-19T14:05:04.814Z</time>
      </trkpt>
      <trkpt lat="52.172117" lon="5.079277">
        <ele>-0.836041</ele>
        <time>2026-08-19T14:05:16.707Z</time>
      </trkpt>
      <trkpt lat="52.172054" lon="5.079313">
        <ele>-0.825303</ele>
        <time>2026-08-19T14:05:17.741Z</time>
      </trkpt>
      <trkpt lat="52.171515" lon="5.079703">
        <ele>-0.730444</ele>
        <time>2026-08-19T14:05:26.238Z</time>
      </trkpt>
      <trkpt lat="52.171110" lon="5.079966">
        <ele>-0.675914</ele>
        <time>2026-08-19T14:05:32.296Z</time>
      </trkpt>
      <trkpt lat="52.170384" lon="5.080412">
        <ele>-0.742868</ele>
        <time>2026-08-19T14:05:43.604Z</time>
      </trkpt>
      <trkpt lat="52.170307" lon="5.080461">
        <ele>-0.750002</ele>
        <time>2026-08-19T14:05:44.797Z</time>
      </trkpt>
      <trkpt lat="52.169844" lon="5.080781">
        <ele>-0.793401</ele>
        <time>2026-08-19T14:05:52.020Z</time>
      </trkpt>
      <trkpt lat="52.169792" lon="5.080817">
        <ele>-0.798276</ele>
        <time>2026-08-19T14:05:52.841Z</time>
      </trkpt>
      <trkpt lat="52.169734" lon="5.080857">
        <ele>-0.803711</ele>
        <time>2026-08-19T14:05:53.765Z</time>
      </trkpt>
      <trkpt lat="52.169390" lon="5.081103">
        <ele>-0.826788</ele>
        <time>2026-08-19T14:05:59.419Z</time>
      </trkpt>
      <trkpt lat="52.167854" lon="5.082106">
        <ele>-0.841760</ele>
        <time>2026-08-19T14:06:23.734Z</time>
      </trkpt>
      <trkpt lat="52.165926" lon="5.083448">
        <ele>-0.577124</ele>
        <time>2026-08-19T14:06:56.215Z</time>
      </trkpt>
      <trkpt lat="52.165705" lon="5.083571">
        <ele>-0.580429</ele>
        <time>2026-08-19T14:06:59.705Z</time>
      </trkpt>
      <trkpt lat="52.165475" lon="5.083743">
        <ele>-0.584011</ele>
        <time>2026-08-19T14:07:03.427Z</time>
      </trkpt>
      <trkpt lat="52.165368" lon="5.083823">
        <ele>-0.585677</ele>
        <time>2026-08-19T14:07:05.139Z</time>
      </trkpt>
      <trkpt lat="52.165293" lon="5.083880">
        <ele>-0.586848</ele>
        <time>2026-08-19T14:07:06.339Z</time>
      </trkpt>
      <trkpt lat="52.165167" lon="5.083963">
        <ele>-0.588772</ele>
        <time>2026-08-19T14:07:08.302Z</time>
      </trkpt>
      <trkpt lat="52.164277" lon="5.084612">
        <ele>-0.598894</ele>
        <time>2026-08-19T14:07:22.496Z</time>
      </trkpt>
      <trkpt lat="52.163678" lon="5.085180">
        <ele>-0.599397</ele>
        <time>2026-08-19T14:07:32.846Z</time>
      </trkpt>
      <trkpt lat="52.162309" lon="5.086616">
        <ele>-0.614182</ele>
        <time>2026-08-19T14:07:57.165Z</time>
      </trkpt>
      <trkpt lat="52.161775" lon="5.087108">
        <ele>-0.625110</ele>
        <time>2026-08-19T14:08:06.019Z</time>
      </trkpt>
      <trkpt lat="52.160555" lon="5.088356">
        <ele>-0.667434</ele>
        <time>2026-08-19T14:08:27.088Z</time>
      </trkpt>
      <trkpt lat="52.159940" lon="5.088954">
        <ele>-0.691545</ele>
        <time>2026-08-19T14:08:37.475Z</time>
      </trkpt>
      <trkpt lat="52.159863" lon="5.089027">
        <ele>-0.686253</ele>
        <time>2026-08-19T14:08:38.876Z</time>
      </trkpt>
      <trkpt lat="52.159780" lon="5.089110">
        <ele>-0.675535</ele>
        <time>2026-08-19T14:08:40.430Z</time>
      </trkpt>
      <trkpt lat="52.159408" lon="5.089472">
        <ele>-0.627848</ele>
        <time>2026-08-19T14:08:47.281Z</time>
      </trkpt>
      <trkpt lat="52.159353" lon="5.089525">
        <ele>-0.620815</ele>
        <time>2026-08-19T14:08:48.293Z</time>
      </trkpt>
      <trkpt lat="52.159308" lon="5.089573">
        <ele>-0.614895</ele>
        <time>2026-08-19T14:08:49.103Z</time>
      </trkpt>
      <trkpt lat="52.158885" lon="5.090088">
        <ele>-0.556782</ele>
        <time>2026-08-19T14:08:57.097Z</time>
      </trkpt>
      <trkpt lat="52.158430" lon="5.090556">
        <ele>-0.497562</ele>
        <time>2026-08-19T14:09:05.530Z</time>
      </trkpt>
      <trkpt lat="52.157627" lon="5.091132">
        <ele>-0.719792</ele>
        <time>2026-08-19T14:09:18.133Z</time>
      </trkpt>
      <trkpt lat="52.157055" lon="5.091622">
        <ele>-0.890845</ele>
        <time>2026-08-19T14:09:26.614Z</time>
      </trkpt>
      <trkpt lat="52.156894" lon="5.091804">
        <ele>-0.942710</ele>
        <time>2026-08-19T14:09:29.227Z</time>
      </trkpt>
      <trkpt lat="52.156597" lon="5.092226">
        <ele>-0.977366</ele>
        <time>2026-08-19T14:09:34.585Z</time>
      </trkpt>
      <trkpt lat="52.156520" lon="5.092344">
        <ele>-0.979794</ele>
        <time>2026-08-19T14:09:36.060Z</time>
      </trkpt>
      <trkpt lat="52.156431" lon="5.092487">
        <ele>-0.982666</ele>
        <time>2026-08-19T14:09:37.838Z</time>
      </trkpt>
      <trkpt lat="52.156410" lon="5.092528">
        <ele>-0.983418</ele>
        <time>2026-08-19T14:09:38.323Z</time>
      </trkpt>
      <trkpt lat="52.155981" lon="5.093333">
        <ele>-0.998448</ele>
        <time>2026-08-19T14:09:48.553Z</time>
      </trkpt>
      <trkpt lat="52.155309" lon="5.094731">
        <ele>-1.110245</ele>
        <time>2026-08-19T14:10:05.211Z</time>
      </trkpt>
      <trkpt lat="52.155087" lon="5.095150">
        <ele>-1.177386</ele>
        <time>2026-08-19T14:10:09.913Z</time>
      </trkpt>
      <trkpt lat="52.154960" lon="5.095453">
        <ele>-1.221890</ele>
        <time>2026-08-19T14:10:12.936Z</time>
      </trkpt>
      <trkpt lat="52.156215" lon="5.097197">
        <ele>-1.560641</ele>
        <time>2026-08-19T14:10:35.549Z</time>
      </trkpt>
      <trkpt lat="52.156421" lon="5.097490">
        <ele>-1.618508</ele>
        <time>2026-08-19T14:10:39.402Z</time>
      </trkpt>
      <trkpt lat="52.157112" lon="5.098567">
        <ele>-1.728494</ele>
        <time>2026-08-19T14:10:53.080Z</time>
      </trkpt>
      <trkpt lat="52.159263" lon="5.101506">
        <ele>-1.374888</ele>
        <time>2026-08-19T14:11:36.263Z</time>
      </trkpt>
      <trkpt lat="52.159360" lon="5.101639">
        <ele>-1.349602</ele>
        <time>2026-08-19T14:11:38.268Z</time>
      </trkpt>
      <trkpt lat="52.159414" lon="5.101712">
        <ele>-1.335606</ele>
        <time>2026-08-19T14:11:39.369Z</time>
      </trkpt>
      <trkpt lat="52.159650" lon="5.102052">
        <ele>-1.262404</ele>
        <time>2026-08-19T14:11:44.474Z</time>
      </trkpt>
      <trkpt lat="52.159700" lon="5.102182">
        <ele>-1.228410</ele>
        <time>2026-08-19T14:11:46.060Z</time>
      </trkpt>
      <trkpt lat="52.159720" lon="5.102342">
        <ele>-1.192234</ele>
        <time>2026-08-19T14:11:47.696Z</time>
      </trkpt>
      <trkpt lat="52.159680" lon="5.102602">
        <ele>-1.132849</ele>
        <time>2026-08-19T14:11:50.460Z</time>
      </trkpt>
      <trkpt lat="52.159012" lon="5.104401">
        <ele>-0.666961</ele>
        <time>2026-08-19T14:12:11.603Z</time>
      </trkpt>
      <trkpt lat="52.158653" lon="5.105377">
        <ele>-0.634321</ele>
        <time>2026-08-19T14:12:22.439Z</time>
      </trkpt>
      <trkpt lat="52.158572" lon="5.105594">
        <ele>-0.633892</ele>
        <time>2026-08-19T14:12:24.745Z</time>
      </trkpt>
      <trkpt lat="52.158523" lon="5.105730">
        <ele>-0.633626</ele>
        <time>2026-08-19T14:12:26.195Z</time>
      </trkpt>
      <trkpt lat="52.157729" lon="5.107891">
        <ele>-0.749997</ele>
        <time>2026-08-19T14:12:48.224Z</time>
      </trkpt>
      <trkpt lat="52.157678" lon="5.108032">
        <ele>-0.769523</ele>
        <time>2026-08-19T14:12:49.682Z</time>
      </trkpt>
      <trkpt lat="52.157507" lon="5.108499">
        <ele>-0.834400</ele>
        <time>2026-08-19T14:12:54.535Z</time>
      </trkpt>
      <trkpt lat="52.157359" lon="5.108907">
        <ele>-0.890942</ele>
        <time>2026-08-19T14:12:58.575Z</time>
      </trkpt>
      <trkpt lat="52.157075" lon="5.109706">
        <ele>-0.961821</ele>
        <time>2026-08-19T14:13:06.274Z</time>
      </trkpt>
      <trkpt lat="52.156689" lon="5.110791">
        <ele>-0.821971</ele>
        <time>2026-08-19T14:13:18.099Z</time>
      </trkpt>
      <trkpt lat="52.156548" lon="5.111212">
        <ele>-0.768488</ele>
        <time>2026-08-19T14:13:22.574Z</time>
      </trkpt>
      <trkpt lat="52.156370" lon="5.111755">
        <ele>-0.699840</ele>
        <time>2026-08-19T14:13:28.441Z</time>
      </trkpt>
      <trkpt lat="52.156080" lon="5.112765">
        <ele>-0.493115</ele>
        <time>2026-08-19T14:13:40.257Z</time>
      </trkpt>
      <trkpt lat="52.156070" lon="5.112797">
        <ele>-0.484903</ele>
        <time>2026-08-19T14:13:40.648Z</time>
      </trkpt>
      <trkpt lat="52.155800" lon="5.113666">
        <ele>-0.262152</ele>
        <time>2026-08-19T14:13:50.721Z</time>
      </trkpt>
      <trkpt lat="52.155742" lon="5.113823">
        <ele>-0.220243</ele>
        <time>2026-08-19T14:13:52.520Z</time>
      </trkpt>
      <trkpt lat="52.155394" lon="5.114765">
        <ele>0.017183</ele>
        <time>2026-08-19T14:14:03.114Z</time>
      </trkpt>
      <trkpt lat="52.155344" lon="5.114900">
        <ele>0.018815</ele>
        <time>2026-08-19T14:14:04.570Z</time>
      </trkpt>
      <trkpt lat="52.154728" lon="5.116595">
        <ele>0.039197</ele>
        <time>2026-08-19T14:14:22.323Z</time>
      </trkpt>
      <trkpt lat="52.154564" lon="5.117025">
        <ele>0.044436</ele>
        <time>2026-08-19T14:14:26.891Z</time>
      </trkpt>
      <trkpt lat="52.154228" lon="5.117899">
        <ele>0.134890</ele>
        <time>2026-08-19T14:14:36.524Z</time>
      </trkpt>
      <trkpt lat="52.154096" lon="5.118233">
        <ele>0.178719</ele>
        <time>2026-08-19T14:14:40.342Z</time>
      </trkpt>
      <trkpt lat="52.153186" lon="5.120373">
        <ele>0.450047</ele>
        <time>2026-08-19T14:15:05.550Z</time>
      </trkpt>
      <trkpt lat="52.153026" lon="5.120727">
        <ele>0.490488</ele>
        <time>2026-08-19T14:15:09.751Z</time>
      </trkpt>
      <trkpt lat="52.152403" lon="5.122163">
        <ele>0.642891</ele>
        <time>2026-08-19T14:15:26.114Z</time>
      </trkpt>
      <trkpt lat="52.152293" lon="5.122433">
        <ele>0.650134</ele>
        <time>2026-08-19T14:15:29.114Z</time>
      </trkpt>
      <trkpt lat="52.151114" lon="5.125293">
        <ele>0.700636</ele>
        <time>2026-08-19T14:16:00.821Z</time>
      </trkpt>
      <trkpt lat="52.150840" lon="5.125917">
        <ele>0.696875</ele>
        <time>2026-08-19T14:16:07.964Z</time>
      </trkpt>
      <trkpt lat="52.150738" lon="5.126098">
        <ele>0.695670</ele>
        <time>2026-08-19T14:16:10.202Z</time>
      </trkpt>
      <trkpt lat="52.150591" lon="5.126095">
        <ele>0.694496</ele>
        <time>2026-08-19T14:16:12.369Z</time>
      </trkpt>
      <trkpt lat="52.150580" lon="5.126126">
        <ele>0.694320</ele>
        <time>2026-08-19T14:16:12.683Z</time>
      </trkpt>
      <trkpt lat="52.150553" lon="5.126203">
        <ele>0.693886</ele>
        <time>2026-08-19T14:16:13.472Z</time>
      </trkpt>
      <trkpt lat="52.150522" lon="5.126345">
        <ele>0.693147</ele>
        <time>2026-08-19T14:16:14.800Z</time>
      </trkpt>
      <trkpt lat="52.150487" lon="5.126852">
        <ele>0.676896</ele>
        <time>2026-08-19T14:16:19.222Z</time>
      </trkpt>
      <trkpt lat="52.150394" lon="5.127118">
        <ele>0.622340</ele>
        <time>2026-08-19T14:16:21.902Z</time>
      </trkpt>
      <trkpt lat="52.150117" lon="5.127740">
        <ele>0.485383</ele>
        <time>2026-08-19T14:16:28.459Z</time>
      </trkpt>
      <trkpt lat="52.149964" lon="5.128095">
        <ele>0.408076</ele>
        <time>2026-08-19T14:16:32.017Z</time>
      </trkpt>
      <trkpt lat="52.149680" lon="5.128772">
        <ele>0.261935</ele>
        <time>2026-08-19T14:16:38.786Z</time>
      </trkpt>
      <trkpt lat="52.149676" lon="5.128790">
        <ele>0.258523</ele>
        <time>2026-08-19T14:16:38.948Z</time>
      </trkpt>
      <trkpt lat="52.149654" lon="5.128952">
        <ele>0.228956</ele>
        <time>2026-08-19T14:16:40.307Z</time>
      </trkpt>
      <trkpt lat="52.149654" lon="5.128967">
        <ele>0.226283</ele>
        <time>2026-08-19T14:16:40.433Z</time>
      </trkpt>
      <trkpt lat="52.149743" lon="5.129331">
        <ele>0.175100</ele>
        <time>2026-08-19T14:16:43.730Z</time>
      </trkpt>
      <trkpt lat="52.149755" lon="5.129585">
        <ele>0.198981</ele>
        <time>2026-08-19T14:16:45.904Z</time>
      </trkpt>
      <trkpt lat="52.149614" lon="5.131080">
        <ele>0.340772</ele>
        <time>2026-08-19T14:17:00.159Z</time>
      </trkpt>
      <trkpt lat="52.149337" lon="5.133765">
        <ele>0.584698</ele>
        <time>2026-08-19T14:17:27.465Z</time>
      </trkpt>
      <trkpt lat="52.149044" lon="5.136295">
        <ele>0.655451</ele>
        <time>2026-08-19T14:17:50.224Z</time>
      </trkpt>
      <trkpt lat="52.149013" lon="5.136558">
        <ele>0.646508</ele>
        <time>2026-08-19T14:17:52.557Z</time>
      </trkpt>
      <trkpt lat="52.148488" lon="5.141251">
        <ele>0.580384</ele>
        <time>2026-08-19T14:18:35.971Z</time>
      </trkpt>
      <trkpt lat="52.148346" lon="5.142578">
        <ele>0.521186</ele>
        <time>2026-08-19T14:18:48.317Z</time>
      </trkpt>
      <trkpt lat="52.148251" lon="5.143466">
        <ele>0.481572</ele>
        <time>2026-08-19T14:18:56.556Z</time>
      </trkpt>
      <trkpt lat="52.148125" lon="5.145373">
        <ele>0.115955</ele>
        <time>2026-08-19T14:19:12.269Z</time>
      </trkpt>
      <trkpt lat="52.148047" lon="5.146096">
        <ele>-0.039118</ele>
        <time>2026-08-19T14:19:18.241Z</time>
      </trkpt>
      <trkpt lat="52.148065" lon="5.146252">
        <ele>-0.072649</ele>
        <time>2026-08-19T14:19:19.526Z</time>
      </trkpt>
      <trkpt lat="52.148180" lon="5.146421">
        <ele>-0.125959</ele>
        <time>2026-08-19T14:19:21.596Z</time>
      </trkpt>
      <trkpt lat="52.151041" lon="5.148528">
        <ele>0.206631</ele>
        <time>2026-08-19T14:20:09.639Z</time>
      </trkpt>
      <trkpt lat="52.151253" lon="5.148689">
        <ele>0.255962</ele>
        <time>2026-08-19T14:20:13.431Z</time>
      </trkpt>
      <trkpt lat="52.151322" lon="5.148786">
        <ele>0.275181</ele>
        <time>2026-08-19T14:20:14.913Z</time>
      </trkpt>
      <trkpt lat="52.151348" lon="5.148877">
        <ele>0.288172</ele>
        <time>2026-08-19T14:20:15.925Z</time>
      </trkpt>
      <trkpt lat="52.151341" lon="5.149088">
        <ele>0.315519</ele>
        <time>2026-08-19T14:20:18.049Z</time>
      </trkpt>
      <trkpt lat="52.150869" lon="5.151000">
        <ele>0.725076</ele>
        <time>2026-08-19T14:20:38.869Z</time>
      </trkpt>
      <trkpt lat="52.150572" lon="5.152248">
        <ele>0.888490</ele>
        <time>2026-08-19T14:20:51.823Z</time>
      </trkpt>
      <trkpt lat="52.150268" lon="5.153375">
        <ele>0.857296</ele>
        <time>2026-08-19T14:21:02.885Z</time>
      </trkpt>
      <trkpt lat="52.149501" lon="5.155959">
        <ele>0.685182</ele>
        <time>2026-08-19T14:21:27.657Z</time>
      </trkpt>
      <trkpt lat="52.149421" lon="5.156217">
        <ele>0.660225</ele>
        <time>2026-08-19T14:21:30.218Z</time>
      </trkpt>
      <trkpt lat="52.149278" lon="5.156480">
        <ele>0.629887</ele>
        <time>2026-08-19T14:21:33.426Z</time>
      </trkpt>
      <trkpt lat="52.149271" lon="5.156542">
        <ele>0.624445</ele>
        <time>2026-08-19T14:21:34.017Z</time>
      </trkpt>
      <trkpt lat="52.149265" lon="5.156616">
        <ele>0.618000</ele>
        <time>2026-08-19T14:21:34.744Z</time>
      </trkpt>
      <trkpt lat="52.149236" lon="5.156931">
        <ele>0.590500</ele>
        <time>2026-08-19T14:21:37.759Z</time>
      </trkpt>
      <trkpt lat="52.149216" lon="5.157260">
        <ele>0.549354</ele>
        <time>2026-08-19T14:21:40.679Z</time>
      </trkpt>
      <trkpt lat="52.149227" lon="5.157825">
        <ele>0.443699</ele>
        <time>2026-08-19T14:21:45.842Z</time>
      </trkpt>
      <trkpt lat="52.149167" lon="5.158554">
        <ele>0.306226</ele>
        <time>2026-08-19T14:21:51.889Z</time>
      </trkpt>
      <trkpt lat="52.149086" lon="5.158896">
        <ele>0.237708</ele>
        <time>2026-08-19T14:21:54.808Z</time>
      </trkpt>
      <trkpt lat="52.149096" lon="5.158962">
        <ele>0.225001</ele>
        <time>2026-08-19T14:21:55.357Z</time>
      </trkpt>
      <trkpt lat="52.149128" lon="5.158972">
        <ele>0.215077</ele>
        <time>2026-08-19T14:21:55.821Z</time>
      </trkpt>
      <trkpt lat="52.149192" lon="5.159006">
        <ele>0.194572</ele>
        <time>2026-08-19T14:21:56.744Z</time>
      </trkpt>
      <trkpt lat="52.149236" lon="5.159027">
        <ele>0.180607</ele>
        <time>2026-08-19T14:21:57.378Z</time>
      </trkpt>
      <trkpt lat="52.149253" lon="5.159252">
        <ele>0.138236</ele>
        <time>2026-08-19T14:22:00.020Z</time>
      </trkpt>
      <trkpt lat="52.149342" lon="5.159333">
        <ele>0.107186</ele>
        <time>2026-08-19T14:22:01.952Z</time>
      </trkpt>
      <trkpt lat="52.149361" lon="5.159390">
        <ele>0.095062</ele>
        <time>2026-08-19T14:22:02.696Z</time>
      </trkpt>
      <trkpt lat="52.149356" lon="5.159445">
        <ele>0.084670</ele>
        <time>2026-08-19T14:22:03.344Z</time>
      </trkpt>
      <trkpt lat="52.149344" lon="5.159548">
        <ele>0.065075</ele>
        <time>2026-08-19T14:22:04.551Z</time>
      </trkpt>
      <trkpt lat="52.149326" lon="5.159647">
        <ele>0.045776</ele>
        <time>2026-08-19T14:22:05.720Z</time>
      </trkpt>
      <trkpt lat="52.149070" lon="5.159715">
        <ele>0.011636</ele>
        <time>2026-08-19T14:22:09.140Z</time>
      </trkpt>
      <trkpt lat="52.148987" lon="5.159670">
        <ele>0.005554</ele>
        <time>2026-08-19T14:22:10.265Z</time>
      </trkpt>
      <trkpt lat="52.148862" lon="5.159349">
        <ele>-0.010669</ele>
        <time>2026-08-19T14:22:13.433Z</time>
      </trkpt>
      <trkpt lat="52.148411" lon="5.158950">
        <ele>-0.046354</ele>
        <time>2026-08-19T14:22:20.647Z</time>
      </trkpt>
      <trkpt lat="52.147399" lon="5.158412">
        <ele>-0.026634</ele>
        <time>2026-08-19T14:22:43.374Z</time>
      </trkpt>
      <trkpt lat="52.147089" lon="5.158163">
        <ele>0.060803</ele>
        <time>2026-08-19T14:22:50.660Z</time>
      </trkpt>
      <trkpt lat="52.146883" lon="5.158042">
        <ele>0.116201</ele>
        <time>2026-08-19T14:22:55.255Z</time>
      </trkpt>
      <trkpt lat="52.144785" lon="5.156855">
        <ele>0.808600</ele>
        <time>2026-08-19T14:23:30.514Z</time>
      </trkpt>
      <trkpt lat="52.144303" lon="5.156615">
        <ele>0.987611</ele>
        <time>2026-08-19T14:23:38.949Z</time>
      </trkpt>
      <trkpt lat="52.143645" lon="5.156324">
        <ele>1.492253</ele>
        <time>2026-08-19T14:23:51.217Z</time>
      </trkpt>
      <trkpt lat="52.143042" lon="5.156008">
        <ele>1.967396</ele>
        <time>2026-08-19T14:24:02.768Z</time>
      </trkpt>
      <trkpt lat="52.142769" lon="5.156050">
        <ele>2.173092</ele>
        <time>2026-08-19T14:24:07.747Z</time>
      </trkpt>
      <trkpt lat="52.142693" lon="5.156131">
        <ele>2.241213</ele>
        <time>2026-08-19T14:24:09.420Z</time>
      </trkpt>
      <trkpt lat="52.142700" lon="5.156260">
        <ele>2.300830</ele>
        <time>2026-08-19T14:24:11.261Z</time>
      </trkpt>
      <trkpt lat="52.142500" lon="5.157175">
        <ele>2.482923</ele>
        <time>2026-08-19T14:24:24.849Z</time>
      </trkpt>
      <trkpt lat="52.142380" lon="5.157748">
        <ele>2.579253</ele>
        <time>2026-08-19T14:24:32.905Z</time>
      </trkpt>
      <trkpt lat="52.142335" lon="5.157907">
        <ele>2.607112</ele>
        <time>2026-08-19T14:24:35.142Z</time>
      </trkpt>
      <trkpt lat="52.142296" lon="5.158031">
        <ele>2.629281</ele>
        <time>2026-08-19T14:24:36.903Z</time>
      </trkpt>
      <trkpt lat="52.142266" lon="5.158141">
        <ele>2.648433</ele>
        <time>2026-08-19T14:24:38.416Z</time>
      </trkpt>
      <trkpt lat="52.142070" lon="5.159022">
        <ele>2.797533</ele>
        <time>2026-08-19T14:24:49.973Z</time>
      </trkpt>
      <trkpt lat="52.142025" lon="5.159211">
        <ele>2.770734</ele>
        <time>2026-08-19T14:24:52.393Z</time>
      </trkpt>
      <trkpt lat="52.141993" lon="5.159388">
        <ele>2.715690</ele>
        <time>2026-08-19T14:24:54.579Z</time>
      </trkpt>
      <trkpt lat="52.141951" lon="5.159663">
        <ele>2.631153</ele>
        <time>2026-08-19T14:24:57.893Z</time>
      </trkpt>
      <trkpt lat="52.141167" lon="5.162594">
        <ele>1.715569</ele>
        <time>2026-08-19T14:25:33.820Z</time>
      </trkpt>
      <trkpt lat="52.141178" lon="5.162768">
        <ele>1.671126</ele>
        <time>2026-08-19T14:25:35.776Z</time>
      </trkpt>
      <trkpt lat="52.141313" lon="5.162881">
        <ele>1.608296</ele>
        <time>2026-08-19T14:25:38.520Z</time>
      </trkpt>
      <trkpt lat="52.141097" lon="5.163637">
        <ele>1.396424</ele>
        <time>2026-08-19T14:25:45.239Z</time>
      </trkpt>
      <trkpt lat="52.141053" lon="5.163612">
        <ele>1.377133</ele>
        <time>2026-08-19T14:25:45.900Z</time>
      </trkpt>
      <trkpt lat="52.140832" lon="5.163481">
        <ele>1.279776</ele>
        <time>2026-08-19T14:25:50.484Z</time>
      </trkpt>
      <trkpt lat="52.140623" lon="5.163364">
        <ele>1.190875</ele>
        <time>2026-08-19T14:25:53.721Z</time>
      </trkpt>
      <trkpt lat="52.140420" lon="5.163247">
        <ele>1.213299</ele>
        <time>2026-08-19T14:25:56.903Z</time>
      </trkpt>
      <trkpt lat="52.140085" lon="5.163050">
        <ele>1.250387</ele>
        <time>2026-08-19T14:26:02.463Z</time>
      </trkpt>
      <trkpt lat="52.140067" lon="5.163165">
        <ele>1.257973</ele>
        <time>2026-08-19T14:26:03.609Z</time>
      </trkpt>
      <trkpt lat="52.139989" lon="5.163744">
        <ele>1.295859</ele>
        <time>2026-08-19T14:26:09.330Z</time>
      </trkpt>
      <trkpt lat="52.139923" lon="5.164517">
        <ele>1.345740</ele>
        <time>2026-08-19T14:26:16.988Z</time>
      </trkpt>
      <trkpt lat="52.139873" lon="5.165233">
        <ele>1.366693</ele>
        <time>2026-08-19T14:26:23.646Z</time>
      </trkpt>
      <trkpt lat="52.139805" lon="5.166164">
        <ele>1.320193</ele>
        <time>2026-08-19T14:26:31.978Z</time>
      </trkpt>
      <trkpt lat="52.139598" lon="5.168013">
        <ele>1.229076</ele>
        <time>2026-08-19T14:26:48.440Z</time>
      </trkpt>
      <trkpt lat="52.139430" lon="5.170493">
        <ele>1.154066</ele>
        <time>2026-08-19T14:27:10.825Z</time>
      </trkpt>
      <trkpt lat="52.139226" lon="5.171970">
        <ele>1.103487</ele>
        <time>2026-08-19T14:27:24.948Z</time>
      </trkpt>
      <trkpt lat="52.139158" lon="5.172623">
        <ele>1.080746</ele>
        <time>2026-08-19T14:27:30.910Z</time>
      </trkpt>
      <trkpt lat="52.139144" lon="5.172774">
        <ele>1.075502</ele>
        <time>2026-08-19T14:27:32.247Z</time>
      </trkpt>
      <trkpt lat="52.139111" lon="5.173768">
        <ele>1.044334</ele>
        <time>2026-08-19T14:27:40.786Z</time>
      </trkpt>
      <trkpt lat="52.139179" lon="5.174957">
        <ele>1.057911</ele>
        <time>2026-08-19T14:27:51.174Z</time>
      </trkpt>
      <trkpt lat="52.139341" lon="5.176583">
        <ele>1.076639</ele>
        <time>2026-08-19T14:28:06.701Z</time>
      </trkpt>
      <trkpt lat="52.139418" lon="5.177303">
        <ele>1.225429</ele>
        <time>2026-08-19T14:28:14.092Z</time>
      </trkpt>
      <trkpt lat="52.139623" lon="5.179980">
        <ele>1.783692</ele>
        <time>2026-08-19T14:28:40.901Z</time>
      </trkpt>
      <trkpt lat="52.139752" lon="5.181404">
        <ele>2.061480</ele>
        <time>2026-08-19T14:28:55.289Z</time>
      </trkpt>
      <trkpt lat="52.139798" lon="5.182547">
        <ele>2.297006</ele>
        <time>2026-08-19T14:29:06.300Z</time>
      </trkpt>
      <trkpt lat="52.139771" lon="5.182986">
        <ele>2.431670</ele>
        <time>2026-08-19T14:29:10.470Z</time>
      </trkpt>
      <trkpt lat="52.139596" lon="5.184544">
        <ele>2.915109</ele>
        <time>2026-08-19T14:29:26.302Z</time>
      </trkpt>
      <trkpt lat="52.139326" lon="5.187046">
        <ele>3.888093</ele>
        <time>2026-08-19T14:29:54.990Z</time>
      </trkpt>
      <trkpt lat="52.139121" lon="5.188005">
        <ele>4.311820</ele>
        <time>2026-08-19T14:30:05.702Z</time>
      </trkpt>
      <trkpt lat="52.139086" lon="5.188240">
        <ele>4.382257</ele>
        <time>2026-08-19T14:30:08.112Z</time>
      </trkpt>
      <trkpt lat="52.139093" lon="5.188381">
        <ele>4.393646</ele>
        <time>2026-08-19T14:30:09.482Z</time>
      </trkpt>
      <trkpt lat="52.139207" lon="5.188662">
        <ele>4.420766</ele>
        <time>2026-08-19T14:30:12.726Z</time>
      </trkpt>
      <trkpt lat="52.139295" lon="5.189575">
        <ele>4.495175</ele>
        <time>2026-08-19T14:30:21.255Z</time>
      </trkpt>
      <trkpt lat="52.139472" lon="5.190817">
        <ele>4.597831</ele>
        <time>2026-08-19T14:30:32.952Z</time>
      </trkpt>
      <trkpt lat="52.139619" lon="5.191402">
        <ele>4.615435</ele>
        <time>2026-08-19T14:30:38.900Z</time>
      </trkpt>
      <trkpt lat="52.140068" lon="5.192765">
        <ele>4.630303</ele>
        <time>2026-08-19T14:30:53.283Z</time>
      </trkpt>
      <trkpt lat="52.140335" lon="5.193298">
        <ele>4.636915</ele>
        <time>2026-08-19T14:30:59.494Z</time>
      </trkpt>
      <trkpt lat="52.140739" lon="5.193982">
        <ele>4.515305</ele>
        <time>2026-08-19T14:31:07.745Z</time>
      </trkpt>
      <trkpt lat="52.141021" lon="5.194358">
        <ele>4.413671</ele>
        <time>2026-08-19T14:31:12.765Z</time>
      </trkpt>
      <trkpt lat="52.141462" lon="5.194889">
        <ele>4.260727</ele>
        <time>2026-08-19T14:31:20.215Z</time>
      </trkpt>
      <trkpt lat="52.142556" lon="5.196208">
        <ele>3.854012</ele>
        <time>2026-08-19T14:31:38.777Z</time>
      </trkpt>
      <trkpt lat="52.142939" lon="5.196729">
        <ele>3.700122</ele>
        <time>2026-08-19T14:31:45.680Z</time>
      </trkpt>
      <trkpt lat="52.143329" lon="5.197544">
        <ele>3.534387</ele>
        <time>2026-08-19T14:31:54.472Z</time>
      </trkpt>
      <trkpt lat="52.144279" lon="5.200105">
        <ele>3.346165</ele>
        <time>2026-08-19T14:32:20.392Z</time>
      </trkpt>
      <trkpt lat="52.145378" lon="5.203347">
        <ele>4.227420</ele>
        <time>2026-08-19T14:32:58.615Z</time>
      </trkpt>
      <trkpt lat="52.145828" lon="5.205098">
        <ele>4.687667</ele>
        <time>2026-08-19T14:33:17.881Z</time>
      </trkpt>
      <trkpt lat="52.145848" lon="5.205279">
        <ele>4.697976</ele>
        <time>2026-08-19T14:33:19.656Z</time>
      </trkpt>
      <trkpt lat="52.145753" lon="5.205445">
        <ele>4.710700</ele>
        <time>2026-08-19T14:33:21.819Z</time>
      </trkpt>
      <trkpt lat="52.145778" lon="5.205603">
        <ele>4.719847</ele>
        <time>2026-08-19T14:33:23.358Z</time>
      </trkpt>
      <trkpt lat="52.145815" lon="5.205786">
        <ele>4.730648</ele>
        <time>2026-08-19T14:33:25.179Z</time>
      </trkpt>
      <trkpt lat="52.145839" lon="5.205909">
        <ele>4.737883</ele>
        <time>2026-08-19T14:33:26.800Z</time>
      </trkpt>
      <trkpt lat="52.146006" lon="5.206741">
        <ele>4.786953</ele>
        <time>2026-08-19T14:33:37.739Z</time>
      </trkpt>
      <trkpt lat="52.146115" lon="5.207574">
        <ele>4.834698</ele>
        <time>2026-08-19T14:33:48.238Z</time>
      </trkpt>
      <trkpt lat="52.146744" lon="5.213900">
        <ele>4.980986</ele>
        <time>2026-08-19T14:35:08.455Z</time>
      </trkpt>
      <trkpt lat="52.146970" lon="5.216740">
        <ele>4.973130</ele>
        <time>2026-08-19T14:35:43.844Z</time>
      </trkpt>
      <trkpt lat="52.147150" lon="5.217960">
        <ele>4.937289</ele>
        <time>2026-08-19T14:35:59.234Z</time>
      </trkpt>
      <trkpt lat="52.147340" lon="5.218830">
        <ele>4.910911</ele>
        <time>2026-08-19T14:36:10.665Z</time>
      </trkpt>
      <trkpt lat="52.147812" lon="5.220294">
        <ele>4.850002</ele>
        <time>2026-08-19T14:36:30.963Z</time>
      </trkpt>
      <trkpt lat="52.147881" lon="5.220492">
        <ele>4.841078</ele>
        <time>2026-08-19T14:36:33.730Z</time>
      </trkpt>
      <trkpt lat="52.147904" lon="5.220569">
        <ele>4.837722</ele>
        <time>2026-08-19T14:36:34.763Z</time>
      </trkpt>
      <trkpt lat="52.147972" lon="5.220780">
        <ele>4.828381</ele>
        <time>2026-08-19T14:36:36.873Z</time>
      </trkpt>
      <trkpt lat="52.148006" lon="5.220971">
        <ele>4.820587</ele>
        <time>2026-08-19T14:36:39.280Z</time>
      </trkpt>
      <trkpt lat="52.148392" lon="5.221344">
        <ele>4.791925</ele>
        <time>2026-08-19T14:36:48.097Z</time>
      </trkpt>
      <trkpt lat="52.148500" lon="5.221374">
        <ele>4.787236</ele>
        <time>2026-08-19T14:36:50.240Z</time>
      </trkpt>
      <trkpt lat="52.149760" lon="5.222690">
        <ele>5.054434</ele>
        <time>2026-08-19T14:37:12.989Z</time>
      </trkpt>
      <trkpt lat="52.151137" lon="5.224059">
        <ele>5.716065</ele>
        <time>2026-08-19T14:37:40.540Z</time>
      </trkpt>
      <trkpt lat="52.151212" lon="5.224133">
        <ele>5.756527</ele>
        <time>2026-08-19T14:37:42.011Z</time>
      </trkpt>
      <trkpt lat="52.151820" lon="5.224760">
        <ele>5.985520</ele>
        <time>2026-08-19T14:37:53.721Z</time>
      </trkpt>
      <trkpt lat="52.152653" lon="5.225631">
        <ele>6.132193</ele>
        <time>2026-08-19T14:38:08.902Z</time>
      </trkpt>
      <trkpt lat="52.152739" lon="5.225717">
        <ele>6.147146</ele>
        <time>2026-08-19T14:38:10.437Z</time>
      </trkpt>
      <trkpt lat="52.152796" lon="5.225774">
        <ele>6.157056</ele>
        <time>2026-08-19T14:38:11.444Z</time>
      </trkpt>
      <trkpt lat="52.157010" lon="5.229960">
        <ele>6.136864</ele>
        <time>2026-08-19T14:39:24.750Z</time>
      </trkpt>
      <trkpt lat="52.157958" lon="5.230981">
        <ele>6.024769</ele>
        <time>2026-08-19T14:39:40.269Z</time>
      </trkpt>
      <trkpt lat="52.158014" lon="5.231082">
        <ele>6.023677</ele>
        <time>2026-08-19T14:39:41.443Z</time>
      </trkpt>
      <trkpt lat="52.158020" lon="5.231103">
        <ele>6.023491</ele>
        <time>2026-08-19T14:39:41.635Z</time>
      </trkpt>
      <trkpt lat="52.158002" lon="5.231301">
        <ele>6.021885</ele>
        <time>2026-08-19T14:39:43.366Z</time>
      </trkpt>
      <trkpt lat="52.157911" lon="5.231433">
        <ele>6.020291</ele>
        <time>2026-08-19T14:39:45.105Z</time>
      </trkpt>
      <trkpt lat="52.157675" lon="5.231530">
        <ele>6.017107</ele>
        <time>2026-08-19T14:39:48.647Z</time>
      </trkpt>
      <trkpt lat="52.155659" lon="5.232256">
        <ele>6.118697</ele>
        <time>2026-08-19T14:40:21.167Z</time>
      </trkpt>
      <trkpt lat="52.153682" lon="5.233017">
        <ele>5.867167</ele>
        <time>2026-08-19T14:40:49.941Z</time>
      </trkpt>
      <trkpt lat="52.152706" lon="5.233504">
        <ele>5.721154</ele>
        <time>2026-08-19T14:41:03.914Z</time>
      </trkpt>
      <trkpt lat="52.150585" lon="5.234795">
        <ele>5.719928</ele>
        <time>2026-08-19T14:41:37.746Z</time>
      </trkpt>
      <trkpt lat="52.148913" lon="5.235821">
        <ele>6.014831</ele>
        <time>2026-08-19T14:42:06.236Z</time>
      </trkpt>
      <trkpt lat="52.147793" lon="5.236560">
        <ele>6.183720</ele>
        <time>2026-08-19T14:42:24.610Z</time>
      </trkpt>
      <trkpt lat="52.147518" lon="5.236598">
        <ele>6.201148</ele>
        <time>2026-08-19T14:42:28.613Z</time>
      </trkpt>
      <trkpt lat="52.147010" lon="5.237069">
        <ele>6.238055</ele>
        <time>2026-08-19T14:42:40.523Z</time>
      </trkpt>
      <trkpt lat="52.146699" lon="5.237343">
        <ele>6.260379</ele>
        <time>2026-08-19T14:42:45.879Z</time>
      </trkpt>
      <trkpt lat="52.145904" lon="5.237865">
        <ele>6.513100</ele>
        <time>2026-08-19T14:42:58.852Z</time>
      </trkpt>
      <trkpt lat="52.145176" lon="5.238342">
        <ele>6.756209</ele>
        <time>2026-08-19T14:43:11.649Z</time>
      </trkpt>
      <trkpt lat="52.144980" lon="5.238470">
        <ele>6.822336</ele>
        <time>2026-08-19T14:43:15.370Z</time>
      </trkpt>
      <trkpt lat="52.144788" lon="5.238593">
        <ele>6.951938</ele>
        <time>2026-08-19T14:43:19.098Z</time>
      </trkpt>
      <trkpt lat="52.144593" lon="5.238704">
        <ele>7.081698</ele>
        <time>2026-08-19T14:43:22.778Z</time>
      </trkpt>
      <trkpt lat="52.143825" lon="5.238838">
        <ele>7.566921</ele>
        <time>2026-08-19T14:43:36.507Z</time>
      </trkpt>
      <trkpt lat="52.143830" lon="5.238991">
        <ele>7.625990</ele>
        <time>2026-08-19T14:43:38.684Z</time>
      </trkpt>
      <trkpt lat="52.143794" lon="5.239124">
        <ele>7.682030</ele>
        <time>2026-08-19T14:43:40.751Z</time>
      </trkpt>
      <trkpt lat="52.143238" lon="5.239681">
        <ele>7.981899</ele>
        <time>2026-08-19T14:43:55.296Z</time>
      </trkpt>
      <trkpt lat="52.143199" lon="5.239739">
        <ele>7.989189</ele>
        <time>2026-08-19T14:43:56.407Z</time>
      </trkpt>
      <trkpt lat="52.143116" lon="5.239858">
        <ele>8.004453</ele>
        <time>2026-08-19T14:43:58.684Z</time>
      </trkpt>
      <trkpt lat="52.143051" lon="5.239948">
        <ele>8.016230</ele>
        <time>2026-08-19T14:44:00.419Z</time>
      </trkpt>
      <trkpt lat="52.142431" lon="5.240901">
        <ele>8.133909</ele>
        <time>2026-08-19T14:44:17.588Z</time>
      </trkpt>
      <trkpt lat="52.142187" lon="5.241344">
        <ele>8.184346</ele>
        <time>2026-08-19T14:44:25.253Z</time>
      </trkpt>
      <trkpt lat="52.141551" lon="5.242682">
        <ele>8.396262</ele>
        <time>2026-08-19T14:44:46.601Z</time>
      </trkpt>
      <trkpt lat="52.140963" lon="5.244007">
        <ele>8.654534</ele>
        <time>2026-08-19T14:45:08.113Z</time>
      </trkpt>
      <trkpt lat="52.140685" lon="5.244608">
        <ele>8.908264</ele>
        <time>2026-08-19T14:45:18.117Z</time>
      </trkpt>
      <trkpt lat="52.140628" lon="5.244733">
        <ele>8.960766</ele>
        <time>2026-08-19T14:45:19.742Z</time>
      </trkpt>
      <trkpt lat="52.140187" lon="5.245682">
        <ele>9.362087</ele>
        <time>2026-08-19T14:45:32.756Z</time>
      </trkpt>
      <trkpt lat="52.139721" lon="5.246605">
        <ele>9.637715</ele>
        <time>2026-08-19T14:45:45.356Z</time>
      </trkpt>
      <trkpt lat="52.139329" lon="5.247257">
        <ele>9.746615</ele>
        <time>2026-08-19T14:45:54.579Z</time>
      </trkpt>
      <trkpt lat="52.138795" lon="5.248010">
        <ele>9.883906</ele>
        <time>2026-08-19T14:46:05.105Z</time>
      </trkpt>
      <trkpt lat="52.138387" lon="5.248478">
        <ele>9.865873</ele>
        <time>2026-08-19T14:46:11.883Z</time>
      </trkpt>
      <trkpt lat="52.137965" lon="5.248907">
        <ele>9.786750</ele>
        <time>2026-08-19T14:46:18.660Z</time>
      </trkpt>
      <trkpt lat="52.137583" lon="5.249199">
        <ele>9.719629</ele>
        <time>2026-08-19T14:46:24.563Z</time>
      </trkpt>
      <trkpt lat="52.136647" lon="5.249742">
        <ele>9.683132</ele>
        <time>2026-08-19T14:46:39.578Z</time>
      </trkpt>
      <trkpt lat="52.136671" lon="5.249892">
        <ele>9.694298</ele>
        <time>2026-08-19T14:46:41.071Z</time>
      </trkpt>
      <trkpt lat="52.136724" lon="5.250368">
        <ele>9.729145</ele>
        <time>2026-08-19T14:46:45.774Z</time>
      </trkpt>
      <trkpt lat="52.136722" lon="5.250641">
        <ele>9.748812</ele>
        <time>2026-08-19T14:46:49.310Z</time>
      </trkpt>
      <trkpt lat="52.136722" lon="5.251101">
        <ele>9.781946</ele>
        <time>2026-08-19T14:46:55.236Z</time>
      </trkpt>
      <trkpt lat="52.136769" lon="5.251511">
        <ele>9.811990</ele>
        <time>2026-08-19T14:47:00.566Z</time>
      </trkpt>
      <trkpt lat="52.137230" lon="5.253610">
        <ele>9.947333</ele>
        <time>2026-08-19T14:47:27.957Z</time>
      </trkpt>
      <trkpt lat="52.137190" lon="5.253945">
        <ele>9.967142</ele>
        <time>2026-08-19T14:47:32.279Z</time>
      </trkpt>
      <trkpt lat="52.137124" lon="5.254171">
        <ele>9.981669</ele>
        <time>2026-08-19T14:47:35.518Z</time>
      </trkpt>
      <trkpt lat="52.137025" lon="5.254317">
        <ele>9.994296</ele>
        <time>2026-08-19T14:47:38.362Z</time>
      </trkpt>
      <trkpt lat="52.135740" lon="5.255350">
        <ele>10.506979</ele>
        <time>2026-08-19T14:48:09.910Z</time>
      </trkpt>
      <trkpt lat="52.135083" lon="5.255747">
        <ele>10.762864</ele>
        <time>2026-08-19T14:48:25.265Z</time>
      </trkpt>
      <trkpt lat="52.134599" lon="5.255996">
        <ele>10.879292</ele>
        <time>2026-08-19T14:48:36.105Z</time>
      </trkpt>
      <trkpt lat="52.134000" lon="5.256253">
        <ele>11.021379</ele>
        <time>2026-08-19T14:48:49.156Z</time>
      </trkpt>
      <trkpt lat="52.133510" lon="5.256460">
        <ele>11.137496</ele>
        <time>2026-08-19T14:48:59.741Z</time>
      </trkpt>
      <trkpt lat="52.133133" lon="5.256543">
        <ele>11.068410</ele>
        <time>2026-08-19T14:49:07.468Z</time>
      </trkpt>
      <trkpt lat="52.133006" lon="5.256571">
        <ele>11.041413</ele>
        <time>2026-08-19T14:49:10.017Z</time>
      </trkpt>
      <trkpt lat="52.131221" lon="5.256734">
        <ele>10.627714</ele>
        <time>2026-08-19T14:49:44.106Z</time>
      </trkpt>
      <trkpt lat="52.131050" lon="5.256740">
        <ele>10.578258</ele>
        <time>2026-08-19T14:49:47.372Z</time>
      </trkpt>
      <trkpt lat="52.131065" lon="5.256913">
        <ele>10.547247</ele>
        <time>2026-08-19T14:49:48.839Z</time>
      </trkpt>
      <trkpt lat="52.131143" lon="5.257259">
        <ele>10.481824</ele>
        <time>2026-08-19T14:49:51.965Z</time>
      </trkpt>
      <trkpt lat="52.131283" lon="5.257921">
        <ele>10.357547</ele>
        <time>2026-08-19T14:49:57.836Z</time>
      </trkpt>
      <trkpt lat="52.131313" lon="5.258308">
        <ele>10.288312</ele>
        <time>2026-08-19T14:50:01.073Z</time>
      </trkpt>
      <trkpt lat="52.131267" lon="5.258583">
        <ele>10.236381</ele>
        <time>2026-08-19T14:50:03.476Z</time>
      </trkpt>
      <trkpt lat="52.131261" lon="5.258965">
        <ele>10.154750</ele>
        <time>2026-08-19T14:50:06.900Z</time>
      </trkpt>
      <trkpt lat="52.130748" lon="5.258905">
        <ele>9.975762</ele>
        <time>2026-08-19T14:50:14.614Z</time>
      </trkpt>
      <trkpt lat="52.130225" lon="5.258469">
        <ele>9.771306</ele>
        <time>2026-08-19T14:50:22.558Z</time>
      </trkpt>
      <trkpt lat="52.129591" lon="5.257955">
        <ele>9.462495</ele>
        <time>2026-08-19T14:50:31.655Z</time>
      </trkpt>
      <trkpt lat="52.129256" lon="5.257740">
        <ele>9.253627</ele>
        <time>2026-08-19T14:50:36.192Z</time>
      </trkpt>
      <trkpt lat="52.128813" lon="5.257510">
        <ele>8.983910</ele>
        <time>2026-08-19T14:50:42.043Z</time>
      </trkpt>
      <trkpt lat="52.127990" lon="5.257172">
        <ele>8.572456</ele>
        <time>2026-08-19T14:50:53.544Z</time>
      </trkpt>
      <trkpt lat="52.127837" lon="5.257127">
        <ele>8.569717</ele>
        <time>2026-08-19T14:50:55.760Z</time>
      </trkpt>
      <trkpt lat="52.127497" lon="5.257109">
        <ele>8.563724</ele>
        <time>2026-08-19T14:51:00.711Z</time>
      </trkpt>
      <trkpt lat="52.127495" lon="5.257316">
        <ele>8.561486</ele>
        <time>2026-08-19T14:51:02.564Z</time>
      </trkpt>
      <trkpt lat="52.127474" lon="5.259182">
        <ele>8.587369</ele>
        <time>2026-08-19T14:51:19.764Z</time>
      </trkpt>
      <trkpt lat="52.127260" lon="5.278030">
        <ele>13.230432</ele>
        <time>2026-08-19T14:54:29.973Z</time>
      </trkpt>
      <trkpt lat="52.127255" lon="5.280056">
        <ele>13.885083</ele>
        <time>2026-08-19T14:54:51.729Z</time>
      </trkpt>
      <trkpt lat="52.127239" lon="5.281922">
        <ele>14.436537</ele>
        <time>2026-08-19T14:55:10.493Z</time>
      </trkpt>
      <trkpt lat="52.127238" lon="5.282004">
        <ele>14.460773</ele>
        <time>2026-08-19T14:55:11.301Z</time>
      </trkpt>
      <trkpt lat="52.127274" lon="5.282204">
        <ele>14.522361</ele>
        <time>2026-08-19T14:55:13.354Z</time>
      </trkpt>
      <trkpt lat="52.127272" lon="5.282386">
        <ele>14.576150</ele>
        <time>2026-08-19T14:55:15.184Z</time>
      </trkpt>
      <trkpt lat="52.127229" lon="5.282384">
        <ele>14.597969</ele>
        <time>2026-08-19T14:55:15.868Z</time>
      </trkpt>
      <trkpt lat="52.126017" lon="5.282324">
        <ele>15.249163</ele>
        <time>2026-08-19T14:55:37.222Z</time>
      </trkpt>
      <trkpt lat="52.125528" lon="5.282327">
        <ele>15.511778</ele>
        <time>2026-08-19T14:55:48.176Z</time>
      </trkpt>
      <trkpt lat="52.125376" lon="5.282412">
        <ele>15.557822</ele>
        <time>2026-08-19T14:55:51.586Z</time>
      </trkpt>
      <trkpt lat="52.125250" lon="5.282490">
        <ele>15.565298</ele>
        <time>2026-08-19T14:55:54.418Z</time>
      </trkpt>
      <trkpt lat="52.125046" lon="5.282620">
        <ele>15.577447</ele>
        <time>2026-08-19T14:55:58.953Z</time>
      </trkpt>
      <trkpt lat="52.124470" lon="5.283016">
        <ele>15.612120</ele>
        <time>2026-08-19T14:56:11.251Z</time>
      </trkpt>
      <trkpt lat="52.123351" lon="5.283752">
        <ele>15.940723</ele>
        <time>2026-08-19T14:56:35.658Z</time>
      </trkpt>
      <trkpt lat="52.123261" lon="5.283812">
        <ele>16.000167</ele>
        <time>2026-08-19T14:56:37.943Z</time>
      </trkpt>
      <trkpt lat="52.122525" lon="5.284309">
        <ele>16.487185</ele>
        <time>2026-08-19T14:56:57.318Z</time>
      </trkpt>
      <trkpt lat="52.122452" lon="5.284358">
        <ele>16.535447</ele>
        <time>2026-08-19T14:56:58.777Z</time>
      </trkpt>
      <trkpt lat="52.122249" lon="5.284494">
        <ele>16.669620</ele>
        <time>2026-08-19T14:57:02.726Z</time>
      </trkpt>
      <trkpt lat="52.121916" lon="5.284715">
        <ele>16.887563</ele>
        <time>2026-08-19T14:57:08.744Z</time>
      </trkpt>
      <trkpt lat="52.121774" lon="5.284811">
        <ele>16.980270</ele>
        <time>2026-08-19T14:57:11.260Z</time>
      </trkpt>
      <trkpt lat="52.121350" lon="5.285098">
        <ele>17.257137</ele>
        <time>2026-08-19T14:57:18.743Z</time>
      </trkpt>
      <trkpt lat="52.121119" lon="5.285254">
        <ele>17.407926</ele>
        <time>2026-08-19T14:57:22.778Z</time>
      </trkpt>
      <trkpt lat="52.121016" lon="5.285323">
        <ele>17.475081</ele>
        <time>2026-08-19T14:57:25.190Z</time>
      </trkpt>
      <trkpt lat="52.121246" lon="5.286124">
        <ele>17.802462</ele>
        <time>2026-08-19T14:57:37.503Z</time>
      </trkpt>
      <trkpt lat="52.121389" lon="5.286629">
        <ele>18.094996</ele>
        <time>2026-08-19T14:57:45.978Z</time>
      </trkpt>
      <trkpt lat="52.121682" lon="5.287695">
        <ele>18.745941</ele>
        <time>2026-08-19T14:58:04.901Z</time>
      </trkpt>
      <trkpt lat="52.121983" lon="5.288828">
        <ele>19.433987</ele>
        <time>2026-08-19T14:58:21.956Z</time>
      </trkpt>
      <trkpt lat="52.122187" lon="5.289597">
        <ele>19.640779</ele>
        <time>2026-08-19T14:58:32.632Z</time>
      </trkpt>
      <trkpt lat="52.122443" lon="5.290554">
        <ele>19.871676</ele>
        <time>2026-08-19T14:58:46.048Z</time>
      </trkpt>
      <trkpt lat="52.122730" lon="5.291543">
        <ele>20.113635</ele>
        <time>2026-08-19T14:59:00.776Z</time>
      </trkpt>
      <trkpt lat="52.123240" lon="5.293500">
        <ele>21.341113</ele>
        <time>2026-08-19T14:59:31.800Z</time>
      </trkpt>
      <trkpt lat="52.123510" lon="5.294860">
        <ele>22.330094</ele>
        <time>2026-08-19T14:59:53.701Z</time>
      </trkpt>
      <trkpt lat="52.123710" lon="5.295731">
        <ele>23.113684</ele>
        <time>2026-08-19T15:00:08.944Z</time>
      </trkpt>
      <trkpt lat="52.123880" lon="5.296440">
        <ele>23.755057</ele>
        <time>2026-08-19T15:00:18.940Z</time>
      </trkpt>
      <trkpt lat="52.124385" lon="5.298319">
        <ele>24.614274</ele>
        <time>2026-08-19T15:00:43.110Z</time>
      </trkpt>
      <trkpt lat="52.125059" lon="5.300474">
        <ele>24.455656</ele>
        <time>2026-08-19T15:01:03.343Z</time>
      </trkpt>
      <trkpt lat="52.125074" lon="5.300525">
        <ele>24.424136</ele>
        <time>2026-08-19T15:01:03.785Z</time>
      </trkpt>
      <trkpt lat="52.124952" lon="5.300617">
        <ele>24.302080</ele>
        <time>2026-08-19T15:01:05.464Z</time>
      </trkpt>
      <trkpt lat="52.124861" lon="5.300836">
        <ele>24.154681</ele>
        <time>2026-08-19T15:01:07.487Z</time>
      </trkpt>
      <trkpt lat="52.123303" lon="5.301986">
        <ele>22.065081</ele>
        <time>2026-08-19T15:01:27.697Z</time>
      </trkpt>
      <trkpt lat="52.122676" lon="5.302486">
        <ele>20.963947</ele>
        <time>2026-08-19T15:01:35.423Z</time>
      </trkpt>
      <trkpt lat="52.122541" lon="5.302572">
        <ele>20.735305</ele>
        <time>2026-08-19T15:01:37.035Z</time>
      </trkpt>
      <trkpt lat="52.122028" lon="5.302897">
        <ele>20.091853</ele>
        <time>2026-08-19T15:01:43.194Z</time>
      </trkpt>
      <trkpt lat="52.121935" lon="5.302942">
        <ele>19.993814</ele>
        <time>2026-08-19T15:01:44.319Z</time>
      </trkpt>
      <trkpt lat="52.121855" lon="5.302985">
        <ele>19.908684</ele>
        <time>2026-08-19T15:01:45.302Z</time>
      </trkpt>
      <trkpt lat="52.121771" lon="5.303028">
        <ele>19.819706</ele>
        <time>2026-08-19T15:01:46.350Z</time>
      </trkpt>
      <trkpt lat="52.121090" lon="5.303332">
        <ele>19.106160</ele>
        <time>2026-08-19T15:01:55.170Z</time>
      </trkpt>
      <trkpt lat="52.120309" lon="5.303526">
        <ele>18.770079</ele>
        <time>2026-08-19T15:02:05.660Z</time>
      </trkpt>
      <trkpt lat="52.119501" lon="5.303736">
        <ele>18.984150</ele>
        <time>2026-08-19T15:02:18.937Z</time>
      </trkpt>
      <trkpt lat="52.119389" lon="5.303766">
        <ele>19.013846</ele>
        <time>2026-08-19T15:02:20.886Z</time>
      </trkpt>
      <trkpt lat="52.119292" lon="5.303790">
        <ele>19.039515</ele>
        <time>2026-08-19T15:02:22.632Z</time>
      </trkpt>
      <trkpt lat="52.119180" lon="5.303818">
        <ele>19.069161</ele>
        <time>2026-08-19T15:02:24.571Z</time>
      </trkpt>
      <trkpt lat="52.119195" lon="5.304006">
        <ele>19.099616</ele>
        <time>2026-08-19T15:02:26.625Z</time>
      </trkpt>
      <trkpt lat="52.119209" lon="5.304148">
        <ele>19.122720</ele>
        <time>2026-08-19T15:02:28.282Z</time>
      </trkpt>
      <trkpt lat="52.119229" lon="5.304365">
        <ele>19.173640</ele>
        <time>2026-08-19T15:02:30.730Z</time>
      </trkpt>
      <trkpt lat="52.119235" lon="5.304383">
        <ele>19.181094</ele>
        <time>2026-08-19T15:02:30.976Z</time>
      </trkpt>
      <trkpt lat="52.119442" lon="5.304793">
        <ele>19.374270</ele>
        <time>2026-08-19T15:02:36.972Z</time>
      </trkpt>
      <trkpt lat="52.119482" lon="5.305094">
        <ele>19.486349</ele>
        <time>2026-08-19T15:02:40.383Z</time>
      </trkpt>
      <trkpt lat="52.119558" lon="5.305346">
        <ele>19.588524</ele>
        <time>2026-08-19T15:02:43.599Z</time>
      </trkpt>
      <trkpt lat="52.119826" lon="5.305744">
        <ele>19.803492</ele>
        <time>2026-08-19T15:02:50.154Z</time>
      </trkpt>
      <trkpt lat="52.119965" lon="5.305942">
        <ele>19.912944</ele>
        <time>2026-08-19T15:02:53.108Z</time>
      </trkpt>
      <trkpt lat="52.120215" lon="5.306293">
        <ele>20.108578</ele>
        <time>2026-08-19T15:02:58.282Z</time>
      </trkpt>
      <trkpt lat="52.120549" lon="5.306768">
        <ele>20.284294</ele>
        <time>2026-08-19T15:03:05.177Z</time>
      </trkpt>
      <trkpt lat="52.120776" lon="5.307071">
        <ele>20.363404</ele>
        <time>2026-08-19T15:03:09.593Z</time>
      </trkpt>
      <trkpt lat="52.121617" lon="5.308249">
        <ele>20.662390</ele>
        <time>2026-08-19T15:03:26.881Z</time>
      </trkpt>
      <trkpt lat="52.122002" lon="5.308737">
        <ele>21.136688</ele>
        <time>2026-08-19T15:03:35.442Z</time>
      </trkpt>
      <trkpt lat="52.122387" lon="5.309024">
        <ele>21.652360</ele>
        <time>2026-08-19T15:03:43.682Z</time>
      </trkpt>
      <trkpt lat="52.122652" lon="5.309129">
        <ele>21.984518</ele>
        <time>2026-08-19T15:03:49.260Z</time>
      </trkpt>
      <trkpt lat="52.123357" lon="5.309278">
        <ele>22.850338</ele>
        <time>2026-08-19T15:04:04.632Z</time>
      </trkpt>
      <trkpt lat="52.124337" lon="5.309493">
        <ele>23.931940</ele>
        <time>2026-08-19T15:04:24.976Z</time>
      </trkpt>
      <trkpt lat="52.124516" lon="5.309585">
        <ele>24.136515</ele>
        <time>2026-08-19T15:04:28.419Z</time>
      </trkpt>
      <trkpt lat="52.124716" lon="5.309800">
        <ele>24.397689</ele>
        <time>2026-08-19T15:04:32.682Z</time>
      </trkpt>
      <trkpt lat="52.124848" lon="5.310037">
        <ele>24.611808</ele>
        <time>2026-08-19T15:04:36.083Z</time>
      </trkpt>
      <trkpt lat="52.124974" lon="5.310415">
        <ele>24.857253</ele>
        <time>2026-08-19T15:04:40.517Z</time>
      </trkpt>
      <trkpt lat="52.125290" lon="5.311882">
        <ele>25.054052</ele>
        <time>2026-08-19T15:04:56.035Z</time>
      </trkpt>
      <trkpt lat="52.125327" lon="5.312053">
        <ele>25.077004</ele>
        <time>2026-08-19T15:04:57.846Z</time>
      </trkpt>
      <trkpt lat="52.125751" lon="5.313955">
        <ele>24.930618</ele>
        <time>2026-08-19T15:05:15.841Z</time>
      </trkpt>
      <trkpt lat="52.125871" lon="5.314510">
        <ele>24.744217</ele>
        <time>2026-08-19T15:05:20.381Z</time>
      </trkpt>
      <trkpt lat="52.125957" lon="5.315284">
        <ele>24.495042</ele>
        <time>2026-08-19T15:05:26.421Z</time>
      </trkpt>
      <trkpt lat="52.125985" lon="5.315909">
        <ele>24.296526</ele>
        <time>2026-08-19T15:05:31.214Z</time>
      </trkpt>
      <trkpt lat="52.126065" lon="5.317701">
        <ele>24.091813</ele>
        <time>2026-08-19T15:05:46.477Z</time>
      </trkpt>
      <trkpt lat="52.126070" lon="5.318004">
        <ele>24.057977</ele>
        <time>2026-08-19T15:05:49.367Z</time>
      </trkpt>
      <trkpt lat="52.126108" lon="5.318396">
        <ele>24.013675</ele>
        <time>2026-08-19T15:05:53.145Z</time>
      </trkpt>
      <trkpt lat="52.126219" lon="5.318924">
        <ele>23.986422</ele>
        <time>2026-08-19T15:05:58.453Z</time>
      </trkpt>
      <trkpt lat="52.126305" lon="5.319195">
        <ele>24.054321</ele>
        <time>2026-08-19T15:06:01.355Z</time>
      </trkpt>
      <trkpt lat="52.126446" lon="5.319520">
        <ele>24.142895</ele>
        <time>2026-08-19T15:06:05.141Z</time>
      </trkpt>
      <trkpt lat="52.127390" lon="5.321224">
        <ele>24.677071</ele>
        <time>2026-08-19T15:06:28.398Z</time>
      </trkpt>
      <trkpt lat="52.127624" lon="5.321690">
        <ele>24.892105</ele>
        <time>2026-08-19T15:06:35.096Z</time>
      </trkpt>
      <trkpt lat="52.128181" lon="5.323675">
        <ele>25.655918</ele>
        <time>2026-08-19T15:06:58.467Z</time>
      </trkpt>
      <trkpt lat="52.128280" lon="5.324029">
        <ele>25.576629</ele>
        <time>2026-08-19T15:07:02.203Z</time>
      </trkpt>
      <trkpt lat="52.128458" lon="5.324849">
        <ele>25.399351</ele>
        <time>2026-08-19T15:07:09.845Z</time>
      </trkpt>
      <trkpt lat="52.128556" lon="5.325742">
        <ele>25.214449</ele>
        <time>2026-08-19T15:07:16.787Z</time>
      </trkpt>
      <trkpt lat="52.128549" lon="5.326143">
        <ele>25.132683</ele>
        <time>2026-08-19T15:07:19.828Z</time>
      </trkpt>
      <trkpt lat="52.128530" lon="5.327507">
        <ele>25.007350</ele>
        <time>2026-08-19T15:07:30.931Z</time>
      </trkpt>
      <trkpt lat="52.128487" lon="5.330222">
        <ele>24.929970</ele>
        <time>2026-08-19T15:07:57.041Z</time>
      </trkpt>
      <trkpt lat="52.128470" lon="5.331218">
        <ele>24.964188</ele>
        <time>2026-08-19T15:08:06.068Z</time>
      </trkpt>
      <trkpt lat="52.128428" lon="5.331706">
        <ele>24.981111</ele>
        <time>2026-08-19T15:08:10.379Z</time>
      </trkpt>
      <trkpt lat="52.128335" lon="5.332279">
        <ele>25.001465</ele>
        <time>2026-08-19T15:08:15.523Z</time>
      </trkpt>
      <trkpt lat="52.128208" lon="5.332778">
        <ele>25.212458</ele>
        <time>2026-08-19T15:08:20.577Z</time>
      </trkpt>
      <trkpt lat="52.128129" lon="5.333028">
        <ele>25.328688</ele>
        <time>2026-08-19T15:08:23.416Z</time>
      </trkpt>
      <trkpt lat="52.127398" lon="5.334843">
        <ele>26.248498</ele>
        <time>2026-08-19T15:08:47.323Z</time>
      </trkpt>
      <trkpt lat="52.126811" lon="5.336267">
        <ele>28.252502</ele>
        <time>2026-08-19T15:09:10.570Z</time>
      </trkpt>
      <trkpt lat="52.126705" lon="5.336525">
        <ele>28.615215</ele>
        <time>2026-08-19T15:09:15.288Z</time>
      </trkpt>
      <trkpt lat="52.126388" lon="5.337401">
        <ele>29.690707</ele>
        <time>2026-08-19T15:09:30.669Z</time>
      </trkpt>
      <trkpt lat="52.126246" lon="5.338001">
        <ele>29.934068</ele>
        <time>2026-08-19T15:09:40.246Z</time>
      </trkpt>
      <trkpt lat="52.126071" lon="5.338790">
        <ele>30.251560</ele>
        <time>2026-08-19T15:09:50.193Z</time>
      </trkpt>
      <trkpt lat="52.125922" lon="5.339462">
        <ele>30.521962</ele>
        <time>2026-08-19T15:09:56.324Z</time>
      </trkpt>
      <trkpt lat="52.125625" lon="5.340819">
        <ele>30.017356</ele>
        <time>2026-08-19T15:10:06.785Z</time>
      </trkpt>
      <trkpt lat="52.125569" lon="5.341071">
        <ele>29.787722</ele>
        <time>2026-08-19T15:10:08.633Z</time>
      </trkpt>
      <trkpt lat="52.124890" lon="5.344143">
        <ele>27.501294</ele>
        <time>2026-08-19T15:10:31.688Z</time>
      </trkpt>
      <trkpt lat="52.124709" lon="5.344970">
        <ele>27.057852</ele>
        <time>2026-08-19T15:10:39.384Z</time>
      </trkpt>
      <trkpt lat="52.124337" lon="5.346657">
        <ele>25.648468</ele>
        <time>2026-08-19T15:10:55.076Z</time>
      </trkpt>
      <trkpt lat="52.123656" lon="5.349724">
        <ele>21.494989</ele>
        <time>2026-08-19T15:11:16.303Z</time>
      </trkpt>
      <trkpt lat="52.123037" lon="5.352526">
        <ele>16.809354</ele>
        <time>2026-08-19T15:11:35.073Z</time>
      </trkpt>
      <trkpt lat="52.122993" lon="5.352734">
        <ele>16.481622</ele>
        <time>2026-08-19T15:11:36.541Z</time>
      </trkpt>
      <trkpt lat="52.122749" lon="5.353828">
        <ele>14.761983</ele>
        <time>2026-08-19T15:11:44.514Z</time>
      </trkpt>
      <trkpt lat="52.121696" lon="5.358597">
        <ele>10.006426</ele>
        <time>2026-08-19T15:12:20.059Z</time>
      </trkpt>
      <trkpt lat="52.121662" lon="5.358755">
        <ele>9.860499</ele>
        <time>2026-08-19T15:12:21.263Z</time>
      </trkpt>
      <trkpt lat="52.121583" lon="5.358860">
        <ele>9.715750</ele>
        <time>2026-08-19T15:12:22.464Z</time>
      </trkpt>
      <trkpt lat="52.121376" lon="5.359796">
        <ele>9.234059</ele>
        <time>2026-08-19T15:12:29.815Z</time>
      </trkpt>
      <trkpt lat="52.121266" lon="5.360288">
        <ele>9.134312</ele>
        <time>2026-08-19T15:12:33.906Z</time>
      </trkpt>
      <trkpt lat="52.121319" lon="5.360317">
        <ele>9.116965</ele>
        <time>2026-08-19T15:12:34.668Z</time>
      </trkpt>
      <trkpt lat="52.121461" lon="5.360402">
        <ele>9.070026</ele>
        <time>2026-08-19T15:12:36.712Z</time>
      </trkpt>
      <trkpt lat="52.121289" lon="5.361181">
        <ele>8.912322</ele>
        <time>2026-08-19T15:12:44.322Z</time>
      </trkpt>
      <trkpt lat="52.121096" lon="5.362083">
        <ele>8.846382</ele>
        <time>2026-08-19T15:12:53.850Z</time>
      </trkpt>
      <trkpt lat="52.121108" lon="5.362477">
        <ele>8.934363</ele>
        <time>2026-08-19T15:12:57.888Z</time>
      </trkpt>
      <trkpt lat="52.121072" lon="5.362736">
        <ele>8.993588</ele>
        <time>2026-08-19T15:13:00.658Z</time>
      </trkpt>
      <trkpt lat="52.121052" lon="5.362869">
        <ele>9.024127</ele>
        <time>2026-08-19T15:13:02.091Z</time>
      </trkpt>
      <trkpt lat="52.121029" lon="5.363027">
        <ele>9.060342</ele>
        <time>2026-08-19T15:13:03.849Z</time>
      </trkpt>
      <trkpt lat="52.120757" lon="5.362927">
        <ele>9.161629</ele>
        <time>2026-08-19T15:13:08.659Z</time>
      </trkpt>
      <trkpt lat="52.120456" lon="5.362845">
        <ele>9.272483</ele>
        <time>2026-08-19T15:13:13.775Z</time>
      </trkpt>
      <trkpt lat="52.118685" lon="5.362756">
        <ele>9.415176</ele>
        <time>2026-08-19T15:13:40.751Z</time>
      </trkpt>
      <trkpt lat="52.117533" lon="5.362683">
        <ele>9.165605</ele>
        <time>2026-08-19T15:13:56.477Z</time>
      </trkpt>
      <trkpt lat="52.117049" lon="5.362555">
        <ele>8.989536</ele>
        <time>2026-08-19T15:14:02.983Z</time>
      </trkpt>
      <trkpt lat="52.116353" lon="5.362357">
        <ele>8.764677</ele>
        <time>2026-08-19T15:14:12.529Z</time>
      </trkpt>
      <trkpt lat="52.115386" lon="5.361957">
        <ele>8.811700</ele>
        <time>2026-08-19T15:14:26.920Z</time>
      </trkpt>
      <trkpt lat="52.113929" lon="5.361313">
        <ele>9.202926</ele>
        <time>2026-08-19T15:14:51.538Z</time>
      </trkpt>
      <trkpt lat="52.112728" lon="5.360774">
        <ele>9.743515</ele>
        <time>2026-08-19T15:15:12.807Z</time>
      </trkpt>
      <trkpt lat="52.112546" lon="5.360702">
        <ele>9.804896</ele>
        <time>2026-08-19T15:15:15.988Z</time>
      </trkpt>
      <trkpt lat="52.111989" lon="5.360622">
        <ele>9.988146</ele>
        <time>2026-08-19T15:15:25.279Z</time>
      </trkpt>
      <trkpt lat="52.111586" lon="5.360452">
        <ele>10.124578</ele>
        <time>2026-08-19T15:15:31.804Z</time>
      </trkpt>
      <trkpt lat="52.111368" lon="5.360402">
        <ele>10.196727</ele>
        <time>2026-08-19T15:15:35.144Z</time>
      </trkpt>
      <trkpt lat="52.110909" lon="5.360428">
        <ele>10.242755</ele>
        <time>2026-08-19T15:15:41.883Z</time>
      </trkpt>
      <trkpt lat="52.110529" lon="5.360511">
        <ele>10.220285</ele>
        <time>2026-08-19T15:15:47.358Z</time>
      </trkpt>
      <trkpt lat="52.110508" lon="5.360517">
        <ele>10.219036</ele>
        <time>2026-08-19T15:15:47.657Z</time>
      </trkpt>
      <trkpt lat="52.108148" lon="5.361230">
        <ele>10.116604</ele>
        <time>2026-08-19T15:16:22.734Z</time>
      </trkpt>
      <trkpt lat="52.107181" lon="5.361522">
        <ele>10.068314</ele>
        <time>2026-08-19T15:16:37.497Z</time>
      </trkpt>
      <trkpt lat="52.106730" lon="5.361604">
        <ele>10.035546</ele>
        <time>2026-08-19T15:16:44.053Z</time>
      </trkpt>
      <trkpt lat="52.106247" lon="5.361744">
        <ele>10.000121</ele>
        <time>2026-08-19T15:16:51.168Z</time>
      </trkpt>
      <trkpt lat="52.105491" lon="5.362071">
        <ele>9.987167</ele>
        <time>2026-08-19T15:17:02.423Z</time>
      </trkpt>
      <trkpt lat="52.102580" lon="5.362940">
        <ele>10.078072</ele>
        <time>2026-08-19T15:17:47.473Z</time>
      </trkpt>
      <trkpt lat="52.097677" lon="5.362487">
        <ele>9.128771</ele>
        <time>2026-08-19T15:18:55.357Z</time>
      </trkpt>
      <trkpt lat="52.095744" lon="5.362232">
        <ele>9.813768</ele>
        <time>2026-08-19T15:19:27.730Z</time>
      </trkpt>
      <trkpt lat="52.094949" lon="5.362217">
        <ele>10.264346</ele>
        <time>2026-08-19T15:19:41.765Z</time>
      </trkpt>
      <trkpt lat="52.093433" lon="5.362345">
        <ele>11.182796</ele>
        <time>2026-08-19T15:20:08.332Z</time>
      </trkpt>
      <trkpt lat="52.093008" lon="5.362324">
        <ele>11.212976</ele>
        <time>2026-08-19T15:20:15.238Z</time>
      </trkpt>
      <trkpt lat="52.092241" lon="5.362207">
        <ele>11.175229</ele>
        <time>2026-08-19T15:20:26.819Z</time>
      </trkpt>
      <trkpt lat="52.092100" lon="5.362163">
        <ele>11.168194</ele>
        <time>2026-08-19T15:20:28.812Z</time>
      </trkpt>
      <trkpt lat="52.091825" lon="5.362069">
        <ele>11.154425</ele>
        <time>2026-08-19T15:20:32.604Z</time>
      </trkpt>
      <trkpt lat="52.090720" lon="5.361877">
        <ele>10.721905</ele>
        <time>2026-08-19T15:20:47.161Z</time>
      </trkpt>
      <trkpt lat="52.088798" lon="5.361795">
        <ele>10.111756</ele>
        <time>2026-08-19T15:21:12.700Z</time>
      </trkpt>
      <trkpt lat="52.088056" lon="5.361789">
        <ele>10.000762</ele>
        <time>2026-08-19T15:21:24.044Z</time>
      </trkpt>
      <trkpt lat="52.087602" lon="5.361667">
        <ele>10.295841</ele>
        <time>2026-08-19T15:21:31.968Z</time>
      </trkpt>
      <trkpt lat="52.087057" lon="5.361328">
        <ele>10.763965</ele>
        <time>2026-08-19T15:21:42.694Z</time>
      </trkpt>
      <trkpt lat="52.086685" lon="5.361146">
        <ele>11.075630</ele>
        <time>2026-08-19T15:21:50.130Z</time>
      </trkpt>
      <trkpt lat="52.085744" lon="5.360759">
        <ele>11.734266</ele>
        <time>2026-08-19T15:22:07.979Z</time>
      </trkpt>
      <trkpt lat="52.085267" lon="5.360608">
        <ele>12.013230</ele>
        <time>2026-08-19T15:22:16.185Z</time>
      </trkpt>
      <trkpt lat="52.084654" lon="5.360447">
        <ele>12.369688</ele>
        <time>2026-08-19T15:22:26.289Z</time>
      </trkpt>
      <trkpt lat="52.084043" lon="5.360413">
        <ele>12.913579</ele>
        <time>2026-08-19T15:22:36.034Z</time>
      </trkpt>
      <trkpt lat="52.083902" lon="5.360394">
        <ele>13.056041</ele>
        <time>2026-08-19T15:22:38.448Z</time>
      </trkpt>
      <trkpt lat="52.083820" lon="5.360382">
        <ele>13.138942</ele>
        <time>2026-08-19T15:22:39.894Z</time>
      </trkpt>
      <trkpt lat="52.083730" lon="5.360368">
        <ele>13.229979</ele>
        <time>2026-08-19T15:22:41.507Z</time>
      </trkpt>
      <trkpt lat="52.083744" lon="5.360163">
        <ele>13.357606</ele>
        <time>2026-08-19T15:22:43.817Z</time>
      </trkpt>
      <trkpt lat="52.083755" lon="5.359973">
        <ele>13.475692</ele>
        <time>2026-08-19T15:22:46.002Z</time>
      </trkpt>
      <trkpt lat="52.083789" lon="5.359667">
        <ele>13.668104</ele>
        <time>2026-08-19T15:22:49.660Z</time>
      </trkpt>
      <trkpt lat="52.083900" lon="5.358842">
        <ele>14.190676</ele>
        <time>2026-08-19T15:23:00.168Z</time>
      </trkpt>
      <trkpt lat="52.084207" lon="5.353255">
        <ele>22.616820</ele>
        <time>2026-08-19T15:24:22.809Z</time>
      </trkpt>
      <trkpt lat="52.084393" lon="5.347904">
        <ele>37.478492</ele>
        <time>2026-08-19T15:26:16.654Z</time>
      </trkpt>
      <trkpt lat="52.084429" lon="5.346735">
        <ele>40.156312</ele>
        <time>2026-08-19T15:26:38.660Z</time>
      </trkpt>
      <trkpt lat="52.084475" lon="5.346038">
        <ele>40.754500</ele>
        <time>2026-08-19T15:26:50.008Z</time>
      </trkpt>
      <trkpt lat="52.084564" lon="5.345313">
        <ele>41.385383</ele>
        <time>2026-08-19T15:26:59.998Z</time>
      </trkpt>
      <trkpt lat="52.084688" lon="5.344691">
        <ele>41.943382</ele>
        <time>2026-08-19T15:27:06.914Z</time>
      </trkpt>
      <trkpt lat="52.085009" lon="5.343592">
        <ele>41.313459</ele>
        <time>2026-08-19T15:27:15.721Z</time>
      </trkpt>
      <trkpt lat="52.085567" lon="5.342121">
        <ele>38.533289</ele>
        <time>2026-08-19T15:27:26.443Z</time>
      </trkpt>
      <trkpt lat="52.085946" lon="5.340982">
        <ele>36.399098</ele>
        <time>2026-08-19T15:27:34.493Z</time>
      </trkpt>
      <trkpt lat="52.086557" lon="5.339147">
        <ele>32.904947</ele>
        <time>2026-08-19T15:27:48.048Z</time>
      </trkpt>
      <trkpt lat="52.086700" lon="5.338608">
        <ele>32.222866</ele>
        <time>2026-08-19T15:27:51.847Z</time>
      </trkpt>
      <trkpt lat="52.086774" lon="5.338182">
        <ele>31.736968</ele>
        <time>2026-08-19T15:27:54.730Z</time>
      </trkpt>
      <trkpt lat="52.086833" lon="5.337877">
        <ele>31.386008</ele>
        <time>2026-08-19T15:27:56.831Z</time>
      </trkpt>
      <trkpt lat="52.086950" lon="5.336951">
        <ele>30.348380</ele>
        <time>2026-08-19T15:28:03.271Z</time>
      </trkpt>
      <trkpt lat="52.087015" lon="5.336238">
        <ele>29.578976</ele>
        <time>2026-08-19T15:28:08.707Z</time>
      </trkpt>
      <trkpt lat="52.087120" lon="5.333329">
        <ele>29.107131</ele>
        <time>2026-08-19T15:28:35.741Z</time>
      </trkpt>
      <trkpt lat="52.087167" lon="5.331351">
        <ele>27.792791</ele>
        <time>2026-08-19T15:28:50.056Z</time>
      </trkpt>
      <trkpt lat="52.087098" lon="5.331003">
        <ele>27.549993</ele>
        <time>2026-08-19T15:28:52.633Z</time>
      </trkpt>
      <trkpt lat="52.087090" lon="5.330816">
        <ele>27.425528</ele>
        <time>2026-08-19T15:28:53.968Z</time>
      </trkpt>
      <trkpt lat="52.087109" lon="5.330516">
        <ele>27.225277</ele>
        <time>2026-08-19T15:28:56.153Z</time>
      </trkpt>
      <trkpt lat="52.087136" lon="5.330438">
        <ele>27.167118</ele>
        <time>2026-08-19T15:28:56.810Z</time>
      </trkpt>
      <trkpt lat="52.087145" lon="5.330286">
        <ele>27.095601</ele>
        <time>2026-08-19T15:28:57.930Z</time>
      </trkpt>
      <trkpt lat="52.087279" lon="5.326513">
        <ele>25.358332</ele>
        <time>2026-08-19T15:29:27.782Z</time>
      </trkpt>
      <trkpt lat="52.087383" lon="5.322803">
        <ele>23.435474</ele>
        <time>2026-08-19T15:29:56.888Z</time>
      </trkpt>
      <trkpt lat="52.087482" lon="5.318363">
        <ele>20.276373</ele>
        <time>2026-08-19T15:30:28.784Z</time>
      </trkpt>
      <trkpt lat="52.087761" lon="5.307437">
        <ele>16.342649</ele>
        <time>2026-08-19T15:31:57.093Z</time>
      </trkpt>
      <trkpt lat="52.087831" lon="5.304687">
        <ele>15.705590</ele>
        <time>2026-08-19T15:32:19.892Z</time>
      </trkpt>
      <trkpt lat="52.087902" lon="5.303277">
        <ele>15.444836</ele>
        <time>2026-08-19T15:32:32.177Z</time>
      </trkpt>
      <trkpt lat="52.087927" lon="5.302292">
        <ele>15.284172</ele>
        <time>2026-08-19T15:32:40.766Z</time>
      </trkpt>
      <trkpt lat="52.087913" lon="5.301963">
        <ele>15.230426</ele>
        <time>2026-08-19T15:32:43.576Z</time>
      </trkpt>
      <trkpt lat="52.087917" lon="5.301854">
        <ele>15.212631</ele>
        <time>2026-08-19T15:32:44.495Z</time>
      </trkpt>
      <trkpt lat="52.087923" lon="5.301717">
        <ele>15.190247</ele>
        <time>2026-08-19T15:32:45.648Z</time>
      </trkpt>
      <trkpt lat="52.087937" lon="5.301500">
        <ele>15.154688</ele>
        <time>2026-08-19T15:32:47.461Z</time>
      </trkpt>
      <trkpt lat="52.088016" lon="5.298344">
        <ele>14.410730</ele>
        <time>2026-08-19T15:33:13.372Z</time>
      </trkpt>
      <trkpt lat="52.088084" lon="5.294506">
        <ele>14.075904</ele>
        <time>2026-08-19T15:33:48.286Z</time>
      </trkpt>
      <trkpt lat="52.088049" lon="5.294323">
        <ele>14.032196</ele>
        <time>2026-08-19T15:33:49.799Z</time>
      </trkpt>
      <trkpt lat="52.087966" lon="5.294085">
        <ele>13.969788</ele>
        <time>2026-08-19T15:33:51.938Z</time>
      </trkpt>
      <trkpt lat="52.087959" lon="5.293954">
        <ele>13.939801</ele>
        <time>2026-08-19T15:33:52.955Z</time>
      </trkpt>
      <trkpt lat="52.087952" lon="5.293750">
        <ele>13.893207</ele>
        <time>2026-08-19T15:33:54.544Z</time>
      </trkpt>
      <trkpt lat="52.087959" lon="5.293679">
        <ele>13.876808</ele>
        <time>2026-08-19T15:33:55.112Z</time>
      </trkpt>
      <trkpt lat="52.088084" lon="5.293456">
        <ele>13.807972</ele>
        <time>2026-08-19T15:33:57.479Z</time>
      </trkpt>
      <trkpt lat="52.088149" lon="5.293303">
        <ele>13.765553</ele>
        <time>2026-08-19T15:33:58.951Z</time>
      </trkpt>
      <trkpt lat="52.088210" lon="5.292918">
        <ele>13.674882</ele>
        <time>2026-08-19T15:34:02.155Z</time>
      </trkpt>
      <trkpt lat="52.088250" lon="5.292514">
        <ele>13.606368</ele>
        <time>2026-08-19T15:34:05.624Z</time>
      </trkpt>
      <trkpt lat="52.088309" lon="5.292201">
        <ele>13.621613</ele>
        <time>2026-08-19T15:34:08.421Z</time>
      </trkpt>
      <trkpt lat="52.088486" lon="5.291478">
        <ele>13.657852</ele>
        <time>2026-08-19T15:34:15.786Z</time>
      </trkpt>
      <trkpt lat="52.088610" lon="5.290774">
        <ele>13.691953</ele>
        <time>2026-08-19T15:34:23.394Z</time>
      </trkpt>
      <trkpt lat="52.088731" lon="5.290290">
        <ele>13.716284</ele>
        <time>2026-08-19T15:34:28.529Z</time>
      </trkpt>
      <trkpt lat="52.088823" lon="5.289997">
        <ele>13.731605</ele>
        <time>2026-08-19T15:34:31.631Z</time>
      </trkpt>
      <trkpt lat="52.089072" lon="5.289393">
        <ele>13.562859</ele>
        <time>2026-08-19T15:34:38.043Z</time>
      </trkpt>
      <trkpt lat="52.089242" lon="5.288843">
        <ele>13.376454</ele>
        <time>2026-08-19T15:34:42.967Z</time>
      </trkpt>
      <trkpt lat="52.090004" lon="5.286394">
        <ele>12.739446</ele>
        <time>2026-08-19T15:35:04.461Z</time>
      </trkpt>
      <trkpt lat="52.090169" lon="5.285882">
        <ele>12.675142</ele>
        <time>2026-08-19T15:35:09.606Z</time>
      </trkpt>
      <trkpt lat="52.090228" lon="5.285690">
        <ele>12.651265</ele>
        <time>2026-08-19T15:35:12.346Z</time>
      </trkpt>
      <trkpt lat="52.090229" lon="5.285469">
        <ele>12.626684</ele>
        <time>2026-08-19T15:35:15.198Z</time>
      </trkpt>
      <trkpt lat="52.090300" lon="5.285385">
        <ele>12.610795</ele>
        <time>2026-08-19T15:35:17.037Z</time>
      </trkpt>
      <trkpt lat="52.090381" lon="5.285176">
        <ele>12.583311</ele>
        <time>2026-08-19T15:35:20.241Z</time>
      </trkpt>
      <trkpt lat="52.090548" lon="5.284973">
        <ele>12.545580</ele>
        <time>2026-08-19T15:35:24.652Z</time>
      </trkpt>
      <trkpt lat="52.090553" lon="5.284961">
        <ele>12.543967</ele>
        <time>2026-08-19T15:35:24.833Z</time>
      </trkpt>
      <trkpt lat="52.090833" lon="5.284417">
        <ele>12.507056</ele>
        <time>2026-08-19T15:35:34.166Z</time>
      </trkpt>
      <trkpt lat="52.090942" lon="5.284189">
        <ele>12.496865</ele>
        <time>2026-08-19T15:35:37.087Z</time>
      </trkpt>
      <trkpt lat="52.091464" lon="5.283271">
        <ele>12.452740</ele>
        <time>2026-08-19T15:35:49.225Z</time>
      </trkpt>
      <trkpt lat="52.091497" lon="5.283147">
        <ele>12.447973</ele>
        <time>2026-08-19T15:35:50.374Z</time>
      </trkpt>
      <trkpt lat="52.091553" lon="5.283048">
        <ele>12.443226</ele>
        <time>2026-08-19T15:35:51.508Z</time>
      </trkpt>
      <trkpt lat="52.091722" lon="5.282814">
        <ele>12.430487</ele>
        <time>2026-08-19T15:35:54.395Z</time>
      </trkpt>
      <trkpt lat="52.091908" lon="5.282376">
        <ele>12.172276</ele>
        <time>2026-08-19T15:35:58.477Z</time>
      </trkpt>
      <trkpt lat="52.092049" lon="5.281815">
        <ele>11.709537</ele>
        <time>2026-08-19T15:36:02.912Z</time>
      </trkpt>
      <trkpt lat="52.092069" lon="5.281347">
        <ele>11.351386</ele>
        <time>2026-08-19T15:36:06.217Z</time>
      </trkpt>
      <trkpt lat="52.091997" lon="5.280743">
        <ele>10.881671</ele>
        <time>2026-08-19T15:36:10.463Z</time>
      </trkpt>
      <trkpt lat="52.091575" lon="5.279284">
        <ele>10.021749</ele>
        <time>2026-08-19T15:36:22.143Z</time>
      </trkpt>
      <trkpt lat="52.091342" lon="5.278371">
        <ele>9.787944</ele>
        <time>2026-08-19T15:36:30.367Z</time>
      </trkpt>
      <trkpt lat="52.090898" lon="5.276803">
        <ele>9.547421</ele>
        <time>2026-08-19T15:36:47.043Z</time>
      </trkpt>
      <trkpt lat="52.090818" lon="5.276536">
        <ele>9.578455</ele>
        <time>2026-08-19T15:36:49.855Z</time>
      </trkpt>
      <trkpt lat="52.090784" lon="5.276434">
        <ele>9.590578</ele>
        <time>2026-08-19T15:36:50.927Z</time>
      </trkpt>
      <trkpt lat="52.090002" lon="5.273668">
        <ele>9.940766</ele>
        <time>2026-08-19T15:37:19.744Z</time>
      </trkpt>
      <trkpt lat="52.089422" lon="5.271610">
        <ele>10.168108</ele>
        <time>2026-08-19T15:37:42.079Z</time>
      </trkpt>
      <trkpt lat="52.089167" lon="5.270661">
        <ele>10.077490</ele>
        <time>2026-08-19T15:37:51.603Z</time>
      </trkpt>
      <trkpt lat="52.088690" lon="5.268893">
        <ele>9.804232</ele>
        <time>2026-08-19T15:38:07.669Z</time>
      </trkpt>
      <trkpt lat="52.088365" lon="5.267792">
        <ele>9.377808</ele>
        <time>2026-08-19T15:38:17.458Z</time>
      </trkpt>
      <trkpt lat="52.088168" lon="5.267028">
        <ele>9.088552</ele>
        <time>2026-08-19T15:38:23.979Z</time>
      </trkpt>
      <trkpt lat="52.087678" lon="5.265316">
        <ele>8.475644</ele>
        <time>2026-08-19T15:38:39.188Z</time>
      </trkpt>
      <trkpt lat="52.087561" lon="5.264905">
        <ele>8.332422</ele>
        <time>2026-08-19T15:38:42.854Z</time>
      </trkpt>
      <trkpt lat="52.087445" lon="5.264525">
        <ele>8.198261</ele>
        <time>2026-08-19T15:38:46.283Z</time>
      </trkpt>
      <trkpt lat="52.087381" lon="5.264403">
        <ele>8.147540</ele>
        <time>2026-08-19T15:38:47.584Z</time>
      </trkpt>
      <trkpt lat="52.087330" lon="5.264385">
        <ele>8.120686</ele>
        <time>2026-08-19T15:38:48.277Z</time>
      </trkpt>
      <trkpt lat="52.087274" lon="5.264191">
        <ele>8.052914</ele>
        <time>2026-08-19T15:38:50.037Z</time>
      </trkpt>
      <trkpt lat="52.087222" lon="5.263996">
        <ele>7.993313</ele>
        <time>2026-08-19T15:38:52.504Z</time>
      </trkpt>
      <trkpt lat="52.087255" lon="5.263809">
        <ele>7.977442</ele>
        <time>2026-08-19T15:38:54.773Z</time>
      </trkpt>
      <trkpt lat="52.087047" lon="5.263078">
        <ele>7.911730</ele>
        <time>2026-08-19T15:39:04.334Z</time>
      </trkpt>
      <trkpt lat="52.086889" lon="5.262607">
        <ele>7.867957</ele>
        <time>2026-08-19T15:39:10.777Z</time>
      </trkpt>
      <trkpt lat="52.086327" lon="5.260479">
        <ele>7.771200</ele>
        <time>2026-08-19T15:39:39.929Z</time>
      </trkpt>
      <trkpt lat="52.085338" lon="5.256903">
        <ele>7.745357</ele>
        <time>2026-08-19T15:40:28.606Z</time>
      </trkpt>
      <trkpt lat="52.085060" lon="5.255933">
        <ele>7.728112</ele>
        <time>2026-08-19T15:40:41.205Z</time>
      </trkpt>
      <trkpt lat="52.084215" lon="5.252910">
        <ele>8.085276</ele>
        <time>2026-08-19T15:41:24.293Z</time>
      </trkpt>
      <trkpt lat="52.084156" lon="5.252893">
        <ele>8.097452</ele>
        <time>2026-08-19T15:41:25.267Z</time>
      </trkpt>
      <trkpt lat="52.084064" lon="5.252801">
        <ele>8.119396</ele>
        <time>2026-08-19T15:41:27.047Z</time>
      </trkpt>
      <trkpt lat="52.084021" lon="5.252694">
        <ele>8.135361</ele>
        <time>2026-08-19T15:41:28.321Z</time>
      </trkpt>
      <trkpt lat="52.084006" lon="5.252515">
        <ele>8.157921</ele>
        <time>2026-08-19T15:41:30.118Z</time>
      </trkpt>
      <trkpt lat="52.084055" lon="5.252326">
        <ele>8.183537</ele>
        <time>2026-08-19T15:41:32.156Z</time>
      </trkpt>
      <trkpt lat="52.084038" lon="5.252269">
        <ele>8.191449</ele>
        <time>2026-08-19T15:41:32.778Z</time>
      </trkpt>
      <trkpt lat="52.083634" lon="5.250825">
        <ele>8.389580</ele>
        <time>2026-08-19T15:41:48.066Z</time>
      </trkpt>
      <trkpt lat="52.083504" lon="5.250357">
        <ele>8.381668</ele>
        <time>2026-08-19T15:41:52.697Z</time>
      </trkpt>
      <trkpt lat="52.083273" lon="5.249524">
        <ele>8.367534</ele>
        <time>2026-08-19T15:42:00.889Z</time>
      </trkpt>
      <trkpt lat="52.083061" lon="5.248763">
        <ele>8.354612</ele>
        <time>2026-08-19T15:42:08.389Z</time>
      </trkpt>
      <trkpt lat="52.082800" lon="5.247861">
        <ele>8.350720</ele>
        <time>2026-08-19T15:42:17.324Z</time>
      </trkpt>
      <trkpt lat="52.082412" lon="5.246617">
        <ele>8.377454</ele>
        <time>2026-08-19T15:42:29.898Z</time>
      </trkpt>
      <trkpt lat="52.082398" lon="5.246568">
        <ele>8.378489</ele>
        <time>2026-08-19T15:42:30.388Z</time>
      </trkpt>
      <trkpt lat="52.082298" lon="5.246558">
        <ele>8.381613</ele>
        <time>2026-08-19T15:42:31.924Z</time>
      </trkpt>
      <trkpt lat="52.082230" lon="5.246486">
        <ele>8.384143</ele>
        <time>2026-08-19T15:42:33.160Z</time>
      </trkpt>
      <trkpt lat="52.082179" lon="5.246380">
        <ele>8.386723</ele>
        <time>2026-08-19T15:42:34.432Z</time>
      </trkpt>
      <trkpt lat="52.082152" lon="5.246234">
        <ele>8.389645</ele>
        <time>2026-08-19T15:42:35.886Z</time>
      </trkpt>
      <trkpt lat="52.082197" lon="5.245995">
        <ele>8.394435</ele>
        <time>2026-08-19T15:42:38.266Z</time>
      </trkpt>
      <trkpt lat="52.082218" lon="5.245956">
        <ele>8.395428</ele>
        <time>2026-08-19T15:42:38.747Z</time>
      </trkpt>
      <trkpt lat="52.082210" lon="5.245893">
        <ele>8.396661</ele>
        <time>2026-08-19T15:42:39.349Z</time>
      </trkpt>
      <trkpt lat="52.082035" lon="5.245237">
        <ele>8.319554</ele>
        <time>2026-08-19T15:42:46.227Z</time>
      </trkpt>
      <trkpt lat="52.081603" lon="5.243701">
        <ele>8.056086</ele>
        <time>2026-08-19T15:43:01.441Z</time>
      </trkpt>
      <trkpt lat="52.081141" lon="5.242062">
        <ele>7.230905</ele>
        <time>2026-08-19T15:43:15.155Z</time>
      </trkpt>
      <trkpt lat="52.081014" lon="5.241709">
        <ele>6.961874</ele>
        <time>2026-08-19T15:43:18.020Z</time>
      </trkpt>
      <trkpt lat="52.080794" lon="5.241274">
        <ele>6.591342</ele>
        <time>2026-08-19T15:43:23.800Z</time>
      </trkpt>
      <trkpt lat="52.080706" lon="5.241150">
        <ele>6.466757</ele>
        <time>2026-08-19T15:43:25.762Z</time>
      </trkpt>
      <trkpt lat="52.080504" lon="5.240972">
        <ele>6.220905</ele>
        <time>2026-08-19T15:43:29.674Z</time>
      </trkpt>
      <trkpt lat="52.080407" lon="5.240946">
        <ele>6.115693</ele>
        <time>2026-08-19T15:43:30.885Z</time>
      </trkpt>
      <trkpt lat="52.080354" lon="5.240752">
        <ele>5.999682</ele>
        <time>2026-08-19T15:43:32.456Z</time>
      </trkpt>
      <trkpt lat="52.080312" lon="5.240581">
        <ele>5.945269</ele>
        <time>2026-08-19T15:43:33.837Z</time>
      </trkpt>
      <trkpt lat="52.080165" lon="5.240021">
        <ele>5.765336</ele>
        <time>2026-08-19T15:43:40.565Z</time>
      </trkpt>
      <trkpt lat="52.080164" lon="5.239924">
        <ele>5.736670</ele>
        <time>2026-08-19T15:43:41.634Z</time>
      </trkpt>
      <trkpt lat="52.080309" lon="5.239569">
        <ele>5.610719</ele>
        <time>2026-08-19T15:43:45.165Z</time>
      </trkpt>
      <trkpt lat="52.079149" lon="5.237886">
        <ele>4.898506</ele>
        <time>2026-08-19T15:44:15.213Z</time>
      </trkpt>
      <trkpt lat="52.079118" lon="5.237842">
        <ele>4.881111</ele>
        <time>2026-08-19T15:44:15.984Z</time>
      </trkpt>
      <trkpt lat="52.078941" lon="5.237585">
        <ele>4.780799</ele>
        <time>2026-08-19T15:44:20.416Z</time>
      </trkpt>
      <trkpt lat="52.078905" lon="5.237534">
        <ele>4.760615</ele>
        <time>2026-08-19T15:44:21.300Z</time>
      </trkpt>
      <trkpt lat="52.078491" lon="5.236930">
        <ele>4.525486</ele>
        <time>2026-08-19T15:44:31.524Z</time>
      </trkpt>
      <trkpt lat="52.078529" lon="5.236862">
        <ele>4.501601</ele>
        <time>2026-08-19T15:44:32.551Z</time>
      </trkpt>
      <trkpt lat="52.077844" lon="5.235858">
        <ele>4.350370</ele>
        <time>2026-08-19T15:44:44.905Z</time>
      </trkpt>
      <trkpt lat="52.077580" lon="5.235482">
        <ele>4.327620</ele>
        <time>2026-08-19T15:44:49.828Z</time>
      </trkpt>
      <trkpt lat="52.077510" lon="5.235391">
        <ele>4.321810</ele>
        <time>2026-08-19T15:44:51.607Z</time>
      </trkpt>
      <trkpt lat="52.077485" lon="5.235359">
        <ele>4.319748</ele>
        <time>2026-08-19T15:44:52.065Z</time>
      </trkpt>
      <trkpt lat="52.077397" lon="5.235191">
        <ele>4.310951</ele>
        <time>2026-08-19T15:44:54.052Z</time>
      </trkpt>
      <trkpt lat="52.077523" lon="5.234490">
        <ele>4.281845</ele>
        <time>2026-08-19T15:45:01.100Z</time>
      </trkpt>
      <trkpt lat="52.077449" lon="5.234447">
        <ele>4.278784</ele>
        <time>2026-08-19T15:45:02.478Z</time>
      </trkpt>
      <trkpt lat="52.077475" lon="5.234167">
        <ele>4.376880</ele>
        <time>2026-08-19T15:45:05.685Z</time>
      </trkpt>
      <trkpt lat="52.077450" lon="5.233376">
        <ele>4.651254</ele>
        <time>2026-08-19T15:45:14.689Z</time>
      </trkpt>
      <trkpt lat="52.077458" lon="5.233181">
        <ele>4.718955</ele>
        <time>2026-08-19T15:45:16.874Z</time>
      </trkpt>
      <trkpt lat="52.077524" lon="5.232801">
        <ele>4.855746</ele>
        <time>2026-08-19T15:45:21.291Z</time>
      </trkpt>
      <trkpt lat="52.077518" lon="5.232611">
        <ele>4.921651</ele>
        <time>2026-08-19T15:45:23.403Z</time>
      </trkpt>
      <trkpt lat="52.077559" lon="5.232516">
        <ele>4.961864</ele>
        <time>2026-08-19T15:45:24.700Z</time>
      </trkpt>
      <trkpt lat="52.077595" lon="5.232433">
        <ele>4.997055</ele>
        <time>2026-08-19T15:45:25.825Z</time>
      </trkpt>
      <trkpt lat="52.076749" lon="5.231203">
        <ele>4.967873</ele>
        <time>2026-08-19T15:45:43.863Z</time>
      </trkpt>
      <trkpt lat="52.075894" lon="5.229974">
        <ele>4.367426</ele>
        <time>2026-08-19T15:45:57.747Z</time>
      </trkpt>
      <trkpt lat="52.075830" lon="5.229785">
        <ele>4.301583</ele>
        <time>2026-08-19T15:45:59.354Z</time>
      </trkpt>
      <trkpt lat="52.075735" lon="5.229647">
        <ele>4.240265</ele>
        <time>2026-08-19T15:46:00.916Z</time>
      </trkpt>
      <trkpt lat="52.075728" lon="5.229513">
        <ele>4.200468</ele>
        <time>2026-08-19T15:46:01.943Z</time>
      </trkpt>
      <trkpt lat="52.075670" lon="5.229401">
        <ele>4.157127</ele>
        <time>2026-08-19T15:46:03.063Z</time>
      </trkpt>
      <trkpt lat="52.075618" lon="5.229323">
        <ele>4.123074</ele>
        <time>2026-08-19T15:46:03.948Z</time>
      </trkpt>
      <trkpt lat="52.075513" lon="5.229304">
        <ele>4.072206</ele>
        <time>2026-08-19T15:46:05.283Z</time>
      </trkpt>
      <trkpt lat="52.075321" lon="5.229088">
        <ele>3.959815</ele>
        <time>2026-08-19T15:46:08.287Z</time>
      </trkpt>
      <trkpt lat="52.073468" lon="5.226450">
        <ele>3.313313</ele>
        <time>2026-08-19T15:46:43.496Z</time>
      </trkpt>
      <trkpt lat="52.068966" lon="5.219988">
        <ele>2.803347</ele>
        <time>2026-08-19T15:48:10.511Z</time>
      </trkpt>
      <trkpt lat="52.068735" lon="5.219461">
        <ele>2.761703</ele>
        <time>2026-08-19T15:48:16.515Z</time>
      </trkpt>
      <trkpt lat="52.068645" lon="5.219120">
        <ele>2.737827</ele>
        <time>2026-08-19T15:48:19.856Z</time>
      </trkpt>
      <trkpt lat="52.068574" lon="5.218619">
        <ele>2.704747</ele>
        <time>2026-08-19T15:48:24.642Z</time>
      </trkpt>
      <trkpt lat="52.068567" lon="5.218148">
        <ele>2.674435</ele>
        <time>2026-08-19T15:48:28.849Z</time>
      </trkpt>
      <trkpt lat="52.068589" lon="5.217869">
        <ele>2.656337</ele>
        <time>2026-08-19T15:48:31.228Z</time>
      </trkpt>
      <trkpt lat="52.068668" lon="5.217425">
        <ele>2.649750</ele>
        <time>2026-08-19T15:48:35.063Z</time>
      </trkpt>
      <trkpt lat="52.068773" lon="5.217077">
        <ele>2.659068</ele>
        <time>2026-08-19T15:48:38.265Z</time>
      </trkpt>
      <trkpt lat="52.069111" lon="5.216265">
        <ele>2.682642</ele>
        <time>2026-08-19T15:48:46.702Z</time>
      </trkpt>
      <trkpt lat="52.070025" lon="5.214255">
        <ele>2.943818</ele>
        <time>2026-08-19T15:49:11.816Z</time>
      </trkpt>
      <trkpt lat="52.070091" lon="5.213986">
        <ele>2.999133</ele>
        <time>2026-08-19T15:49:14.855Z</time>
      </trkpt>
      <trkpt lat="52.070092" lon="5.213873">
        <ele>3.020716</ele>
        <time>2026-08-19T15:49:16.027Z</time>
      </trkpt>
      <trkpt lat="52.070037" lon="5.213648">
        <ele>3.066959</ele>
        <time>2026-08-19T15:49:18.512Z</time>
      </trkpt>
      <trkpt lat="52.069145" lon="5.211374">
        <ele>3.257390</ele>
        <time>2026-08-19T15:49:44.099Z</time>
      </trkpt>
      <trkpt lat="52.068683" lon="5.210204">
        <ele>3.241818</ele>
        <time>2026-08-19T15:49:56.131Z</time>
      </trkpt>
      <trkpt lat="52.068672" lon="5.210174">
        <ele>3.240460</ele>
        <time>2026-08-19T15:49:56.433Z</time>
      </trkpt>
      <trkpt lat="52.068565" lon="5.209903">
        <ele>3.227939</ele>
        <time>2026-08-19T15:49:59.200Z</time>
      </trkpt>
      <trkpt lat="52.068108" lon="5.208735">
        <ele>3.174116</ele>
        <time>2026-08-19T15:50:11.666Z</time>
      </trkpt>
      <trkpt lat="52.068079" lon="5.208603">
        <ele>3.168666</ele>
        <time>2026-08-19T15:50:12.917Z</time>
      </trkpt>
      <trkpt lat="52.068108" lon="5.208401">
        <ele>3.160602</ele>
        <time>2026-08-19T15:50:14.778Z</time>
      </trkpt>
      <trkpt lat="52.068122" lon="5.208279">
        <ele>3.155777</ele>
        <time>2026-08-19T15:50:15.893Z</time>
      </trkpt>
      <trkpt lat="52.068144" lon="5.208193">
        <ele>3.152156</ele>
        <time>2026-08-19T15:50:16.731Z</time>
      </trkpt>
      <trkpt lat="52.068206" lon="5.207958">
        <ele>3.142215</ele>
        <time>2026-08-19T15:50:18.988Z</time>
      </trkpt>
      <trkpt lat="52.068326" lon="5.207517">
        <ele>3.130909</ele>
        <time>2026-08-19T15:50:23.246Z</time>
      </trkpt>
      <trkpt lat="52.068516" lon="5.206804">
        <ele>3.129077</ele>
        <time>2026-08-19T15:50:30.676Z</time>
      </trkpt>
      <trkpt lat="52.068730" lon="5.206166">
        <ele>3.127365</ele>
        <time>2026-08-19T15:50:37.558Z</time>
      </trkpt>
      <trkpt lat="52.069069" lon="5.205400">
        <ele>3.125140</ele>
        <time>2026-08-19T15:50:45.742Z</time>
      </trkpt>
      <trkpt lat="52.069490" lon="5.204540">
        <ele>3.188621</ele>
        <time>2026-08-19T15:50:55.688Z</time>
      </trkpt>
      <trkpt lat="52.069534" lon="5.204321">
        <ele>3.206531</ele>
        <time>2026-08-19T15:50:57.809Z</time>
      </trkpt>
      <trkpt lat="52.069525" lon="5.204211">
        <ele>3.215156</ele>
        <time>2026-08-19T15:50:58.806Z</time>
      </trkpt>
      <trkpt lat="52.069493" lon="5.204114">
        <ele>3.223713</ele>
        <time>2026-08-19T15:50:59.793Z</time>
      </trkpt>
      <trkpt lat="52.069423" lon="5.204018">
        <ele>3.235291</ele>
        <time>2026-08-19T15:51:01.110Z</time>
      </trkpt>
      <trkpt lat="52.069131" lon="5.203739">
        <ele>3.278113</ele>
        <time>2026-08-19T15:51:06.085Z</time>
      </trkpt>
      <trkpt lat="52.068860" lon="5.203481">
        <ele>3.317818</ele>
        <time>2026-08-19T15:51:11.038Z</time>
      </trkpt>
      <trkpt lat="52.068819" lon="5.203462">
        <ele>3.323209</ele>
        <time>2026-08-19T15:51:11.735Z</time>
      </trkpt>
      <trkpt lat="52.068690" lon="5.203396">
        <ele>3.340309</ele>
        <time>2026-08-19T15:51:13.983Z</time>
      </trkpt>
      <trkpt lat="52.068587" lon="5.203356">
        <ele>3.356776</ele>
        <time>2026-08-19T15:51:16.324Z</time>
      </trkpt>
      <trkpt lat="52.068385" lon="5.203408">
        <ele>3.427736</ele>
        <time>2026-08-19T15:51:20.951Z</time>
      </trkpt>
      <trkpt lat="52.068255" lon="5.203364">
        <ele>3.473808</ele>
        <time>2026-08-19T15:51:23.991Z</time>
      </trkpt>
      <trkpt lat="52.068135" lon="5.203227">
        <ele>3.524674</ele>
        <time>2026-08-19T15:51:27.362Z</time>
      </trkpt>
      <trkpt lat="52.067979" lon="5.202943">
        <ele>3.605909</ele>
        <time>2026-08-19T15:51:32.793Z</time>
      </trkpt>
      <trkpt lat="52.067916" lon="5.202765">
        <ele>3.649718</ele>
        <time>2026-08-19T15:51:35.663Z</time>
      </trkpt>
      <trkpt lat="52.067841" lon="5.202455">
        <ele>3.720775</ele>
        <time>2026-08-19T15:51:40.083Z</time>
      </trkpt>
      <trkpt lat="52.067690" lon="5.201730">
        <ele>3.884046</ele>
        <time>2026-08-19T15:51:50.065Z</time>
      </trkpt>
      <trkpt lat="52.067630" lon="5.201550">
        <ele>3.927720</ele>
        <time>2026-08-19T15:51:52.735Z</time>
      </trkpt>
      <trkpt lat="52.067494" lon="5.201189">
        <ele>3.965327</ele>
        <time>2026-08-19T15:51:58.023Z</time>
      </trkpt>
      <trkpt lat="52.067366" lon="5.200866">
        <ele>3.944488</ele>
        <time>2026-08-19T15:52:02.704Z</time>
      </trkpt>
      <trkpt lat="52.067289" lon="5.200827">
        <ele>3.937374</ele>
        <time>2026-08-19T15:52:04.288Z</time>
      </trkpt>
      <trkpt lat="52.067302" lon="5.200693">
        <ele>3.930018</ele>
        <time>2026-08-19T15:52:05.911Z</time>
      </trkpt>
      <trkpt lat="52.067306" lon="5.200598">
        <ele>3.924854</ele>
        <time>2026-08-19T15:52:07.049Z</time>
      </trkpt>
      <trkpt lat="52.067286" lon="5.200261">
        <ele>3.906495</ele>
        <time>2026-08-19T15:52:11.102Z</time>
      </trkpt>
      <trkpt lat="52.067219" lon="5.199871">
        <ele>3.884536</ele>
        <time>2026-08-19T15:52:15.854Z</time>
      </trkpt>
      <trkpt lat="52.067141" lon="5.199318">
        <ele>3.853770</ele>
        <time>2026-08-19T15:52:22.572Z</time>
      </trkpt>
      <trkpt lat="52.066973" lon="5.198078">
        <ele>3.813803</ele>
        <time>2026-08-19T15:52:38.391Z</time>
      </trkpt>
      <trkpt lat="52.066924" lon="5.197570">
        <ele>3.810753</ele>
        <time>2026-08-19T15:52:44.706Z</time>
      </trkpt>
      <trkpt lat="52.066919" lon="5.197506">
        <ele>3.810371</ele>
        <time>2026-08-19T15:52:45.510Z</time>
      </trkpt>
      <trkpt lat="52.066915" lon="5.197443">
        <ele>3.809995</ele>
        <time>2026-08-19T15:52:46.302Z</time>
      </trkpt>
      <trkpt lat="52.066898" lon="5.197214">
        <ele>3.808628</ele>
        <time>2026-08-19T15:52:49.177Z</time>
      </trkpt>
      <trkpt lat="52.066888" lon="5.197100">
        <ele>3.807945</ele>
        <time>2026-08-19T15:52:50.596Z</time>
      </trkpt>
      <trkpt lat="52.066762" lon="5.196172">
        <ele>3.802309</ele>
        <time>2026-08-19T15:53:02.467Z</time>
      </trkpt>
      <trkpt lat="52.066463" lon="5.194342">
        <ele>3.842500</ele>
        <time>2026-08-19T15:53:26.189Z</time>
      </trkpt>
      <trkpt lat="52.066366" lon="5.193424">
        <ele>3.868821</ele>
        <time>2026-08-19T15:53:37.877Z</time>
      </trkpt>
      <trkpt lat="52.066321" lon="5.192913">
        <ele>3.879989</ele>
        <time>2026-08-19T15:53:44.512Z</time>
      </trkpt>
      <trkpt lat="52.066210" lon="5.192352">
        <ele>3.818852</ele>
        <time>2026-08-19T15:53:51.866Z</time>
      </trkpt>
      <trkpt lat="52.066203" lon="5.192315">
        <ele>3.814836</ele>
        <time>2026-08-19T15:53:52.340Z</time>
      </trkpt>
      <trkpt lat="52.066139" lon="5.192104">
        <ele>3.790428</ele>
        <time>2026-08-19T15:53:55.233Z</time>
      </trkpt>
      <trkpt lat="52.066055" lon="5.191877">
        <ele>3.762943</ele>
        <time>2026-08-19T15:53:57.592Z</time>
      </trkpt>
      <trkpt lat="52.066044" lon="5.191846">
        <ele>3.759229</ele>
        <time>2026-08-19T15:53:57.921Z</time>
      </trkpt>
      <trkpt lat="52.066038" lon="5.191833">
        <ele>3.757543</ele>
        <time>2026-08-19T15:53:58.077Z</time>
      </trkpt>
      <trkpt lat="52.065902" lon="5.191542">
        <ele>3.719622</ele>
        <time>2026-08-19T15:54:01.273Z</time>
      </trkpt>
      <trkpt lat="52.065126" lon="5.190161">
        <ele>3.401962</ele>
        <time>2026-08-19T15:54:17.056Z</time>
      </trkpt>
      <trkpt lat="52.064847" lon="5.189593">
        <ele>3.152757</ele>
        <time>2026-08-19T15:54:22.745Z</time>
      </trkpt>
      <trkpt lat="52.064557" lon="5.188900">
        <ele>2.865409</ele>
        <time>2026-08-19T15:54:29.320Z</time>
      </trkpt>
      <trkpt lat="52.064318" lon="5.188190">
        <ele>2.587948</ele>
        <time>2026-08-19T15:54:35.913Z</time>
      </trkpt>
      <trkpt lat="52.064197" lon="5.187697">
        <ele>2.561440</ele>
        <time>2026-08-19T15:54:40.362Z</time>
      </trkpt>
      <trkpt lat="52.064054" lon="5.186853">
        <ele>2.535233</ele>
        <time>2026-08-19T15:54:47.949Z</time>
      </trkpt>
      <trkpt lat="52.063978" lon="5.185919">
        <ele>2.507030</ele>
        <time>2026-08-19T15:54:56.942Z</time>
      </trkpt>
      <trkpt lat="52.063924" lon="5.184785">
        <ele>2.482027</ele>
        <time>2026-08-19T15:55:07.976Z</time>
      </trkpt>
      <trkpt lat="52.063921" lon="5.184685">
        <ele>2.480751</ele>
        <time>2026-08-19T15:55:08.908Z</time>
      </trkpt>
      <trkpt lat="52.063932" lon="5.184055">
        <ele>2.472717</ele>
        <time>2026-08-19T15:55:14.649Z</time>
      </trkpt>
      <trkpt lat="52.064005" lon="5.183346">
        <ele>2.463554</ele>
        <time>2026-08-19T15:55:20.973Z</time>
      </trkpt>
      <trkpt lat="52.064041" lon="5.183042">
        <ele>2.459608</ele>
        <time>2026-08-19T15:55:23.660Z</time>
      </trkpt>
      <trkpt lat="52.064136" lon="5.182054">
        <ele>2.437703</ele>
        <time>2026-08-19T15:55:32.435Z</time>
      </trkpt>
      <trkpt lat="52.064147" lon="5.181895">
        <ele>2.431586</ele>
        <time>2026-08-19T15:55:33.932Z</time>
      </trkpt>
      <trkpt lat="52.064181" lon="5.181166">
        <ele>2.403637</ele>
        <time>2026-08-19T15:55:40.701Z</time>
      </trkpt>
      <trkpt lat="52.064146" lon="5.180566">
        <ele>2.380597</ele>
        <time>2026-08-19T15:55:46.115Z</time>
      </trkpt>
      <trkpt lat="52.064050" lon="5.180011">
        <ele>2.358556</ele>
        <time>2026-08-19T15:55:51.334Z</time>
      </trkpt>
      <trkpt lat="52.064008" lon="5.179613">
        <ele>2.343119</ele>
        <time>2026-08-19T15:55:54.911Z</time>
      </trkpt>
      <trkpt lat="52.064014" lon="5.179010">
        <ele>2.289924</ele>
        <time>2026-08-19T15:56:00.193Z</time>
      </trkpt>
      <trkpt lat="52.064019" lon="5.178926">
        <ele>2.281720</ele>
        <time>2026-08-19T15:56:00.918Z</time>
      </trkpt>
      <trkpt lat="52.064039" lon="5.178646">
        <ele>2.254317</ele>
        <time>2026-08-19T15:56:03.374Z</time>
      </trkpt>
      <trkpt lat="52.064041" lon="5.178629">
        <ele>2.252635</ele>
        <time>2026-08-19T15:56:03.528Z</time>
      </trkpt>
      <trkpt lat="52.064050" lon="5.178361">
        <ele>2.226543</ele>
        <time>2026-08-19T15:56:05.813Z</time>
      </trkpt>
      <trkpt lat="52.063991" lon="5.177237">
        <ele>2.116878</ele>
        <time>2026-08-19T15:56:15.300Z</time>
      </trkpt>
      <trkpt lat="52.064017" lon="5.175052">
        <ele>2.125333</ele>
        <time>2026-08-19T15:56:35.552Z</time>
      </trkpt>
      <trkpt lat="52.064102" lon="5.173643">
        <ele>2.184587</ele>
        <time>2026-08-19T15:56:49.023Z</time>
      </trkpt>
      <trkpt lat="52.064066" lon="5.173000">
        <ele>2.138275</ele>
        <time>2026-08-19T15:56:55.055Z</time>
      </trkpt>
      <trkpt lat="52.063924" lon="5.172126">
        <ele>2.073432</ele>
        <time>2026-08-19T15:57:02.899Z</time>
      </trkpt>
      <trkpt lat="52.064002" lon="5.171235">
        <ele>2.008877</ele>
        <time>2026-08-19T15:57:10.260Z</time>
      </trkpt>
      <trkpt lat="52.063997" lon="5.171049">
        <ele>1.995523</ele>
        <time>2026-08-19T15:57:11.916Z</time>
      </trkpt>
      <trkpt lat="52.063966" lon="5.170993">
        <ele>1.990118</ele>
        <time>2026-08-19T15:57:12.589Z</time>
      </trkpt>
      <trkpt lat="52.063892" lon="5.170970">
        <ele>1.981328</ele>
        <time>2026-08-19T15:57:13.720Z</time>
      </trkpt>
      <trkpt lat="52.063790" lon="5.170963">
        <ele>2.003089</ele>
        <time>2026-08-19T15:57:15.274Z</time>
      </trkpt>
      <trkpt lat="52.063655" lon="5.170945">
        <ele>2.051781</ele>
        <time>2026-08-19T15:57:17.381Z</time>
      </trkpt>
      <trkpt lat="52.063562" lon="5.170823">
        <ele>2.094729</ele>
        <time>2026-08-19T15:57:19.264Z</time>
      </trkpt>
      <trkpt lat="52.063456" lon="5.171027">
        <ele>2.153758</ele>
        <time>2026-08-19T15:57:21.864Z</time>
      </trkpt>
      <trkpt lat="52.063438" lon="5.171213">
        <ele>2.195370</ele>
        <time>2026-08-19T15:57:23.744Z</time>
      </trkpt>
      <trkpt lat="52.063417" lon="5.171975">
        <ele>2.363939</ele>
        <time>2026-08-19T15:57:31.629Z</time>
      </trkpt>
      <trkpt lat="52.063409" lon="5.172263">
        <ele>2.427652</ele>
        <time>2026-08-19T15:57:34.792Z</time>
      </trkpt>
      <trkpt lat="52.063369" lon="5.172421">
        <ele>2.465414</ele>
        <time>2026-08-19T15:57:36.677Z</time>
      </trkpt>
      <trkpt lat="52.063253" lon="5.172467">
        <ele>2.508334</ele>
        <time>2026-08-19T15:57:38.745Z</time>
      </trkpt>
      <trkpt lat="52.062441" lon="5.172559">
        <ele>2.613856</ele>
        <time>2026-08-19T15:57:56.468Z</time>
      </trkpt>
      <trkpt lat="52.062199" lon="5.172620">
        <ele>2.608689</ele>
        <time>2026-08-19T15:58:01.397Z</time>
      </trkpt>
      <trkpt lat="52.061707" lon="5.172791">
        <ele>2.598076</ele>
        <time>2026-08-19T15:58:11.252Z</time>
      </trkpt>
      <trkpt lat="52.061552" lon="5.172891">
        <ele>2.594558</ele>
        <time>2026-08-19T15:58:14.416Z</time>
      </trkpt>
      <trkpt lat="52.061496" lon="5.172941">
        <ele>2.593210</ele>
        <time>2026-08-19T15:58:15.269Z</time>
      </trkpt>
      <trkpt lat="52.061488" lon="5.172952">
        <ele>2.592989</ele>
        <time>2026-08-19T15:58:15.411Z</time>
      </trkpt>
      <trkpt lat="52.061171" lon="5.173326">
        <ele>2.574993</ele>
        <time>2026-08-19T15:58:20.678Z</time>
      </trkpt>
      <trkpt lat="52.061098" lon="5.173233">
        <ele>2.560780</ele>
        <time>2026-08-19T15:58:21.989Z</time>
      </trkpt>
      <trkpt lat="52.060785" lon="5.172872">
        <ele>2.501965</ele>
        <time>2026-08-19T15:58:27.503Z</time>
      </trkpt>
      <trkpt lat="52.060440" lon="5.172615">
        <ele>2.443801</ele>
        <time>2026-08-19T15:58:32.995Z</time>
      </trkpt>
      <trkpt lat="52.059591" lon="5.172020">
        <ele>2.308984</ele>
        <time>2026-08-19T15:58:46.162Z</time>
      </trkpt>
      <trkpt lat="52.059337" lon="5.171799">
        <ele>2.300658</ele>
        <time>2026-08-19T15:58:50.384Z</time>
      </trkpt>
      <trkpt lat="52.059083" lon="5.171493">
        <ele>2.291522</ele>
        <time>2026-08-19T15:58:55.073Z</time>
      </trkpt>
      <trkpt lat="52.059027" lon="5.171428">
        <ele>2.289533</ele>
        <time>2026-08-19T15:58:56.115Z</time>
      </trkpt>
      <trkpt lat="52.058768" lon="5.171128">
        <ele>2.280342</ele>
        <time>2026-08-19T15:59:00.908Z</time>
      </trkpt>
      <trkpt lat="52.058651" lon="5.171072">
        <ele>2.276817</ele>
        <time>2026-08-19T15:59:02.761Z</time>
      </trkpt>
      <trkpt lat="52.058107" lon="5.171279">
        <ele>2.260669</ele>
        <time>2026-08-19T15:59:11.082Z</time>
      </trkpt>
      <trkpt lat="52.057929" lon="5.171298">
        <ele>2.240104</ele>
        <time>2026-08-19T15:59:13.663Z</time>
      </trkpt>
      <trkpt lat="52.057643" lon="5.171207">
        <ele>2.189586</ele>
        <time>2026-08-19T15:59:17.808Z</time>
      </trkpt>
      <trkpt lat="52.057426" lon="5.171034">
        <ele>2.147692</ele>
        <time>2026-08-19T15:59:21.213Z</time>
      </trkpt>
      <trkpt lat="52.057170" lon="5.170659">
        <ele>2.087967</ele>
        <time>2026-08-19T15:59:26.100Z</time>
      </trkpt>
      <trkpt lat="52.057052" lon="5.170333">
        <ele>2.047644</ele>
        <time>2026-08-19T15:59:29.365Z</time>
      </trkpt>
      <trkpt lat="52.057000" lon="5.170062">
        <ele>2.017385</ele>
        <time>2026-08-19T15:59:31.810Z</time>
      </trkpt>
      <trkpt lat="52.056942" lon="5.169404">
        <ele>1.946524</ele>
        <time>2026-08-19T15:59:37.533Z</time>
      </trkpt>
      <trkpt lat="52.056886" lon="5.169078">
        <ele>1.909506</ele>
        <time>2026-08-19T15:59:40.482Z</time>
      </trkpt>
      <trkpt lat="52.056190" lon="5.168201">
        <ele>1.752904</ele>
        <time>2026-08-19T15:59:53.129Z</time>
      </trkpt>
      <trkpt lat="52.056006" lon="5.167774">
        <ele>1.695878</ele>
        <time>2026-08-19T15:59:57.619Z</time>
      </trkpt>
      <trkpt lat="52.055936" lon="5.167457">
        <ele>1.659041</ele>
        <time>2026-08-19T16:00:00.469Z</time>
      </trkpt>
      <trkpt lat="52.055908" lon="5.167120">
        <ele>1.622191</ele>
        <time>2026-08-19T16:00:03.349Z</time>
      </trkpt>
      <trkpt lat="52.055977" lon="5.166359">
        <ele>1.543782</ele>
        <time>2026-08-19T16:00:09.973Z</time>
      </trkpt>
      <trkpt lat="52.055979" lon="5.166100">
        <ele>1.517379</ele>
        <time>2026-08-19T16:00:12.245Z</time>
      </trkpt>
      <trkpt lat="52.055898" lon="5.165511">
        <ele>1.455857</ele>
        <time>2026-08-19T16:00:17.613Z</time>
      </trkpt>
      <trkpt lat="52.055491" lon="5.163879">
        <ele>1.281128</ele>
        <time>2026-08-19T16:00:33.385Z</time>
      </trkpt>
      <trkpt lat="52.055162" lon="5.162446">
        <ele>1.139457</ele>
        <time>2026-08-19T16:00:46.810Z</time>
      </trkpt>
      <trkpt lat="52.055078" lon="5.161970">
        <ele>1.093591</ele>
        <time>2026-08-19T16:00:51.019Z</time>
      </trkpt>
      <trkpt lat="52.055088" lon="5.161494">
        <ele>1.057587</ele>
        <time>2026-08-19T16:00:55.056Z</time>
      </trkpt>
      <trkpt lat="52.055236" lon="5.159836">
        <ele>1.053627</ele>
        <time>2026-08-19T16:01:09.760Z</time>
      </trkpt>
      <trkpt lat="52.055267" lon="5.159261">
        <ele>1.052262</ele>
        <time>2026-08-19T16:01:15.222Z</time>
      </trkpt>
      <trkpt lat="52.055287" lon="5.158243">
        <ele>1.087233</ele>
        <time>2026-08-19T16:01:25.194Z</time>
      </trkpt>
      <trkpt lat="52.055269" lon="5.157986">
        <ele>1.108804</ele>
        <time>2026-08-19T16:01:27.775Z</time>
      </trkpt>
      <trkpt lat="52.055213" lon="5.157826">
        <ele>1.124157</ele>
        <time>2026-08-19T16:01:29.615Z</time>
      </trkpt>
      <trkpt lat="52.054945" lon="5.157134">
        <ele>1.192358</ele>
        <time>2026-08-19T16:01:37.770Z</time>
      </trkpt>
      <trkpt lat="52.054883" lon="5.156930">
        <ele>1.211335</ele>
        <time>2026-08-19T16:01:39.948Z</time>
      </trkpt>
      <trkpt lat="52.054823" lon="5.156567">
        <ele>1.242682</ele>
        <time>2026-08-19T16:01:43.452Z</time>
      </trkpt>
      <trkpt lat="52.054792" lon="5.156349">
        <ele>1.261342</ele>
        <time>2026-08-19T16:01:45.475Z</time>
      </trkpt>
      <trkpt lat="52.054696" lon="5.155691">
        <ele>1.242929</ele>
        <time>2026-08-19T16:01:51.383Z</time>
      </trkpt>
      <trkpt lat="52.054609" lon="5.154714">
        <ele>1.056528</ele>
        <time>2026-08-19T16:01:59.539Z</time>
      </trkpt>
      <trkpt lat="52.054512" lon="5.154853">
        <ele>1.016828</ele>
        <time>2026-08-19T16:02:01.266Z</time>
      </trkpt>
      <trkpt lat="52.054043" lon="5.155163">
        <ele>0.861372</ele>
        <time>2026-08-19T16:02:08.038Z</time>
      </trkpt>
      <trkpt lat="52.053801" lon="5.155322">
        <ele>0.781226</ele>
        <time>2026-08-19T16:02:11.611Z</time>
      </trkpt>
      <trkpt lat="52.053614" lon="5.155392">
        <ele>0.747287</ele>
        <time>2026-08-19T16:02:14.321Z</time>
      </trkpt>
      <trkpt lat="52.053277" lon="5.155320">
        <ele>0.771934</ele>
        <time>2026-08-19T16:02:19.252Z</time>
      </trkpt>
      <trkpt lat="52.052834" lon="5.155166">
        <ele>0.804783</ele>
        <time>2026-08-19T16:02:26.089Z</time>
      </trkpt>
      <trkpt lat="52.052560" lon="5.155066">
        <ele>0.825146</ele>
        <time>2026-08-19T16:02:30.495Z</time>
      </trkpt>
      <trkpt lat="52.052184" lon="5.154928">
        <ele>0.853097</ele>
        <time>2026-08-19T16:02:36.567Z</time>
      </trkpt>
      <trkpt lat="52.052263" lon="5.154705">
        <ele>0.864573</ele>
        <time>2026-08-19T16:02:39.048Z</time>
      </trkpt>
      <trkpt lat="52.052881" lon="5.153070">
        <ele>1.121474</ele>
        <time>2026-08-19T16:02:58.007Z</time>
      </trkpt>
      <trkpt lat="52.053057" lon="5.152556">
        <ele>1.205916</ele>
        <time>2026-08-19T16:03:03.632Z</time>
      </trkpt>
      <trkpt lat="52.053154" lon="5.151962">
        <ele>1.293647</ele>
        <time>2026-08-19T16:03:09.388Z</time>
      </trkpt>
      <trkpt lat="52.053141" lon="5.151500">
        <ele>1.336556</ele>
        <time>2026-08-19T16:03:13.715Z</time>
      </trkpt>
      <trkpt lat="52.053041" lon="5.150363">
        <ele>1.443118</ele>
        <time>2026-08-19T16:03:24.491Z</time>
      </trkpt>
      <trkpt lat="52.053046" lon="5.150177">
        <ele>1.460392</ele>
        <time>2026-08-19T16:03:26.236Z</time>
      </trkpt>
      <trkpt lat="52.053082" lon="5.149759">
        <ele>1.499552</ele>
        <time>2026-08-19T16:03:30.253Z</time>
      </trkpt>
      <trkpt lat="52.053221" lon="5.148885">
        <ele>1.553498</ele>
        <time>2026-08-19T16:03:39.045Z</time>
      </trkpt>
      <trkpt lat="52.053268" lon="5.147846">
        <ele>1.499850</ele>
        <time>2026-08-19T16:03:48.968Z</time>
      </trkpt>
      <trkpt lat="52.053174" lon="5.147375">
        <ele>1.474350</ele>
        <time>2026-08-19T16:03:53.407Z</time>
      </trkpt>
      <trkpt lat="52.053090" lon="5.147192">
        <ele>1.462591</ele>
        <time>2026-08-19T16:03:55.380Z</time>
      </trkpt>
      <trkpt lat="52.052670" lon="5.146660">
        <ele>1.418008</ele>
        <time>2026-08-19T16:04:02.505Z</time>
      </trkpt>
      <trkpt lat="52.052243" lon="5.146213">
        <ele>1.425839</ele>
        <time>2026-08-19T16:04:09.353Z</time>
      </trkpt>
      <trkpt lat="52.052028" lon="5.145976">
        <ele>1.432887</ele>
        <time>2026-08-19T16:04:12.984Z</time>
      </trkpt>
      <trkpt lat="52.051878" lon="5.145826">
        <ele>1.437665</ele>
        <time>2026-08-19T16:04:15.516Z</time>
      </trkpt>
      <trkpt lat="52.051488" lon="5.145436">
        <ele>1.450087</ele>
        <time>2026-08-19T16:04:22.387Z</time>
      </trkpt>
      <trkpt lat="52.050073" lon="5.144021">
        <ele>1.929599</ele>
        <time>2026-08-19T16:04:50.870Z</time>
      </trkpt>
      <trkpt lat="52.049794" lon="5.143825">
        <ele>2.046934</ele>
        <time>2026-08-19T16:04:55.849Z</time>
      </trkpt>
      <trkpt lat="52.049216" lon="5.143603">
        <ele>2.044005</ele>
        <time>2026-08-19T16:05:04.833Z</time>
      </trkpt>
      <trkpt lat="52.046998" lon="5.143462">
        <ele>1.497734</ele>
        <time>2026-08-19T16:05:34.023Z</time>
      </trkpt>
      <trkpt lat="52.045768" lon="5.143398">
        <ele>1.571210</ele>
        <time>2026-08-19T16:05:53.864Z</time>
      </trkpt>
      <trkpt lat="52.045298" lon="5.143434">
        <ele>1.801150</ele>
        <time>2026-08-19T16:06:02.126Z</time>
      </trkpt>
      <trkpt lat="52.044511" lon="5.143493">
        <ele>2.186160</ele>
        <time>2026-08-19T16:06:15.515Z</time>
      </trkpt>
      <trkpt lat="52.044110" lon="5.143525">
        <ele>2.373647</ele>
        <time>2026-08-19T16:06:22.259Z</time>
      </trkpt>
      <trkpt lat="52.044095" lon="5.143015">
        <ele>2.412062</ele>
        <time>2026-08-19T16:06:27.470Z</time>
      </trkpt>
      <trkpt lat="52.043973" lon="5.141539">
        <ele>2.524112</ele>
        <time>2026-08-19T16:06:41.480Z</time>
      </trkpt>
      <trkpt lat="52.043884" lon="5.140559">
        <ele>2.570748</ele>
        <time>2026-08-19T16:06:50.246Z</time>
      </trkpt>
      <trkpt lat="52.043812" lon="5.139700">
        <ele>2.405187</ele>
        <time>2026-08-19T16:06:57.617Z</time>
      </trkpt>
      <trkpt lat="52.043764" lon="5.138132">
        <ele>2.105373</ele>
        <time>2026-08-19T16:07:10.765Z</time>
      </trkpt>
      <trkpt lat="52.043767" lon="5.137516">
        <ele>1.980975</ele>
        <time>2026-08-19T16:07:15.921Z</time>
      </trkpt>
      <trkpt lat="52.043791" lon="5.136342">
        <ele>1.722640</ele>
        <time>2026-08-19T16:07:25.640Z</time>
      </trkpt>
      <trkpt lat="52.043946" lon="5.134036">
        <ele>1.337190</ele>
        <time>2026-08-19T16:07:45.129Z</time>
      </trkpt>
      <trkpt lat="52.044118" lon="5.132378">
        <ele>1.228425</ele>
        <time>2026-08-19T16:08:00.607Z</time>
      </trkpt>
      <trkpt lat="52.044371" lon="5.130542">
        <ele>1.121303</ele>
        <time>2026-08-19T16:08:17.793Z</time>
      </trkpt>
      <trkpt lat="52.044898" lon="5.128031">
        <ele>1.106110</ele>
        <time>2026-08-19T16:08:40.980Z</time>
      </trkpt>
      <trkpt lat="52.044940" lon="5.127833">
        <ele>1.117864</ele>
        <time>2026-08-19T16:08:42.967Z</time>
      </trkpt>
      <trkpt lat="52.045037" lon="5.127357">
        <ele>1.146006</ele>
        <time>2026-08-19T16:08:47.774Z</time>
      </trkpt>
      <trkpt lat="52.045460" lon="5.124826">
        <ele>1.520598</ele>
        <time>2026-08-19T16:09:13.570Z</time>
      </trkpt>
      <trkpt lat="52.045705" lon="5.123087">
        <ele>1.834524</ele>
        <time>2026-08-19T16:09:31.409Z</time>
      </trkpt>
      <trkpt lat="52.045826" lon="5.122440">
        <ele>1.903716</ele>
        <time>2026-08-19T16:09:38.177Z</time>
      </trkpt>
      <trkpt lat="52.046053" lon="5.121651">
        <ele>1.992839</ele>
        <time>2026-08-19T16:09:46.632Z</time>
      </trkpt>
      <trkpt lat="52.046105" lon="5.121521">
        <ele>2.008706</ele>
        <time>2026-08-19T16:09:48.090Z</time>
      </trkpt>
      <trkpt lat="52.046184" lon="5.121267">
        <ele>2.037828</ele>
        <time>2026-08-19T16:09:50.751Z</time>
      </trkpt>
      <trkpt lat="52.046417" lon="5.120571">
        <ele>2.031923</ele>
        <time>2026-08-19T16:09:57.734Z</time>
      </trkpt>
      <trkpt lat="52.046604" lon="5.120238">
        <ele>1.944902</ele>
        <time>2026-08-19T16:10:01.569Z</time>
      </trkpt>
      <trkpt lat="52.047140" lon="5.119424">
        <ele>1.714764</ele>
        <time>2026-08-19T16:10:11.536Z</time>
      </trkpt>
      <trkpt lat="52.047230" lon="5.119244">
        <ele>1.669997</ele>
        <time>2026-08-19T16:10:13.399Z</time>
      </trkpt>
      <trkpt lat="52.047338" lon="5.118982">
        <ele>1.609129</ele>
        <time>2026-08-19T16:10:15.934Z</time>
      </trkpt>
      <trkpt lat="52.047447" lon="5.118502">
        <ele>1.515700</ele>
        <time>2026-08-19T16:10:20.173Z</time>
      </trkpt>
      <trkpt lat="52.047565" lon="5.117811">
        <ele>1.429834</ele>
        <time>2026-08-19T16:10:26.440Z</time>
      </trkpt>
      <trkpt lat="52.047556" lon="5.117585">
        <ele>1.402718</ele>
        <time>2026-08-19T16:10:28.396Z</time>
      </trkpt>
      <trkpt lat="52.047489" lon="5.117438">
        <ele>1.380811</ele>
        <time>2026-08-19T16:10:29.981Z</time>
      </trkpt>
      <trkpt lat="52.047382" lon="5.117355">
        <ele>1.357731</ele>
        <time>2026-08-19T16:10:31.645Z</time>
      </trkpt>
      <trkpt lat="52.047189" lon="5.117381">
        <ele>1.320028</ele>
        <time>2026-08-19T16:10:34.334Z</time>
      </trkpt>
      <trkpt lat="52.046956" lon="5.117435">
        <ele>1.274207</ele>
        <time>2026-08-19T16:10:37.616Z</time>
      </trkpt>
      <trkpt lat="52.046760" lon="5.117471">
        <ele>1.235806</ele>
        <time>2026-08-19T16:10:40.416Z</time>
      </trkpt>
      <trkpt lat="52.046515" lon="5.117363">
        <ele>1.186387</ele>
        <time>2026-08-19T16:10:44.129Z</time>
      </trkpt>
      <trkpt lat="52.046442" lon="5.117333">
        <ele>1.176438</ele>
        <time>2026-08-19T16:10:45.284Z</time>
      </trkpt>
      <trkpt lat="52.046259" lon="5.117258">
        <ele>1.209231</ele>
        <time>2026-08-19T16:10:48.175Z</time>
      </trkpt>
      <trkpt lat="52.045929" lon="5.117117">
        <ele>1.268520</ele>
        <time>2026-08-19T16:10:53.358Z</time>
      </trkpt>
      <trkpt lat="52.045463" lon="5.116824">
        <ele>1.355337</ele>
        <time>2026-08-19T16:11:00.767Z</time>
      </trkpt>
      <trkpt lat="52.045244" lon="5.116616">
        <ele>1.399408</ele>
        <time>2026-08-19T16:11:04.750Z</time>
      </trkpt>
      <trkpt lat="52.044926" lon="5.116210">
        <ele>1.469664</ele>
        <time>2026-08-19T16:11:11.250Z</time>
      </trkpt>
      <trkpt lat="52.044639" lon="5.115695">
        <ele>1.679516</ele>
        <time>2026-08-19T16:11:18.386Z</time>
      </trkpt>
      <trkpt lat="52.044421" lon="5.115165">
        <ele>1.909224</ele>
        <time>2026-08-19T16:11:25.161Z</time>
      </trkpt>
      <trkpt lat="52.043867" lon="5.113064">
        <ele>2.676763</ele>
        <time>2026-08-19T16:11:49.819Z</time>
      </trkpt>
      <trkpt lat="52.043299" lon="5.110959">
        <ele>3.263836</ele>
        <time>2026-08-19T16:12:13.267Z</time>
      </trkpt>
      <trkpt lat="52.042308" lon="5.106998">
        <ele>2.939548</ele>
        <time>2026-08-19T16:12:51.071Z</time>
      </trkpt>
      <trkpt lat="52.042218" lon="5.106699">
        <ele>2.874240</ele>
        <time>2026-08-19T16:12:53.809Z</time>
      </trkpt>
      <trkpt lat="52.042010" lon="5.106049">
        <ele>2.730490</ele>
        <time>2026-08-19T16:12:59.838Z</time>
      </trkpt>
      <trkpt lat="52.041829" lon="5.105664">
        <ele>2.635420</ele>
        <time>2026-08-19T16:13:03.810Z</time>
      </trkpt>
      <trkpt lat="52.041585" lon="5.105264">
        <ele>2.490136</ele>
        <time>2026-08-19T16:13:08.362Z</time>
      </trkpt>
      <trkpt lat="52.041248" lon="5.104899">
        <ele>2.310086</ele>
        <time>2026-08-19T16:13:13.766Z</time>
      </trkpt>
      <trkpt lat="52.040882" lon="5.104605">
        <ele>2.128569</ele>
        <time>2026-08-19T16:13:19.299Z</time>
      </trkpt>
      <trkpt lat="52.040766" lon="5.104373">
        <ele>2.046799</ele>
        <time>2026-08-19T16:13:21.815Z</time>
      </trkpt>
      <trkpt lat="52.040752" lon="5.104284">
        <ele>2.021674</ele>
        <time>2026-08-19T16:13:22.584Z</time>
      </trkpt>
      <trkpt lat="52.040759" lon="5.102656">
        <ele>1.654658</ele>
        <time>2026-08-19T16:13:36.103Z</time>
      </trkpt>
      <trkpt lat="52.040782" lon="5.102236">
        <ele>1.577415</ele>
        <time>2026-08-19T16:13:39.556Z</time>
      </trkpt>
      <trkpt lat="52.040846" lon="5.101843">
        <ele>1.502943</ele>
        <time>2026-08-19T16:13:42.979Z</time>
      </trkpt>
      <trkpt lat="52.040986" lon="5.101379">
        <ele>1.408269</ele>
        <time>2026-08-19T16:13:47.473Z</time>
      </trkpt>
      <trkpt lat="52.041142" lon="5.101021">
        <ele>1.327899</ele>
        <time>2026-08-19T16:13:52.827Z</time>
      </trkpt>
      <trkpt lat="52.041179" lon="5.100942">
        <ele>1.309710</ele>
        <time>2026-08-19T16:13:53.710Z</time>
      </trkpt>
      <trkpt lat="52.041204" lon="5.100684">
        <ele>1.274445</ele>
        <time>2026-08-19T16:13:56.074Z</time>
      </trkpt>
      <trkpt lat="52.041597" lon="5.099833">
        <ele>1.234266</ele>
        <time>2026-08-19T16:14:05.069Z</time>
      </trkpt>
      <trkpt lat="52.041728" lon="5.099562">
        <ele>1.221253</ele>
        <time>2026-08-19T16:14:08.331Z</time>
      </trkpt>
      <trkpt lat="52.041765" lon="5.099433">
        <ele>1.215879</ele>
        <time>2026-08-19T16:14:09.554Z</time>
      </trkpt>
      <trkpt lat="52.041770" lon="5.099323">
        <ele>1.211714</ele>
        <time>2026-08-19T16:14:10.525Z</time>
      </trkpt>
      <trkpt lat="52.041783" lon="5.099297">
        <ele>1.210449</ele>
        <time>2026-08-19T16:14:10.793Z</time>
      </trkpt>
      <trkpt lat="52.041797" lon="5.099268">
        <ele>1.209057</ele>
        <time>2026-08-19T16:14:11.133Z</time>
      </trkpt>
      <trkpt lat="52.042015" lon="5.098809">
        <ele>1.187162</ele>
        <time>2026-08-19T16:14:16.350Z</time>
      </trkpt>
      <trkpt lat="52.042032" lon="5.098771">
        <ele>1.185388</ele>
        <time>2026-08-19T16:14:16.806Z</time>
      </trkpt>
      <trkpt lat="52.042143" lon="5.098711">
        <ele>1.178207</ele>
        <time>2026-08-19T16:14:18.521Z</time>
      </trkpt>
      <trkpt lat="52.042209" lon="5.098610">
        <ele>1.172644</ele>
        <time>2026-08-19T16:14:19.887Z</time>
      </trkpt>
      <trkpt lat="52.042275" lon="5.098509">
        <ele>1.167904</ele>
        <time>2026-08-19T16:14:21.312Z</time>
      </trkpt>
      <trkpt lat="52.042195" lon="5.098420">
        <ele>1.183835</ele>
        <time>2026-08-19T16:14:22.760Z</time>
      </trkpt>
      <trkpt lat="52.042132" lon="5.098351">
        <ele>1.196320</ele>
        <time>2026-08-19T16:14:24.007Z</time>
      </trkpt>
      <trkpt lat="52.042021" lon="5.098604">
        <ele>1.227736</ele>
        <time>2026-08-19T16:14:27.025Z</time>
      </trkpt>
      <trkpt lat="52.041796" lon="5.098464">
        <ele>1.267331</ele>
        <time>2026-08-19T16:14:32.335Z</time>
      </trkpt>
      <trkpt lat="52.040919" lon="5.097747">
        <ele>1.428668</ele>
        <time>2026-08-19T16:14:48.345Z</time>
      </trkpt>
      <trkpt lat="52.039431" lon="5.096488">
        <ele>1.033858</ele>
        <time>2026-08-19T16:15:19.533Z</time>
      </trkpt>
      <trkpt lat="52.038723" lon="5.095906">
        <ele>1.240890</ele>
        <time>2026-08-19T16:15:35.915Z</time>
      </trkpt>
      <trkpt lat="52.038278" lon="5.095567">
        <ele>1.562252</ele>
        <time>2026-08-19T16:15:47.422Z</time>
      </trkpt>
      <trkpt lat="52.038087" lon="5.095422">
        <ele>1.700099</ele>
        <time>2026-08-19T16:15:52.702Z</time>
      </trkpt>
      <trkpt lat="52.037846" lon="5.095233">
        <ele>1.875074</ele>
        <time>2026-08-19T16:15:59.277Z</time>
      </trkpt>
      <trkpt lat="52.037667" lon="5.095080">
        <ele>2.007321</ele>
        <time>2026-08-19T16:16:04.196Z</time>
      </trkpt>
      <trkpt lat="52.037702" lon="5.094794">
        <ele>2.120498</ele>
        <time>2026-08-19T16:16:08.408Z</time>
      </trkpt>
      <trkpt lat="52.037714" lon="5.094700">
        <ele>2.144430</ele>
        <time>2026-08-19T16:16:09.764Z</time>
      </trkpt>
      <trkpt lat="52.037748" lon="5.094231">
        <ele>2.262158</ele>
        <time>2026-08-19T16:16:16.266Z</time>
      </trkpt>
      <trkpt lat="52.037823" lon="5.093266">
        <ele>2.504637</ele>
        <time>2026-08-19T16:16:29.469Z</time>
      </trkpt>
      <trkpt lat="52.037864" lon="5.092747">
        <ele>2.635082</ele>
        <time>2026-08-19T16:16:36.378Z</time>
      </trkpt>
      <trkpt lat="52.037913" lon="5.091933">
        <ele>2.838974</ele>
        <time>2026-08-19T16:16:46.482Z</time>
      </trkpt>
      <trkpt lat="52.037999" lon="5.091033">
        <ele>2.900553</ele>
        <time>2026-08-19T16:16:58.345Z</time>
      </trkpt>
      <trkpt lat="52.038011" lon="5.090907">
        <ele>2.908787</ele>
        <time>2026-08-19T16:17:00.104Z</time>
      </trkpt>
      <trkpt lat="52.038082" lon="5.090035">
        <ele>2.965594</ele>
        <time>2026-08-19T16:17:11.714Z</time>
      </trkpt>
      <trkpt lat="52.038150" lon="5.089213">
        <ele>3.019158</ele>
        <time>2026-08-19T16:17:22.048Z</time>
      </trkpt>
      <trkpt lat="52.038314" lon="5.087061">
        <ele>2.787268</ele>
        <time>2026-08-19T16:17:47.875Z</time>
      </trkpt>
      <trkpt lat="52.038350" lon="5.086653">
        <ele>2.736339</ele>
        <time>2026-08-19T16:17:52.629Z</time>
      </trkpt>
      <trkpt lat="52.038357" lon="5.086546">
        <ele>2.723043</ele>
        <time>2026-08-19T16:17:53.884Z</time>
      </trkpt>
      <trkpt lat="52.038377" lon="5.086308">
        <ele>2.693363</ele>
        <time>2026-08-19T16:17:56.718Z</time>
      </trkpt>
      <trkpt lat="52.038388" lon="5.086195">
        <ele>2.679226</ele>
        <time>2026-08-19T16:17:58.085Z</time>
      </trkpt>
      <trkpt lat="52.038410" lon="5.085596">
        <ele>2.618393</ele>
        <time>2026-08-19T16:18:05.391Z</time>
      </trkpt>
      <trkpt lat="52.038481" lon="5.084755">
        <ele>2.534933</ele>
        <time>2026-08-19T16:18:15.856Z</time>
      </trkpt>
      <trkpt lat="52.038563" lon="5.084070">
        <ele>2.466321</ele>
        <time>2026-08-19T16:18:24.184Z</time>
      </trkpt>
      <trkpt lat="52.038556" lon="5.083606">
        <ele>2.420688</ele>
        <time>2026-08-19T16:18:28.281Z</time>
      </trkpt>
      <trkpt lat="52.038720" lon="5.081511">
        <ele>2.274400</ele>
        <time>2026-08-19T16:18:46.647Z</time>
      </trkpt>
      <trkpt lat="52.038781" lon="5.080583">
        <ele>2.215812</ele>
        <time>2026-08-19T16:18:55.075Z</time>
      </trkpt>
      <trkpt lat="52.038854" lon="5.079860">
        <ele>2.140815</ele>
        <time>2026-08-19T16:19:01.858Z</time>
      </trkpt>
      <trkpt lat="52.038910" lon="5.079165">
        <ele>2.053380</ele>
        <time>2026-08-19T16:19:08.346Z</time>
      </trkpt>
      <trkpt lat="52.039046" lon="5.077659">
        <ele>1.863509</ele>
        <time>2026-08-19T16:19:21.346Z</time>
      </trkpt>
      <trkpt lat="52.039083" lon="5.077214">
        <ele>1.781464</ele>
        <time>2026-08-19T16:19:24.929Z</time>
      </trkpt>
      <trkpt lat="52.039102" lon="5.076965">
        <ele>1.719949</ele>
        <time>2026-08-19T16:19:26.910Z</time>
      </trkpt>
      <trkpt lat="52.039177" lon="5.076144">
        <ele>1.516461</ele>
        <time>2026-08-19T16:19:33.581Z</time>
      </trkpt>
      <trkpt lat="52.039249" lon="5.075302">
        <ele>1.308047</ele>
        <time>2026-08-19T16:19:40.618Z</time>
      </trkpt>
      <trkpt lat="52.039313" lon="5.074352">
        <ele>1.116511</ele>
        <time>2026-08-19T16:19:48.882Z</time>
      </trkpt>
      <trkpt lat="52.039317" lon="5.074231">
        <ele>1.115782</ele>
        <time>2026-08-19T16:19:49.952Z</time>
      </trkpt>
      <trkpt lat="52.039318" lon="5.074156">
        <ele>1.115331</ele>
        <time>2026-08-19T16:19:50.628Z</time>
      </trkpt>
      <trkpt lat="52.039325" lon="5.073960">
        <ele>1.114150</ele>
        <time>2026-08-19T16:19:52.407Z</time>
      </trkpt>
      <trkpt lat="52.039376" lon="5.073304">
        <ele>1.110174</ele>
        <time>2026-08-19T16:19:58.581Z</time>
      </trkpt>
      <trkpt lat="52.039461" lon="5.072335">
        <ele>1.104286</ele>
        <time>2026-08-19T16:20:07.637Z</time>
      </trkpt>
      <trkpt lat="52.039474" lon="5.072210">
        <ele>1.103524</ele>
        <time>2026-08-19T16:20:08.794Z</time>
      </trkpt>
      <trkpt lat="52.039570" lon="5.071172">
        <ele>1.075973</ele>
        <time>2026-08-19T16:20:18.462Z</time>
      </trkpt>
      <trkpt lat="52.039614" lon="5.070678">
        <ele>1.050112</ele>
        <time>2026-08-19T16:20:23.080Z</time>
      </trkpt>
      <trkpt lat="52.039633" lon="5.070430">
        <ele>1.037163</ele>
        <time>2026-08-19T16:20:25.385Z</time>
      </trkpt>
      <trkpt lat="52.039680" lon="5.069814">
        <ele>1.005003</ele>
        <time>2026-08-19T16:20:30.988Z</time>
      </trkpt>
      <trkpt lat="52.039697" lon="5.069596">
        <ele>0.993618</ele>
        <time>2026-08-19T16:20:32.905Z</time>
      </trkpt>
      <trkpt lat="52.039757" lon="5.068778">
        <ele>0.950937</ele>
        <time>2026-08-19T16:20:39.939Z</time>
      </trkpt>
      <trkpt lat="52.039790" lon="5.068325">
        <ele>0.991341</ele>
        <time>2026-08-19T16:20:43.789Z</time>
      </trkpt>
      <trkpt lat="52.039820" lon="5.068092">
        <ele>1.016265</ele>
        <time>2026-08-19T16:20:45.794Z</time>
      </trkpt>
      <trkpt lat="52.039824" lon="5.067788">
        <ele>1.048101</ele>
        <time>2026-08-19T16:20:48.349Z</time>
      </trkpt>
      <trkpt lat="52.039923" lon="5.066916">
        <ele>1.140941</ele>
        <time>2026-08-19T16:20:55.986Z</time>
      </trkpt>
      <trkpt lat="52.039960" lon="5.066715">
        <ele>1.162907</ele>
        <time>2026-08-19T16:20:58.191Z</time>
      </trkpt>
      <trkpt lat="52.040058" lon="5.066442">
        <ele>1.196002</ele>
        <time>2026-08-19T16:21:01.750Z</time>
      </trkpt>
      <trkpt lat="52.040109" lon="5.066373">
        <ele>1.207295</ele>
        <time>2026-08-19T16:21:02.980Z</time>
      </trkpt>
      <trkpt lat="52.040209" lon="5.066317">
        <ele>1.225298</ele>
        <time>2026-08-19T16:21:04.958Z</time>
      </trkpt>
      <trkpt lat="52.040348" lon="5.066309">
        <ele>1.248972</ele>
        <time>2026-08-19T16:21:07.576Z</time>
      </trkpt>
      <trkpt lat="52.040403" lon="5.065874">
        <ele>1.342961</ele>
        <time>2026-08-19T16:21:12.752Z</time>
      </trkpt>
      <trkpt lat="52.040420" lon="5.065555">
        <ele>1.415492</ele>
        <time>2026-08-19T16:21:16.544Z</time>
      </trkpt>
      <trkpt lat="52.040460" lon="5.065327">
        <ele>1.469199</ele>
        <time>2026-08-19T16:21:19.336Z</time>
      </trkpt>
      <trkpt lat="52.040544" lon="5.065085">
        <ele>1.532143</ele>
        <time>2026-08-19T16:21:22.319Z</time>
      </trkpt>
      <trkpt lat="52.040671" lon="5.064733">
        <ele>1.624583</ele>
        <time>2026-08-19T16:21:26.358Z</time>
      </trkpt>
      <trkpt lat="52.040984" lon="5.063807">
        <ele>1.863926</ele>
        <time>2026-08-19T16:21:36.575Z</time>
      </trkpt>
      <trkpt lat="52.041105" lon="5.063438">
        <ele>1.864528</ele>
        <time>2026-08-19T16:21:39.823Z</time>
      </trkpt>
      <trkpt lat="52.041234" lon="5.063067">
        <ele>1.742742</ele>
        <time>2026-08-19T16:21:43.091Z</time>
      </trkpt>
      <trkpt lat="52.041277" lon="5.062943">
        <ele>1.702064</ele>
        <time>2026-08-19T16:21:44.205Z</time>
      </trkpt>
      <trkpt lat="52.041301" lon="5.062875">
        <ele>1.679661</ele>
        <time>2026-08-19T16:21:44.796Z</time>
      </trkpt>
      <trkpt lat="52.041318" lon="5.062825">
        <ele>1.663335</ele>
        <time>2026-08-19T16:21:45.227Z</time>
      </trkpt>
      <trkpt lat="52.041354" lon="5.062719">
        <ele>1.628733</ele>
        <time>2026-08-19T16:21:46.181Z</time>
      </trkpt>
      <trkpt lat="52.041830" lon="5.061306">
        <ele>1.168360</ele>
        <time>2026-08-19T16:21:59.414Z</time>
      </trkpt>
      <trkpt lat="52.042398" lon="5.059780">
        <ele>0.860465</ele>
        <time>2026-08-19T16:22:14.615Z</time>
      </trkpt>
      <trkpt lat="52.042806" lon="5.058695">
        <ele>0.670540</ele>
        <time>2026-08-19T16:22:25.650Z</time>
      </trkpt>
      <trkpt lat="52.043346" lon="5.057263">
        <ele>0.649369</ele>
        <time>2026-08-19T16:22:40.851Z</time>
      </trkpt>
      <trkpt lat="52.043487" lon="5.056905">
        <ele>0.650693</ele>
        <time>2026-08-19T16:22:44.831Z</time>
      </trkpt>
      <trkpt lat="52.043908" lon="5.055835">
        <ele>0.653824</ele>
        <time>2026-08-19T16:22:56.581Z</time>
      </trkpt>
      <trkpt lat="52.044019" lon="5.055545">
        <ele>0.653871</ele>
        <time>2026-08-19T16:22:59.704Z</time>
      </trkpt>
      <trkpt lat="52.044487" lon="5.054323">
        <ele>0.654071</ele>
        <time>2026-08-19T16:23:12.580Z</time>
      </trkpt>
      <trkpt lat="52.044549" lon="5.054164">
        <ele>0.654097</ele>
        <time>2026-08-19T16:23:14.309Z</time>
      </trkpt>
      <trkpt lat="52.044764" lon="5.053617">
        <ele>0.654187</ele>
        <time>2026-08-19T16:23:20.285Z</time>
      </trkpt>
      <trkpt lat="52.044992" lon="5.052948">
        <ele>0.692058</ele>
        <time>2026-08-19T16:23:27.492Z</time>
      </trkpt>
      <trkpt lat="52.045118" lon="5.052231">
        <ele>0.730395</ele>
        <time>2026-08-19T16:23:34.679Z</time>
      </trkpt>
      <trkpt lat="52.045136" lon="5.051888">
        <ele>0.748094</ele>
        <time>2026-08-19T16:23:37.990Z</time>
      </trkpt>
      <trkpt lat="52.045114" lon="5.050542">
        <ele>0.756164</ele>
        <time>2026-08-19T16:23:50.464Z</time>
      </trkpt>
      <trkpt lat="52.045207" lon="5.048869">
        <ele>0.429158</ele>
        <time>2026-08-19T16:24:04.466Z</time>
      </trkpt>
      <trkpt lat="52.045270" lon="5.048492">
        <ele>0.353107</ele>
        <time>2026-08-19T16:24:07.613Z</time>
      </trkpt>
      <trkpt lat="52.045367" lon="5.048235">
        <ele>0.294409</ele>
        <time>2026-08-19T16:24:10.081Z</time>
      </trkpt>
      <trkpt lat="52.045541" lon="5.047968">
        <ele>0.226449</ele>
        <time>2026-08-19T16:24:13.307Z</time>
      </trkpt>
      <trkpt lat="52.045822" lon="5.047666">
        <ele>0.169813</ele>
        <time>2026-08-19T16:24:17.942Z</time>
      </trkpt>
      <trkpt lat="52.045852" lon="5.047634">
        <ele>0.163780</ele>
        <time>2026-08-19T16:24:18.446Z</time>
      </trkpt>
      <trkpt lat="52.046002" lon="5.047453">
        <ele>0.132372</ele>
        <time>2026-08-19T16:24:21.083Z</time>
      </trkpt>
      <trkpt lat="52.046177" lon="5.047146">
        <ele>0.089086</ele>
        <time>2026-08-19T16:24:24.787Z</time>
      </trkpt>
      <trkpt lat="52.046703" lon="5.045533">
        <ele>-0.106496</ele>
        <time>2026-08-19T16:24:41.520Z</time>
      </trkpt>
      <trkpt lat="52.047169" lon="5.044038">
        <ele>-0.315962</ele>
        <time>2026-08-19T16:24:55.267Z</time>
      </trkpt>
      <trkpt lat="52.047322" lon="5.043586">
        <ele>-0.380441</ele>
        <time>2026-08-19T16:24:59.909Z</time>
      </trkpt>
      <trkpt lat="52.047650" lon="5.042760">
        <ele>-0.347554</ele>
        <time>2026-08-19T16:25:09.219Z</time>
      </trkpt>
      <trkpt lat="52.047815" lon="5.042308">
        <ele>-0.268410</ele>
        <time>2026-08-19T16:25:14.164Z</time>
      </trkpt>
      <trkpt lat="52.047907" lon="5.041915">
        <ele>-0.205094</ele>
        <time>2026-08-19T16:25:18.237Z</time>
      </trkpt>
      <trkpt lat="52.048243" lon="5.040324">
        <ele>-0.020848</ele>
        <time>2026-08-19T16:25:35.703Z</time>
      </trkpt>
      <trkpt lat="52.048548" lon="5.039213">
        <ele>-0.149912</ele>
        <time>2026-08-19T16:25:46.175Z</time>
      </trkpt>
      <trkpt lat="52.048741" lon="5.038405">
        <ele>-0.241863</ele>
        <time>2026-08-19T16:25:53.329Z</time>
      </trkpt>
      <trkpt lat="52.048882" lon="5.037421">
        <ele>-0.315523</ele>
        <time>2026-08-19T16:26:01.794Z</time>
      </trkpt>
      <trkpt lat="52.048952" lon="5.037102">
        <ele>-0.325544</ele>
        <time>2026-08-19T16:26:04.697Z</time>
      </trkpt>
      <trkpt lat="52.049091" lon="5.036651">
        <ele>-0.340470</ele>
        <time>2026-08-19T16:26:09.102Z</time>
      </trkpt>
      <trkpt lat="52.049267" lon="5.036200">
        <ele>-0.356274</ele>
        <time>2026-08-19T16:26:13.888Z</time>
      </trkpt>
      <trkpt lat="52.049417" lon="5.035911">
        <ele>-0.367463</ele>
        <time>2026-08-19T16:26:17.432Z</time>
      </trkpt>
      <trkpt lat="52.049903" lon="5.035183">
        <ele>-0.413871</ele>
        <time>2026-08-19T16:26:28.005Z</time>
      </trkpt>
      <trkpt lat="52.050298" lon="5.034620">
        <ele>-0.475493</ele>
        <time>2026-08-19T16:26:35.735Z</time>
      </trkpt>
      <trkpt lat="52.050534" lon="5.034282">
        <ele>-0.512388</ele>
        <time>2026-08-19T16:26:40.038Z</time>
      </trkpt>
      <trkpt lat="52.051206" lon="5.033317">
        <ele>-0.626879</ele>
        <time>2026-08-19T16:26:52.827Z</time>
      </trkpt>
      <trkpt lat="52.051573" lon="5.032791">
        <ele>-0.714879</ele>
        <time>2026-08-19T16:26:59.357Z</time>
      </trkpt>
      <trkpt lat="52.051797" lon="5.032463">
        <ele>-0.769102</ele>
        <time>2026-08-19T16:27:03.249Z</time>
      </trkpt>
      <trkpt lat="52.052038" lon="5.032114">
        <ele>-0.827153</ele>
        <time>2026-08-19T16:27:07.740Z</time>
      </trkpt>
      <trkpt lat="52.052512" lon="5.031431">
        <ele>-0.881388</ele>
        <time>2026-08-19T16:27:17.496Z</time>
      </trkpt>
      <trkpt lat="52.053686" lon="5.029736">
        <ele>-0.196217</ele>
        <time>2026-08-19T16:27:44.220Z</time>
      </trkpt>
      <trkpt lat="52.054485" lon="5.028576">
        <ele>-0.248058</ele>
        <time>2026-08-19T16:28:01.041Z</time>
      </trkpt>
      <trkpt lat="52.055312" lon="5.027364">
        <ele>-0.397266</ele>
        <time>2026-08-19T16:28:15.756Z</time>
      </trkpt>
      <trkpt lat="52.055532" lon="5.027024">
        <ele>-0.455982</ele>
        <time>2026-08-19T16:28:19.710Z</time>
      </trkpt>
      <trkpt lat="52.055729" lon="5.026591">
        <ele>-0.520059</ele>
        <time>2026-08-19T16:28:24.171Z</time>
      </trkpt>
      <trkpt lat="52.055829" lon="5.026233">
        <ele>-0.566836</ele>
        <time>2026-08-19T16:28:27.574Z</time>
      </trkpt>
      <trkpt lat="52.055900" lon="5.025739">
        <ele>-0.627187</ele>
        <time>2026-08-19T16:28:32.210Z</time>
      </trkpt>
      <trkpt lat="52.055898" lon="5.025272">
        <ele>-0.682743</ele>
        <time>2026-08-19T16:28:36.652Z</time>
      </trkpt>
      <trkpt lat="52.055799" lon="5.024059">
        <ele>-0.484525</ele>
        <time>2026-08-19T16:28:48.761Z</time>
      </trkpt>
      <trkpt lat="52.055697" lon="5.022819">
        <ele>-0.246250</ele>
        <time>2026-08-19T16:29:01.585Z</time>
      </trkpt>
      <trkpt lat="52.055705" lon="5.022515">
        <ele>-0.188297</ele>
        <time>2026-08-19T16:29:04.629Z</time>
      </trkpt>
      <trkpt lat="52.055742" lon="5.022241">
        <ele>-0.141931</ele>
        <time>2026-08-19T16:29:07.438Z</time>
      </trkpt>
      <trkpt lat="52.055811" lon="5.022002">
        <ele>-0.177268</ele>
        <time>2026-08-19T16:29:10.002Z</time>
      </trkpt>
      <trkpt lat="52.056000" lon="5.021568">
        <ele>-0.248444</ele>
        <time>2026-08-19T16:29:14.913Z</time>
      </trkpt>
      <trkpt lat="52.056203" lon="5.021287">
        <ele>-0.306466</ele>
        <time>2026-08-19T16:29:18.632Z</time>
      </trkpt>
      <trkpt lat="52.056461" lon="5.021061">
        <ele>-0.370249</ele>
        <time>2026-08-19T16:29:22.759Z</time>
      </trkpt>
      <trkpt lat="52.057682" lon="5.020091">
        <ele>-0.705921</ele>
        <time>2026-08-19T16:29:40.563Z</time>
      </trkpt>
      <trkpt lat="52.058780" lon="5.019221">
        <ele>-1.019435</ele>
        <time>2026-08-19T16:29:57.677Z</time>
      </trkpt>
      <trkpt lat="52.060759" lon="5.017694">
        <ele>-0.282643</ele>
        <time>2026-08-19T16:30:34.610Z</time>
      </trkpt>
      <trkpt lat="52.060974" lon="5.017513">
        <ele>-0.256208</ele>
        <time>2026-08-19T16:30:38.348Z</time>
      </trkpt>
      <trkpt lat="52.061019" lon="5.017462">
        <ele>-0.250219</ele>
        <time>2026-08-19T16:30:39.168Z</time>
      </trkpt>
      <trkpt lat="52.061222" lon="5.017029">
        <ele>-0.213664</ele>
        <time>2026-08-19T16:30:44.135Z</time>
      </trkpt>
      <trkpt lat="52.060653" lon="5.016344">
        <ele>-0.136367</ele>
        <time>2026-08-19T16:30:54.169Z</time>
      </trkpt>
      <trkpt lat="52.060084" lon="5.015739">
        <ele>-0.149723</ele>
        <time>2026-08-19T16:31:03.651Z</time>
      </trkpt>
      <trkpt lat="52.059188" lon="5.014884">
        <ele>-0.174588</ele>
        <time>2026-08-19T16:31:19.344Z</time>
      </trkpt>
      <trkpt lat="52.058535" lon="5.014343">
        <ele>-0.053992</ele>
        <time>2026-08-19T16:31:30.815Z</time>
      </trkpt>
      <trkpt lat="52.056660" lon="5.012689">
        <ele>0.250035</ele>
        <time>2026-08-19T16:32:04.372Z</time>
      </trkpt>
      <trkpt lat="52.056284" lon="5.012285">
        <ele>0.285662</ele>
        <time>2026-08-19T16:32:10.827Z</time>
      </trkpt>
      <trkpt lat="52.056192" lon="5.012113">
        <ele>0.296744</ele>
        <time>2026-08-19T16:32:12.833Z</time>
      </trkpt>
      <trkpt lat="52.056134" lon="5.011907">
        <ele>0.307758</ele>
        <time>2026-08-19T16:32:14.834Z</time>
      </trkpt>
      <trkpt lat="52.056117" lon="5.011749">
        <ele>0.315555</ele>
        <time>2026-08-19T16:32:16.256Z</time>
      </trkpt>
      <trkpt lat="52.056157" lon="5.010948">
        <ele>0.332557</ele>
        <time>2026-08-19T16:32:23.558Z</time>
      </trkpt>
      <trkpt lat="52.056173" lon="5.010795">
        <ele>0.335801</ele>
        <time>2026-08-19T16:32:25.008Z</time>
      </trkpt>
      <trkpt lat="52.056253" lon="5.009909">
        <ele>0.354519</ele>
        <time>2026-08-19T16:32:33.419Z</time>
      </trkpt>
      <trkpt lat="52.056268" lon="5.009336">
        <ele>0.366507</ele>
        <time>2026-08-19T16:32:38.743Z</time>
      </trkpt>
      <trkpt lat="52.056229" lon="5.008497">
        <ele>0.366125</ele>
        <time>2026-08-19T16:32:46.599Z</time>
      </trkpt>
      <trkpt lat="52.056145" lon="5.007104">
        <ele>0.320683</ele>
        <time>2026-08-19T16:32:59.193Z</time>
      </trkpt>
      <trkpt lat="52.055987" lon="5.006550">
        <ele>0.300857</ele>
        <time>2026-08-19T16:33:04.384Z</time>
      </trkpt>
      <trkpt lat="52.055971" lon="5.006459">
        <ele>0.297784</ele>
        <time>2026-08-19T16:33:05.502Z</time>
      </trkpt>
      <trkpt lat="52.055957" lon="5.006282">
        <ele>0.291990</ele>
        <time>2026-08-19T16:33:07.066Z</time>
      </trkpt>
      <trkpt lat="52.056001" lon="5.005500">
        <ele>0.347636</ele>
        <time>2026-08-19T16:33:14.293Z</time>
      </trkpt>
      <trkpt lat="52.055964" lon="5.004853">
        <ele>0.436313</ele>
        <time>2026-08-19T16:33:20.592Z</time>
      </trkpt>
      <trkpt lat="52.055850" lon="5.004310">
        <ele>0.514615</ele>
        <time>2026-08-19T16:33:26.140Z</time>
      </trkpt>
      <trkpt lat="52.055265" lon="5.002735">
        <ele>0.808153</ele>
        <time>2026-08-19T16:33:44.591Z</time>
      </trkpt>
      <trkpt lat="52.055136" lon="5.002233">
        <ele>0.919709</ele>
        <time>2026-08-19T16:33:50.079Z</time>
      </trkpt>
      <trkpt lat="52.054743" lon="5.000077">
        <ele>1.251311</ele>
        <time>2026-08-19T16:34:12.096Z</time>
      </trkpt>
      <trkpt lat="52.054614" lon="4.999499">
        <ele>1.213746</ele>
        <time>2026-08-19T16:34:17.722Z</time>
      </trkpt>
      <trkpt lat="52.054617" lon="4.999386">
        <ele>1.206837</ele>
        <time>2026-08-19T16:34:18.742Z</time>
      </trkpt>
      <trkpt lat="52.054568" lon="4.999093">
        <ele>1.188287</ele>
        <time>2026-08-19T16:34:21.450Z</time>
      </trkpt>
      <trkpt lat="52.054555" lon="4.999029">
        <ele>1.184169</ele>
        <time>2026-08-19T16:34:22.045Z</time>
      </trkpt>
      <trkpt lat="52.054537" lon="4.998913">
        <ele>1.176861</ele>
        <time>2026-08-19T16:34:23.108Z</time>
      </trkpt>
      <trkpt lat="52.054593" lon="4.998278">
        <ele>1.137671</ele>
        <time>2026-08-19T16:34:28.660Z</time>
      </trkpt>
      <trkpt lat="52.054632" lon="4.992198">
        <ele>0.148842</ele>
        <time>2026-08-19T16:35:20.459Z</time>
      </trkpt>
      <trkpt lat="52.054636" lon="4.991959">
        <ele>0.104774</ele>
        <time>2026-08-19T16:35:22.416Z</time>
      </trkpt>
      <trkpt lat="52.054652" lon="4.991056">
        <ele>0.055300</ele>
        <time>2026-08-19T16:35:29.921Z</time>
      </trkpt>
      <trkpt lat="52.054647" lon="4.990647">
        <ele>0.040172</ele>
        <time>2026-08-19T16:35:33.379Z</time>
      </trkpt>
      <trkpt lat="52.054723" lon="4.990644">
        <ele>0.035600</ele>
        <time>2026-08-19T16:35:34.881Z</time>
      </trkpt>
      <trkpt lat="52.054786" lon="4.990635">
        <ele>0.031797</ele>
        <time>2026-08-19T16:35:36.102Z</time>
      </trkpt>
      <trkpt lat="52.054810" lon="4.990404">
        <ele>0.023133</ele>
        <time>2026-08-19T16:35:38.919Z</time>
      </trkpt>
      <trkpt lat="52.057008" lon="4.990055">
        <ele>0.187024</ele>
        <time>2026-08-19T16:36:25.542Z</time>
      </trkpt>
      <trkpt lat="52.056970" lon="4.989575">
        <ele>0.230737</ele>
        <time>2026-08-19T16:36:29.916Z</time>
      </trkpt>
      <trkpt lat="52.056810" lon="4.988896">
        <ele>0.280263</ele>
        <time>2026-08-19T16:36:36.486Z</time>
      </trkpt>
      <trkpt lat="52.056757" lon="4.988622">
        <ele>0.298683</ele>
        <time>2026-08-19T16:36:39.094Z</time>
      </trkpt>
      <trkpt lat="52.056690" lon="4.987899">
        <ele>0.345571</ele>
        <time>2026-08-19T16:36:45.750Z</time>
      </trkpt>
      <trkpt lat="52.056680" lon="4.987006">
        <ele>0.402847</ele>
        <time>2026-08-19T16:36:54.187Z</time>
      </trkpt>
      <trkpt lat="52.056705" lon="4.986771">
        <ele>0.418141</ele>
        <time>2026-08-19T16:36:56.489Z</time>
      </trkpt>
      <trkpt lat="52.056761" lon="4.986513">
        <ele>0.434886</ele>
        <time>2026-08-19T16:36:59.217Z</time>
      </trkpt>
      <trkpt lat="52.056912" lon="4.986066">
        <ele>0.464045</ele>
        <time>2026-08-19T16:37:04.527Z</time>
      </trkpt>
      <trkpt lat="52.056961" lon="4.985809">
        <ele>0.479429</ele>
        <time>2026-08-19T16:37:07.320Z</time>
      </trkpt>
      <trkpt lat="52.056984" lon="4.985601">
        <ele>0.491511</ele>
        <time>2026-08-19T16:37:09.397Z</time>
      </trkpt>
      <trkpt lat="52.057015" lon="4.984209">
        <ele>0.571148</ele>
        <time>2026-08-19T16:37:22.060Z</time>
      </trkpt>
      <trkpt lat="52.057004" lon="4.983921">
        <ele>0.587645</ele>
        <time>2026-08-19T16:37:24.554Z</time>
      </trkpt>
      <trkpt lat="52.057025" lon="4.983649">
        <ele>0.577489</ele>
        <time>2026-08-19T16:37:26.941Z</time>
      </trkpt>
      <trkpt lat="52.057125" lon="4.982926">
        <ele>0.479036</ele>
        <time>2026-08-19T16:37:33.291Z</time>
      </trkpt>
      <trkpt lat="52.057168" lon="4.982446">
        <ele>0.414593</ele>
        <time>2026-08-19T16:37:37.348Z</time>
      </trkpt>
      <trkpt lat="52.057187" lon="4.981994">
        <ele>0.354404</ele>
        <time>2026-08-19T16:37:41.181Z</time>
      </trkpt>
      <trkpt lat="52.057294" lon="4.981157">
        <ele>0.240828</ele>
        <time>2026-08-19T16:37:48.770Z</time>
      </trkpt>
      <trkpt lat="52.057298" lon="4.980582">
        <ele>0.178566</ele>
        <time>2026-08-19T16:37:53.905Z</time>
      </trkpt>
      <trkpt lat="52.057140" lon="4.979765">
        <ele>0.102628</ele>
        <time>2026-08-19T16:38:01.342Z</time>
      </trkpt>
      <trkpt lat="52.057044" lon="4.979494">
        <ele>0.074897</ele>
        <time>2026-08-19T16:38:04.049Z</time>
      </trkpt>
      <trkpt lat="52.056770" lon="4.978874">
        <ele>0.007198</ele>
        <time>2026-08-19T16:38:10.635Z</time>
      </trkpt>
      <trkpt lat="52.056725" lon="4.978495">
        <ele>-0.027027</ele>
        <time>2026-08-19T16:38:13.975Z</time>
      </trkpt>
      <trkpt lat="52.056699" lon="4.978155">
        <ele>-0.057932</ele>
        <time>2026-08-19T16:38:16.964Z</time>
      </trkpt>
      <trkpt lat="52.056270" lon="4.976736">
        <ele>-0.212977</ele>
        <time>2026-08-19T16:38:31.302Z</time>
      </trkpt>
      <trkpt lat="52.056133" lon="4.976156">
        <ele>-0.273900</ele>
        <time>2026-08-19T16:38:36.786Z</time>
      </trkpt>
      <trkpt lat="52.055874" lon="4.975492">
        <ele>-0.351126</ele>
        <time>2026-08-19T16:38:43.374Z</time>
      </trkpt>
      <trkpt lat="52.055774" lon="4.975290">
        <ele>-0.376821</ele>
        <time>2026-08-19T16:38:45.574Z</time>
      </trkpt>
      <trkpt lat="52.055349" lon="4.974460">
        <ele>-0.483841</ele>
        <time>2026-08-19T16:38:54.843Z</time>
      </trkpt>
      <trkpt lat="52.054780" lon="4.973350">
        <ele>-0.627029</ele>
        <time>2026-08-19T16:39:07.345Z</time>
      </trkpt>
      <trkpt lat="52.054708" lon="4.973085">
        <ele>-0.584892</ele>
        <time>2026-08-19T16:39:10.247Z</time>
      </trkpt>
      <trkpt lat="52.054690" lon="4.972820">
        <ele>-0.541067</ele>
        <time>2026-08-19T16:39:13.057Z</time>
      </trkpt>
      <trkpt lat="52.054706" lon="4.972686">
        <ele>-0.518629</ele>
        <time>2026-08-19T16:39:14.464Z</time>
      </trkpt>
      <trkpt lat="52.054760" lon="4.972470">
        <ele>-0.480301</ele>
        <time>2026-08-19T16:39:16.885Z</time>
      </trkpt>
      <trkpt lat="52.055006" lon="4.971975">
        <ele>-0.375683</ele>
        <time>2026-08-19T16:39:23.391Z</time>
      </trkpt>
      <trkpt lat="52.055329" lon="4.971382">
        <ele>-0.245465</ele>
        <time>2026-08-19T16:39:31.189Z</time>
      </trkpt>
      <trkpt lat="52.055856" lon="4.970393">
        <ele>-0.268424</ele>
        <time>2026-08-19T16:39:43.642Z</time>
      </trkpt>
      <trkpt lat="52.056320" lon="4.969230">
        <ele>-0.500589</ele>
        <time>2026-08-19T16:39:55.092Z</time>
      </trkpt>
      <trkpt lat="52.056529" lon="4.968611">
        <ele>-0.618848</ele>
        <time>2026-08-19T16:40:00.864Z</time>
      </trkpt>
      <trkpt lat="52.056790" lon="4.967390">
        <ele>-0.678113</ele>
        <time>2026-08-19T16:40:11.378Z</time>
      </trkpt>
      <trkpt lat="52.057018" lon="4.966005">
        <ele>-0.726792</ele>
        <time>2026-08-19T16:40:24.818Z</time>
      </trkpt>
      <trkpt lat="52.057049" lon="4.965304">
        <ele>-0.605717</ele>
        <time>2026-08-19T16:40:32.079Z</time>
      </trkpt>
      <trkpt lat="52.057040" lon="4.964520">
        <ele>-0.340109</ele>
        <time>2026-08-19T16:40:40.624Z</time>
      </trkpt>
      <trkpt lat="52.057010" lon="4.964130">
        <ele>-0.206976</ele>
        <time>2026-08-19T16:40:45.108Z</time>
      </trkpt>
      <trkpt lat="52.056973" lon="4.963794">
        <ele>-0.091353</ele>
        <time>2026-08-19T16:40:48.920Z</time>
      </trkpt>
      <trkpt lat="52.056897" lon="4.963456">
        <ele>0.030552</ele>
        <time>2026-08-19T16:40:52.660Z</time>
      </trkpt>
      <trkpt lat="52.056597" lon="4.962454">
        <ele>0.254912</ele>
        <time>2026-08-19T16:41:03.580Z</time>
      </trkpt>
      <trkpt lat="52.056570" lon="4.962200">
        <ele>0.255768</ele>
        <time>2026-08-19T16:41:05.993Z</time>
      </trkpt>
      <trkpt lat="52.056621" lon="4.961967">
        <ele>0.256589</ele>
        <time>2026-08-19T16:41:08.261Z</time>
      </trkpt>
      <trkpt lat="52.056347" lon="4.961714">
        <ele>0.258290</ele>
        <time>2026-08-19T16:41:12.856Z</time>
      </trkpt>
      <trkpt lat="52.056185" lon="4.961493">
        <ele>0.259432</ele>
        <time>2026-08-19T16:41:15.905Z</time>
      </trkpt>
      <trkpt lat="52.056075" lon="4.961284">
        <ele>0.260346</ele>
        <time>2026-08-19T16:41:18.307Z</time>
      </trkpt>
      <trkpt lat="52.055398" lon="4.959620">
        <ele>0.291897</ele>
        <time>2026-08-19T16:41:36.219Z</time>
      </trkpt>
      <trkpt lat="52.054995" lon="4.958495">
        <ele>0.324121</ele>
        <time>2026-08-19T16:41:48.325Z</time>
      </trkpt>
      <trkpt lat="52.054639" lon="4.957262">
        <ele>0.350180</ele>
        <time>2026-08-19T16:42:01.255Z</time>
      </trkpt>
      <trkpt lat="52.054626" lon="4.957215">
        <ele>0.351018</ele>
        <time>2026-08-19T16:42:01.736Z</time>
      </trkpt>
      <trkpt lat="52.054627" lon="4.957029">
        <ele>0.354043</ele>
        <time>2026-08-19T16:42:03.495Z</time>
      </trkpt>
      <trkpt lat="52.054586" lon="4.956758">
        <ele>0.358583</ele>
        <time>2026-08-19T16:42:06.115Z</time>
      </trkpt>
      <trkpt lat="52.054529" lon="4.956499">
        <ele>0.363057</ele>
        <time>2026-08-19T16:42:08.682Z</time>
      </trkpt>
      <trkpt lat="52.054468" lon="4.956415">
        <ele>0.365172</ele>
        <time>2026-08-19T16:42:09.877Z</time>
      </trkpt>
      <trkpt lat="52.054349" lon="4.956016">
        <ele>0.372385</ele>
        <time>2026-08-19T16:42:13.890Z</time>
      </trkpt>
      <trkpt lat="52.054266" lon="4.955746">
        <ele>0.377295</ele>
        <time>2026-08-19T16:42:16.569Z</time>
      </trkpt>
      <trkpt lat="52.054044" lon="4.955042">
        <ele>0.368587</ele>
        <time>2026-08-19T16:42:23.414Z</time>
      </trkpt>
      <trkpt lat="52.053725" lon="4.954309">
        <ele>0.338691</ele>
        <time>2026-08-19T16:42:31.273Z</time>
      </trkpt>
      <trkpt lat="52.053606" lon="4.954082">
        <ele>0.328760</ele>
        <time>2026-08-19T16:42:33.929Z</time>
      </trkpt>
      <trkpt lat="52.053344" lon="4.953682">
        <ele>0.309304</ele>
        <time>2026-08-19T16:42:39.185Z</time>
      </trkpt>
      <trkpt lat="52.051885" lon="4.952056">
        <ele>0.490661</ele>
        <time>2026-08-19T16:43:06.642Z</time>
      </trkpt>
      <trkpt lat="52.051764" lon="4.951863">
        <ele>0.516724</ele>
        <time>2026-08-19T16:43:09.284Z</time>
      </trkpt>
      <trkpt lat="52.051675" lon="4.951564">
        <ele>0.548138</ele>
        <time>2026-08-19T16:43:12.421Z</time>
      </trkpt>
      <trkpt lat="52.051567" lon="4.950951">
        <ele>0.519579</ele>
        <time>2026-08-19T16:43:18.343Z</time>
      </trkpt>
      <trkpt lat="52.051582" lon="4.950783">
        <ele>0.504719</ele>
        <time>2026-08-19T16:43:19.917Z</time>
      </trkpt>
      <trkpt lat="52.051562" lon="4.950645">
        <ele>0.492308</ele>
        <time>2026-08-19T16:43:21.207Z</time>
      </trkpt>
      <trkpt lat="52.051474" lon="4.950303">
        <ele>0.459856</ele>
        <time>2026-08-19T16:43:24.589Z</time>
      </trkpt>
      <trkpt lat="52.051374" lon="4.950099">
        <ele>0.437019</ele>
        <time>2026-08-19T16:43:26.946Z</time>
      </trkpt>
      <trkpt lat="52.050725" lon="4.948362">
        <ele>0.286650</ele>
        <time>2026-08-19T16:43:44.020Z</time>
      </trkpt>
      <trkpt lat="52.050694" lon="4.948281">
        <ele>0.283176</ele>
        <time>2026-08-19T16:43:44.820Z</time>
      </trkpt>
      <trkpt lat="52.050436" lon="4.947572">
        <ele>0.253181</ele>
        <time>2026-08-19T16:43:51.811Z</time>
      </trkpt>
      <trkpt lat="52.049552" lon="4.945011">
        <ele>0.437879</ele>
        <time>2026-08-19T16:44:20.050Z</time>
      </trkpt>
      <trkpt lat="52.049343" lon="4.944342">
        <ele>0.559417</ele>
        <time>2026-08-19T16:44:27.812Z</time>
      </trkpt>
      <trkpt lat="52.048807" lon="4.943267">
        <ele>0.617938</ele>
        <time>2026-08-19T16:44:41.278Z</time>
      </trkpt>
      <trkpt lat="52.048959" lon="4.943140">
        <ele>0.595223</ele>
        <time>2026-08-19T16:44:43.869Z</time>
      </trkpt>
      <trkpt lat="52.049127" lon="4.943097">
        <ele>0.572617</ele>
        <time>2026-08-19T16:44:46.403Z</time>
      </trkpt>
      <trkpt lat="52.053786" lon="4.942164">
        <ele>-0.200470</ele>
        <time>2026-08-19T16:45:52.308Z</time>
      </trkpt>
      <trkpt lat="52.059328" lon="4.941055">
        <ele>-1.332422</ele>
        <time>2026-08-19T16:47:10.737Z</time>
      </trkpt>
      <trkpt lat="52.059499" lon="4.941009">
        <ele>-1.339961</ele>
        <time>2026-08-19T16:47:13.271Z</time>
      </trkpt>
      <trkpt lat="52.059622" lon="4.940915">
        <ele>-1.345873</ele>
        <time>2026-08-19T16:47:15.265Z</time>
      </trkpt>
      <trkpt lat="52.059892" lon="4.940602">
        <ele>-1.360295</ele>
        <time>2026-08-19T16:47:20.151Z</time>
      </trkpt>
      <trkpt lat="52.060040" lon="4.940505">
        <ele>-1.367236</ele>
        <time>2026-08-19T16:47:22.508Z</time>
      </trkpt>
      <trkpt lat="52.060175" lon="4.940470">
        <ele>-1.373182</ele>
        <time>2026-08-19T16:47:24.548Z</time>
      </trkpt>
      <trkpt lat="52.062140" lon="4.940101">
        <ele>-1.400000</ele>
        <time>2026-08-19T16:47:54.067Z</time>
      </trkpt>
      <trkpt lat="52.062717" lon="4.939930">
        <ele>-1.398085</ele>
        <time>2026-08-19T16:48:02.658Z</time>
      </trkpt>
      <trkpt lat="52.063639" lon="4.939785">
        <ele>-1.386208</ele>
        <time>2026-08-19T16:48:16.594Z</time>
      </trkpt>
      <trkpt lat="52.064009" lon="4.939683">
        <ele>-1.381396</ele>
        <time>2026-08-19T16:48:22.186Z</time>
      </trkpt>
      <trkpt lat="52.064131" lon="4.939579">
        <ele>-1.379630</ele>
        <time>2026-08-19T16:48:24.239Z</time>
      </trkpt>
      <trkpt lat="52.064235" lon="4.939399">
        <ele>-1.377683</ele>
        <time>2026-08-19T16:48:26.502Z</time>
      </trkpt>
      <trkpt lat="52.064897" lon="4.937960">
        <ele>-1.400677</ele>
        <time>2026-08-19T16:48:42.956Z</time>
      </trkpt>
      <trkpt lat="52.065230" lon="4.937300">
        <ele>-1.412580</ele>
        <time>2026-08-19T16:48:50.530Z</time>
      </trkpt>
      <trkpt lat="52.066386" lon="4.935132">
        <ele>-1.536007</ele>
        <time>2026-08-19T16:49:16.057Z</time>
      </trkpt>
      <trkpt lat="52.067158" lon="4.933626">
        <ele>-1.547825</ele>
        <time>2026-08-19T16:49:34.335Z</time>
      </trkpt>
      <trkpt lat="52.068537" lon="4.931001">
        <ele>-1.616593</ele>
        <time>2026-08-19T16:50:05.291Z</time>
      </trkpt>
      <trkpt lat="52.068716" lon="4.930533">
        <ele>-1.636970</ele>
        <time>2026-08-19T16:50:10.262Z</time>
      </trkpt>
      <trkpt lat="52.068759" lon="4.930418">
        <ele>-1.641946</ele>
        <time>2026-08-19T16:50:11.447Z</time>
      </trkpt>
      <trkpt lat="52.069076" lon="4.929774">
        <ele>-1.688175</ele>
        <time>2026-08-19T16:50:18.712Z</time>
      </trkpt>
      <trkpt lat="52.069617" lon="4.928731">
        <ele>-1.771758</ele>
        <time>2026-08-19T16:50:30.549Z</time>
      </trkpt>
      <trkpt lat="52.069880" lon="4.928221">
        <ele>-1.812530</ele>
        <time>2026-08-19T16:50:36.485Z</time>
      </trkpt>
      <trkpt lat="52.070021" lon="4.927878">
        <ele>-1.817578</ele>
        <time>2026-08-19T16:50:40.283Z</time>
      </trkpt>
      <trkpt lat="52.070471" lon="4.926567">
        <ele>-1.725344</ele>
        <time>2026-08-19T16:50:54.669Z</time>
      </trkpt>
      <trkpt lat="52.071047" lon="4.925023">
        <ele>-1.683944</ele>
        <time>2026-08-19T16:51:11.451Z</time>
      </trkpt>
      <trkpt lat="52.071145" lon="4.924765">
        <ele>-1.703913</ele>
        <time>2026-08-19T16:51:14.114Z</time>
      </trkpt>
      <trkpt lat="52.071629" lon="4.923613">
        <ele>-1.795786</ele>
        <time>2026-08-19T16:51:26.313Z</time>
      </trkpt>
      <trkpt lat="52.072175" lon="4.922551">
        <ele>-1.885490</ele>
        <time>2026-08-19T16:51:38.403Z</time>
      </trkpt>
      <trkpt lat="52.073467" lon="4.920015">
        <ele>-1.900847</ele>
        <time>2026-08-19T16:52:07.710Z</time>
      </trkpt>
      <trkpt lat="52.073803" lon="4.919354">
        <ele>-1.799626</ele>
        <time>2026-08-19T16:52:16.277Z</time>
      </trkpt>
      <trkpt lat="52.073907" lon="4.919065">
        <ele>-1.760107</ele>
        <time>2026-08-19T16:52:19.622Z</time>
      </trkpt>
      <trkpt lat="52.073936" lon="4.918923">
        <ele>-1.742449</ele>
        <time>2026-08-19T16:52:21.222Z</time>
      </trkpt>
      <trkpt lat="52.073851" lon="4.918877">
        <ele>-1.725251</ele>
        <time>2026-08-19T16:52:22.663Z</time>
      </trkpt>
      <trkpt lat="52.073792" lon="4.918789">
        <ele>-1.709884</ele>
        <time>2026-08-19T16:52:24.052Z</time>
      </trkpt>
      <trkpt lat="52.073764" lon="4.918660">
        <ele>-1.693740</ele>
        <time>2026-08-19T16:52:25.440Z</time>
      </trkpt>
      <trkpt lat="52.073790" lon="4.918422">
        <ele>-1.665782</ele>
        <time>2026-08-19T16:52:27.964Z</time>
      </trkpt>
      <trkpt lat="52.074049" lon="4.917227">
        <ele>-1.521335</ele>
        <time>2026-08-19T16:52:40.271Z</time>
      </trkpt>
      <trkpt lat="52.074062" lon="4.917106">
        <ele>-1.507332</ele>
        <time>2026-08-19T16:52:41.391Z</time>
      </trkpt>
      <trkpt lat="52.074043" lon="4.916969">
        <ele>-1.491322</ele>
        <time>2026-08-19T16:52:42.706Z</time>
      </trkpt>
      <trkpt lat="52.069633" lon="4.904193">
        <ele>-0.623388</ele>
        <time>2026-08-19T16:54:58.816Z</time>
      </trkpt>
      <trkpt lat="52.069590" lon="4.904059">
        <ele>-0.601435</ele>
        <time>2026-08-19T16:55:00.373Z</time>
      </trkpt>
      <trkpt lat="52.069479" lon="4.903613">
        <ele>-0.531554</ele>
        <time>2026-08-19T16:55:05.226Z</time>
      </trkpt>
      <trkpt lat="52.070183" lon="4.903286">
        <ele>-0.359217</ele>
        <time>2026-08-19T16:55:17.247Z</time>
      </trkpt>
      <trkpt lat="52.070216" lon="4.903217">
        <ele>-0.346614</ele>
        <time>2026-08-19T16:55:18.171Z</time>
      </trkpt>
      <trkpt lat="52.070201" lon="4.903143">
        <ele>-0.335382</ele>
        <time>2026-08-19T16:55:18.950Z</time>
      </trkpt>
      <trkpt lat="52.070174" lon="4.903002">
        <ele>-0.314094</ele>
        <time>2026-08-19T16:55:20.452Z</time>
      </trkpt>
      <trkpt lat="52.070177" lon="4.902881">
        <ele>-0.296638</ele>
        <time>2026-08-19T16:55:21.670Z</time>
      </trkpt>
      <trkpt lat="52.070505" lon="4.902718">
        <ele>-0.216211</ele>
        <time>2026-08-19T16:55:27.303Z</time>
      </trkpt>
      <trkpt lat="52.071440" lon="4.902168">
        <ele>-0.029868</ele>
        <time>2026-08-19T16:55:42.255Z</time>
      </trkpt>
      <trkpt lat="52.072094" lon="4.901867">
        <ele>-0.059111</ele>
        <time>2026-08-19T16:55:51.817Z</time>
      </trkpt>
      <trkpt lat="52.072544" lon="4.901715">
        <ele>-0.078886</ele>
        <time>2026-08-19T16:55:58.833Z</time>
      </trkpt>
      <trkpt lat="52.072885" lon="4.901702">
        <ele>-0.093562</ele>
        <time>2026-08-19T16:56:03.793Z</time>
      </trkpt>
      <trkpt lat="52.072900" lon="4.901528">
        <ele>-0.098209</ele>
        <time>2026-08-19T16:56:05.375Z</time>
      </trkpt>
      <trkpt lat="52.072927" lon="4.901451">
        <ele>-0.101305</ele>
        <time>2026-08-19T16:56:06.152Z</time>
      </trkpt>
      <trkpt lat="52.073090" lon="4.901240">
        <ele>-0.122435</ele>
        <time>2026-08-19T16:56:10.301Z</time>
      </trkpt>
      <trkpt lat="52.073229" lon="4.900971">
        <ele>-0.144346</ele>
        <time>2026-08-19T16:56:14.642Z</time>
      </trkpt>
      <trkpt lat="52.073207" lon="4.900938">
        <ele>-0.147381</ele>
        <time>2026-08-19T16:56:15.251Z</time>
      </trkpt>
      <trkpt lat="52.073144" lon="4.900843">
        <ele>-0.156094</ele>
        <time>2026-08-19T16:56:17.028Z</time>
      </trkpt>
      <trkpt lat="52.073128" lon="4.900817">
        <ele>-0.158388</ele>
        <time>2026-08-19T16:56:17.483Z</time>
      </trkpt>
      <trkpt lat="52.073372" lon="4.900393">
        <ele>-0.194602</ele>
        <time>2026-08-19T16:56:24.969Z</time>
      </trkpt>
      <trkpt lat="52.073598" lon="4.900090">
        <ele>-0.224307</ele>
        <time>2026-08-19T16:56:30.980Z</time>
      </trkpt>
      <trkpt lat="52.073626" lon="4.900052">
        <ele>-0.228006</ele>
        <time>2026-08-19T16:56:31.693Z</time>
      </trkpt>
      <trkpt lat="52.073742" lon="4.899892">
        <ele>-0.243432</ele>
        <time>2026-08-19T16:56:34.559Z</time>
      </trkpt>
      <trkpt lat="52.073887" lon="4.899607">
        <ele>-0.266499</ele>
        <time>2026-08-19T16:56:38.802Z</time>
      </trkpt>
      <trkpt lat="52.074219" lon="4.898593">
        <ele>-0.379016</ele>
        <time>2026-08-19T16:56:52.140Z</time>
      </trkpt>
      <trkpt lat="52.074287" lon="4.898000">
        <ele>-0.444242</ele>
        <time>2026-08-19T16:56:59.347Z</time>
      </trkpt>
      <trkpt lat="52.074282" lon="4.897153">
        <ele>-0.535830</ele>
        <time>2026-08-19T16:57:09.620Z</time>
      </trkpt>
      <trkpt lat="52.074423" lon="4.896174">
        <ele>-0.566368</ele>
        <time>2026-08-19T16:57:22.088Z</time>
      </trkpt>
      <trkpt lat="52.074416" lon="4.895928">
        <ele>-0.547428</ele>
        <time>2026-08-19T16:57:25.199Z</time>
      </trkpt>
      <trkpt lat="52.074377" lon="4.895746">
        <ele>-0.532603</ele>
        <time>2026-08-19T16:57:27.646Z</time>
      </trkpt>
      <trkpt lat="52.074245" lon="4.895430">
        <ele>-0.503218</ele>
        <time>2026-08-19T16:57:32.520Z</time>
      </trkpt>
      <trkpt lat="52.073933" lon="4.894882">
        <ele>-0.445766</ele>
        <time>2026-08-19T16:57:42.145Z</time>
      </trkpt>
      <trkpt lat="52.073880" lon="4.894671">
        <ele>-0.428235</ele>
        <time>2026-08-19T16:57:45.110Z</time>
      </trkpt>
      <trkpt lat="52.073788" lon="4.893471">
        <ele>-0.308584</ele>
        <time>2026-08-19T16:58:00.812Z</time>
      </trkpt>
      <trkpt lat="52.073740" lon="4.892235">
        <ele>-0.147543</ele>
        <time>2026-08-19T16:58:16.903Z</time>
      </trkpt>
      <trkpt lat="52.073698" lon="4.891641">
        <ele>-0.069793</ele>
        <time>2026-08-19T16:58:24.736Z</time>
      </trkpt>
      <trkpt lat="52.073491" lon="4.890496">
        <ele>-0.011329</ele>
        <time>2026-08-19T16:58:39.942Z</time>
      </trkpt>
      <trkpt lat="52.073434" lon="4.890030">
        <ele>-0.025502</ele>
        <time>2026-08-19T16:58:45.742Z</time>
      </trkpt>
      <trkpt lat="52.073417" lon="4.889812">
        <ele>-0.032057</ele>
        <time>2026-08-19T16:58:48.440Z</time>
      </trkpt>
      <trkpt lat="52.073436" lon="4.889479">
        <ele>-0.042034</ele>
        <time>2026-08-19T16:58:52.526Z</time>
      </trkpt>
      <trkpt lat="52.073454" lon="4.889054">
        <ele>-0.054742</ele>
        <time>2026-08-19T16:58:57.658Z</time>
      </trkpt>
      <trkpt lat="52.073646" lon="4.886775">
        <ele>-0.104970</ele>
        <time>2026-08-19T16:59:25.449Z</time>
      </trkpt>
      <trkpt lat="52.073764" lon="4.885360">
        <ele>-0.129260</ele>
        <time>2026-08-19T16:59:43.430Z</time>
      </trkpt>
      <trkpt lat="52.073836" lon="4.884896">
        <ele>-0.103693</ele>
        <time>2026-08-19T16:59:49.735Z</time>
      </trkpt>
      <trkpt lat="52.073958" lon="4.884334">
        <ele>-0.065381</ele>
        <time>2026-08-19T16:59:57.413Z</time>
      </trkpt>
      <trkpt lat="52.073983" lon="4.884350">
        <ele>-0.062571</ele>
        <time>2026-08-19T16:59:57.964Z</time>
      </trkpt>
      <trkpt lat="52.074065" lon="4.884393">
        <ele>-0.053561</ele>
        <time>2026-08-19T16:59:59.748Z</time>
      </trkpt>
      <trkpt lat="52.074076" lon="4.884400">
        <ele>-0.052326</ele>
        <time>2026-08-19T16:59:59.988Z</time>
      </trkpt>
      <trkpt lat="52.074094" lon="4.884411">
        <ele>-0.050315</ele>
        <time>2026-08-19T17:00:00.387Z</time>
      </trkpt>
      <trkpt lat="52.074376" lon="4.883802">
        <ele>-0.001303</ele>
        <time>2026-08-19T17:00:09.927Z</time>
      </trkpt>
      <trkpt lat="52.074411" lon="4.883686">
        <ele>0.007003</ele>
        <time>2026-08-19T17:00:11.543Z</time>
      </trkpt>
      <trkpt lat="52.074523" lon="4.883301">
        <ele>0.034383</ele>
        <time>2026-08-19T17:00:16.911Z</time>
      </trkpt>
      <trkpt lat="52.074546" lon="4.883077">
        <ele>0.048981</ele>
        <time>2026-08-19T17:00:19.840Z</time>
      </trkpt>
      <trkpt lat="52.074869" lon="4.881763">
        <ele>0.031698</ele>
        <time>2026-08-19T17:00:37.664Z</time>
      </trkpt>
      <trkpt lat="52.075133" lon="4.881164">
        <ele>0.016678</ele>
        <time>2026-08-19T17:00:44.071Z</time>
      </trkpt>
      <trkpt lat="52.075398" lon="4.880610">
        <ele>0.002372</ele>
        <time>2026-08-19T17:00:50.262Z</time>
      </trkpt>
      <trkpt lat="52.075579" lon="4.880480">
        <ele>-0.002748</ele>
        <time>2026-08-19T17:00:53.117Z</time>
      </trkpt>
      <trkpt lat="52.075623" lon="4.880416">
        <ele>-0.003483</ele>
        <time>2026-08-19T17:00:53.959Z</time>
      </trkpt>
      <trkpt lat="52.075657" lon="4.880300">
        <ele>-0.004467</ele>
        <time>2026-08-19T17:00:55.113Z</time>
      </trkpt>
      <trkpt lat="52.076251" lon="4.878086">
        <ele>-0.022970</ele>
        <time>2026-08-19T17:01:16.869Z</time>
      </trkpt>
      <trkpt lat="52.076263" lon="4.878042">
        <ele>-0.023338</ele>
        <time>2026-08-19T17:01:17.343Z</time>
      </trkpt>
      <trkpt lat="52.077067" lon="4.875685">
        <ele>0.233273</ele>
        <time>2026-08-19T17:01:43.594Z</time>
      </trkpt>
      <trkpt lat="52.077085" lon="4.875574">
        <ele>0.244774</ele>
        <time>2026-08-19T17:01:44.680Z</time>
      </trkpt>
      <trkpt lat="52.077069" lon="4.875469">
        <ele>0.255611</ele>
        <time>2026-08-19T17:01:45.704Z</time>
      </trkpt>
      <trkpt lat="52.076949" lon="4.875285">
        <ele>0.252693</ele>
        <time>2026-08-19T17:01:48.196Z</time>
      </trkpt>
      <trkpt lat="52.076321" lon="4.874363">
        <ele>0.088397</ele>
        <time>2026-08-19T17:02:00.414Z</time>
      </trkpt>
      <trkpt lat="52.075306" lon="4.872905">
        <ele>-0.260219</ele>
        <time>2026-08-19T17:02:18.718Z</time>
      </trkpt>
      <trkpt lat="52.075262" lon="4.872844">
        <ele>-0.281661</ele>
        <time>2026-08-19T17:02:19.485Z</time>
      </trkpt>
      <trkpt lat="52.074594" lon="4.871938">
        <ele>-0.604247</ele>
        <time>2026-08-19T17:02:31.217Z</time>
      </trkpt>
      <trkpt lat="52.074480" lon="4.871703">
        <ele>-0.672501</ele>
        <time>2026-08-19T17:02:33.750Z</time>
      </trkpt>
      <trkpt lat="52.073839" lon="4.869209">
        <ele>-1.006730</ele>
        <time>2026-08-19T17:02:57.155Z</time>
      </trkpt>
      <trkpt lat="52.073780" lon="4.868989">
        <ele>-1.032929</ele>
        <time>2026-08-19T17:02:59.276Z</time>
      </trkpt>
      <trkpt lat="52.073703" lon="4.868694">
        <ele>-1.066950</ele>
        <time>2026-08-19T17:03:02.108Z</time>
      </trkpt>
      <trkpt lat="52.072954" lon="4.865933">
        <ele>-1.036064</ele>
        <time>2026-08-19T17:03:29.895Z</time>
      </trkpt>
      <trkpt lat="52.072491" lon="4.864172">
        <ele>-1.144755</ele>
        <time>2026-08-19T17:03:46.962Z</time>
      </trkpt>
      <trkpt lat="52.072328" lon="4.863376">
        <ele>-1.192368</ele>
        <time>2026-08-19T17:03:57.141Z</time>
      </trkpt>
      <trkpt lat="52.072296" lon="4.863222">
        <ele>-1.204363</ele>
        <time>2026-08-19T17:03:59.136Z</time>
      </trkpt>
      <trkpt lat="52.072122" lon="4.862417">
        <ele>-1.278971</ele>
        <time>2026-08-19T17:04:09.452Z</time>
      </trkpt>
      <trkpt lat="52.072018" lon="4.861967">
        <ele>-1.321005</ele>
        <time>2026-08-19T17:04:15.211Z</time>
      </trkpt>
      <trkpt lat="52.071882" lon="4.861449">
        <ele>-1.370254</ele>
        <time>2026-08-19T17:04:21.957Z</time>
      </trkpt>
      <trkpt lat="52.071853" lon="4.861367">
        <ele>-1.378525</ele>
        <time>2026-08-19T17:04:23.091Z</time>
      </trkpt>
      <trkpt lat="52.071706" lon="4.860910">
        <ele>-1.423623</ele>
        <time>2026-08-19T17:04:29.320Z</time>
      </trkpt>
      <trkpt lat="52.071399" lon="4.859981">
        <ele>-1.409966</ele>
        <time>2026-08-19T17:04:42.100Z</time>
      </trkpt>
      <trkpt lat="52.070490" lon="4.857407">
        <ele>-1.270704</ele>
        <time>2026-08-19T17:05:20.247Z</time>
      </trkpt>
      <trkpt lat="52.070455" lon="4.857226">
        <ele>-1.267975</ele>
        <time>2026-08-19T17:05:22.774Z</time>
      </trkpt>
      <trkpt lat="52.070442" lon="4.856209">
        <ele>-1.253349</ele>
        <time>2026-08-19T17:05:35.719Z</time>
      </trkpt>
      <trkpt lat="52.070445" lon="4.855912">
        <ele>-1.249078</ele>
        <time>2026-08-19T17:05:38.384Z</time>
      </trkpt>
      <trkpt lat="52.070455" lon="4.855711">
        <ele>-1.246178</ele>
        <time>2026-08-19T17:05:40.822Z</time>
      </trkpt>
      <trkpt lat="52.070490" lon="4.855617">
        <ele>-1.244598</ele>
        <time>2026-08-19T17:05:42.162Z</time>
      </trkpt>
      <trkpt lat="52.070587" lon="4.855502">
        <ele>-1.241790</ele>
        <time>2026-08-19T17:05:44.497Z</time>
      </trkpt>
      <trkpt lat="52.070761" lon="4.855461">
        <ele>-1.250657</ele>
        <time>2026-08-19T17:05:47.876Z</time>
      </trkpt>
      <trkpt lat="52.070969" lon="4.855407">
        <ele>-1.277557</ele>
        <time>2026-08-19T17:05:51.850Z</time>
      </trkpt>
      <trkpt lat="52.071070" lon="4.855199">
        <ele>-1.298365</ele>
        <time>2026-08-19T17:05:54.888Z</time>
      </trkpt>
      <trkpt lat="52.071225" lon="4.853175">
        <ele>-1.458477</ele>
        <time>2026-08-19T17:06:19.335Z</time>
      </trkpt>
      <trkpt lat="52.071220" lon="4.852905">
        <ele>-1.441833</ele>
        <time>2026-08-19T17:06:22.999Z</time>
      </trkpt>
      <trkpt lat="52.071180" lon="4.852789">
        <ele>-1.413883</ele>
        <time>2026-08-19T17:06:24.795Z</time>
      </trkpt>
      <trkpt lat="52.071115" lon="4.852695">
        <ele>-1.384152</ele>
        <time>2026-08-19T17:06:26.673Z</time>
      </trkpt>
      <trkpt lat="52.070695" lon="4.852358">
        <ele>-1.224057</ele>
        <time>2026-08-19T17:06:36.869Z</time>
      </trkpt>
      <trkpt lat="52.070544" lon="4.852174">
        <ele>-1.159561</ele>
        <time>2026-08-19T17:06:41.070Z</time>
      </trkpt>
      <trkpt lat="52.070507" lon="4.852088">
        <ele>-1.137502</ele>
        <time>2026-08-19T17:06:42.528Z</time>
      </trkpt>
      <trkpt lat="52.070479" lon="4.851865">
        <ele>-1.089674</ele>
        <time>2026-08-19T17:06:45.701Z</time>
      </trkpt>
      <trkpt lat="52.070477" lon="4.851302">
        <ele>-0.971364</ele>
        <time>2026-08-19T17:06:53.435Z</time>
      </trkpt>
      <trkpt lat="52.070467" lon="4.847678">
        <ele>-0.505455</ele>
        <time>2026-08-19T17:07:40.468Z</time>
      </trkpt>
      <trkpt lat="52.070450" lon="4.846775">
        <ele>-0.582207</ele>
        <time>2026-08-19T17:07:51.414Z</time>
      </trkpt>
      <trkpt lat="52.070422" lon="4.845771">
        <ele>-0.667591</ele>
        <time>2026-08-19T17:08:03.299Z</time>
      </trkpt>
      <trkpt lat="52.070400" lon="4.845254">
        <ele>-0.711619</ele>
        <time>2026-08-19T17:08:09.429Z</time>
      </trkpt>
      <trkpt lat="52.070387" lon="4.844909">
        <ele>-0.740984</ele>
        <time>2026-08-19T17:08:13.577Z</time>
      </trkpt>
      <trkpt lat="52.070379" lon="4.844679">
        <ele>-0.747096</ele>
        <time>2026-08-19T17:08:16.369Z</time>
      </trkpt>
      <trkpt lat="52.070376" lon="4.844610">
        <ele>-0.748711</ele>
        <time>2026-08-19T17:08:17.203Z</time>
      </trkpt>
      <trkpt lat="52.070310" lon="4.843463">
        <ele>-0.775608</ele>
        <time>2026-08-19T17:08:31.130Z</time>
      </trkpt>
      <trkpt lat="52.070263" lon="4.842818">
        <ele>-0.790773</ele>
        <time>2026-08-19T17:08:39.415Z</time>
      </trkpt>
      <trkpt lat="52.070232" lon="4.842377">
        <ele>-0.801137</ele>
        <time>2026-08-19T17:08:45.029Z</time>
      </trkpt>
      <trkpt lat="52.070183" lon="4.841694">
        <ele>-0.816460</ele>
        <time>2026-08-19T17:08:53.730Z</time>
      </trkpt>
      <trkpt lat="52.070092" lon="4.840766">
        <ele>-0.836066</ele>
        <time>2026-08-19T17:09:05.405Z</time>
      </trkpt>
      <trkpt lat="52.069963" lon="4.839740">
        <ele>-0.857915</ele>
        <time>2026-08-19T17:09:18.313Z</time>
      </trkpt>
      <trkpt lat="52.069922" lon="4.839409">
        <ele>-0.864959</ele>
        <time>2026-08-19T17:09:22.413Z</time>
      </trkpt>
      <trkpt lat="52.069708" lon="4.837972">
        <ele>-0.948476</ele>
        <time>2026-08-19T17:09:35.293Z</time>
      </trkpt>
      <trkpt lat="52.069437" lon="4.836458">
        <ele>-1.052254</ele>
        <time>2026-08-19T17:09:49.144Z</time>
      </trkpt>
      <trkpt lat="52.068944" lon="4.834056">
        <ele>-0.974522</ele>
        <time>2026-08-19T17:10:12.710Z</time>
      </trkpt>
      <trkpt lat="52.068728" lon="4.833126">
        <ele>-0.948110</ele>
        <time>2026-08-19T17:10:22.070Z</time>
      </trkpt>
      <trkpt lat="52.068264" lon="4.830763">
        <ele>-0.920378</ele>
        <time>2026-08-19T17:10:44.776Z</time>
      </trkpt>
      <trkpt lat="52.067983" lon="4.828947">
        <ele>-1.051707</ele>
        <time>2026-08-19T17:11:01.407Z</time>
      </trkpt>
      <trkpt lat="52.067864" lon="4.827910">
        <ele>-1.126719</ele>
        <time>2026-08-19T17:11:10.566Z</time>
      </trkpt>
      <trkpt lat="52.067745" lon="4.826065">
        <ele>-1.329359</ele>
        <time>2026-08-19T17:11:26.509Z</time>
      </trkpt>
      <trkpt lat="52.067741" lon="4.825031">
        <ele>-1.442750</ele>
        <time>2026-08-19T17:11:35.557Z</time>
      </trkpt>
      <trkpt lat="52.067799" lon="4.824478">
        <ele>-1.397710</ele>
        <time>2026-08-19T17:11:40.638Z</time>
      </trkpt>
      <trkpt lat="52.067841" lon="4.824413">
        <ele>-1.388098</ele>
        <time>2026-08-19T17:11:41.520Z</time>
      </trkpt>
      <trkpt lat="52.067917" lon="4.824391">
        <ele>-1.375299</ele>
        <time>2026-08-19T17:11:42.715Z</time>
      </trkpt>
      <trkpt lat="52.068218" lon="4.824478">
        <ele>-1.324609</ele>
        <time>2026-08-19T17:11:47.579Z</time>
      </trkpt>
      <trkpt lat="52.068241" lon="4.824344">
        <ele>-1.310429</ele>
        <time>2026-08-19T17:11:48.961Z</time>
      </trkpt>
      <trkpt lat="52.068257" lon="4.824245">
        <ele>-1.299996</ele>
        <time>2026-08-19T17:11:49.994Z</time>
      </trkpt>
      <trkpt lat="52.068258" lon="4.824091">
        <ele>-1.284298</ele>
        <time>2026-08-19T17:11:51.549Z</time>
      </trkpt>
      <trkpt lat="52.068220" lon="4.824024">
        <ele>-1.275007</ele>
        <time>2026-08-19T17:11:52.466Z</time>
      </trkpt>
      <trkpt lat="52.067929" lon="4.823906">
        <ele>-1.225281</ele>
        <time>2026-08-19T17:11:57.428Z</time>
      </trkpt>
      <trkpt lat="52.067734" lon="4.823698">
        <ele>-1.186618</ele>
        <time>2026-08-19T17:12:01.203Z</time>
      </trkpt>
      <trkpt lat="52.067606" lon="4.823414">
        <ele>-1.150841</ele>
        <time>2026-08-19T17:12:04.587Z</time>
      </trkpt>
      <trkpt lat="52.067485" lon="4.823004">
        <ele>-1.163671</ele>
        <time>2026-08-19T17:12:08.706Z</time>
      </trkpt>
      <trkpt lat="52.067328" lon="4.822686">
        <ele>-1.175176</ele>
        <time>2026-08-19T17:12:12.396Z</time>
      </trkpt>
      <trkpt lat="52.067126" lon="4.822442">
        <ele>-1.186722</ele>
        <time>2026-08-19T17:12:16.033Z</time>
      </trkpt>
      <trkpt lat="52.066941" lon="4.822312">
        <ele>-1.195969</ele>
        <time>2026-08-19T17:12:18.882Z</time>
      </trkpt>
      <trkpt lat="52.066884" lon="4.822261">
        <ele>-1.198954</ele>
        <time>2026-08-19T17:12:19.808Z</time>
      </trkpt>
      <trkpt lat="52.066860" lon="4.822199">
        <ele>-1.201021</ele>
        <time>2026-08-19T17:12:20.446Z</time>
      </trkpt>
      <trkpt lat="52.066846" lon="4.822148">
        <ele>-1.202597</ele>
        <time>2026-08-19T17:12:21.113Z</time>
      </trkpt>
      <trkpt lat="52.066823" lon="4.822051">
        <ele>-1.205530</ele>
        <time>2026-08-19T17:12:22.346Z</time>
      </trkpt>
      <trkpt lat="52.066725" lon="4.821670">
        <ele>-1.217181</ele>
        <time>2026-08-19T17:12:27.259Z</time>
      </trkpt>
      <trkpt lat="52.066310" lon="4.820035">
        <ele>-1.297903</ele>
        <time>2026-08-19T17:12:48.968Z</time>
      </trkpt>
      <trkpt lat="52.065735" lon="4.817794">
        <ele>-1.567332</ele>
        <time>2026-08-19T17:13:18.925Z</time>
      </trkpt>
      <trkpt lat="52.065698" lon="4.817599">
        <ele>-1.618783</ele>
        <time>2026-08-19T17:13:21.260Z</time>
      </trkpt>
      <trkpt lat="52.065735" lon="4.817432">
        <ele>-1.663538</ele>
        <time>2026-08-19T17:13:23.302Z</time>
      </trkpt>
      <trkpt lat="52.065779" lon="4.817361">
        <ele>-1.688955</ele>
        <time>2026-08-19T17:13:24.433Z</time>
      </trkpt>
      <trkpt lat="52.065861" lon="4.817347">
        <ele>-1.722769</ele>
        <time>2026-08-19T17:13:25.990Z</time>
      </trkpt>
      <trkpt lat="52.066188" lon="4.817440">
        <ele>-1.858910</ele>
        <time>2026-08-19T17:13:32.069Z</time>
      </trkpt>
      <trkpt lat="52.066273" lon="4.817419">
        <ele>-1.894169</ele>
        <time>2026-08-19T17:13:33.642Z</time>
      </trkpt>
      <trkpt lat="52.066340" lon="4.817332">
        <ele>-1.929327</ele>
        <time>2026-08-19T17:13:35.187Z</time>
      </trkpt>
      <trkpt lat="52.066468" lon="4.816397">
        <ele>-2.146012</ele>
        <time>2026-08-19T17:13:45.753Z</time>
      </trkpt>
      <trkpt lat="52.066586" lon="4.815424">
        <ele>-2.247842</ele>
        <time>2026-08-19T17:13:57.758Z</time>
      </trkpt>
      <trkpt lat="52.066789" lon="4.813760">
        <ele>-2.422027</ele>
        <time>2026-08-19T17:14:18.756Z</time>
      </trkpt>
      <trkpt lat="52.066948" lon="4.812435">
        <ele>-2.599815</ele>
        <time>2026-08-19T17:14:35.141Z</time>
      </trkpt>
      <trkpt lat="52.066972" lon="4.812235">
        <ele>-2.626982</ele>
        <time>2026-08-19T17:14:37.517Z</time>
      </trkpt>
      <trkpt lat="52.067101" lon="4.811159">
        <ele>-2.773134</ele>
        <time>2026-08-19T17:14:50.299Z</time>
      </trkpt>
      <trkpt lat="52.067202" lon="4.810323">
        <ele>-2.881694</ele>
        <time>2026-08-19T17:15:00.567Z</time>
      </trkpt>
      <trkpt lat="52.067268" lon="4.809769">
        <ele>-2.951307</ele>
        <time>2026-08-19T17:15:07.037Z</time>
      </trkpt>
      <trkpt lat="52.067355" lon="4.809046">
        <ele>-3.042189</ele>
        <time>2026-08-19T17:15:15.538Z</time>
      </trkpt>
      <trkpt lat="52.067446" lon="4.808255">
        <ele>-3.141460</ele>
        <time>2026-08-19T17:15:25.134Z</time>
      </trkpt>
      <trkpt lat="52.067418" lon="4.808097">
        <ele>-3.161744</ele>
        <time>2026-08-19T17:15:27.163Z</time>
      </trkpt>
      <trkpt lat="52.067375" lon="4.808048">
        <ele>-3.172279</ele>
        <time>2026-08-19T17:15:28.186Z</time>
      </trkpt>
      <trkpt lat="52.066302" lon="4.807606">
        <ele>-2.753757</ele>
        <time>2026-08-19T17:15:52.342Z</time>
      </trkpt>
      <trkpt lat="52.066241" lon="4.807554">
        <ele>-2.726208</ele>
        <time>2026-08-19T17:15:53.993Z</time>
      </trkpt>
      <trkpt lat="52.066196" lon="4.807495">
        <ele>-2.703088</ele>
        <time>2026-08-19T17:15:55.343Z</time>
      </trkpt>
      <trkpt lat="52.066138" lon="4.807276">
        <ele>-2.644448</ele>
        <time>2026-08-19T17:15:58.755Z</time>
      </trkpt>
      <trkpt lat="52.066138" lon="4.807142">
        <ele>-2.611496</ele>
        <time>2026-08-19T17:16:00.654Z</time>
      </trkpt>
      <trkpt lat="52.066205" lon="4.806723">
        <ele>-2.505030</ele>
        <time>2026-08-19T17:16:06.650Z</time>
      </trkpt>
      <trkpt lat="52.066209" lon="4.806697">
        <ele>-2.498439</ele>
        <time>2026-08-19T17:16:07.027Z</time>
      </trkpt>
      <trkpt lat="52.066288" lon="4.806202">
        <ele>-2.435418</ele>
        <time>2026-08-19T17:16:14.018Z</time>
      </trkpt>
      <trkpt lat="52.066355" lon="4.805757">
        <ele>-2.402889</ele>
        <time>2026-08-19T17:16:20.237Z</time>
      </trkpt>
      <trkpt lat="52.066438" lon="4.805398">
        <ele>-2.375656</ele>
        <time>2026-08-19T17:16:25.195Z</time>
      </trkpt>
      <trkpt lat="52.066775" lon="4.804042">
        <ele>-2.271810</ele>
        <time>2026-08-19T17:16:42.547Z</time>
      </trkpt>
      <trkpt lat="52.067658" lon="4.800462">
        <ele>-2.171266</ele>
        <time>2026-08-19T17:17:31.030Z</time>
      </trkpt>
      <trkpt lat="52.067821" lon="4.799792">
        <ele>-2.134650</ele>
        <time>2026-08-19T17:17:40.293Z</time>
      </trkpt>
      <trkpt lat="52.068233" lon="4.798108">
        <ele>-2.083386</ele>
        <time>2026-08-19T17:18:03.219Z</time>
      </trkpt>
      <trkpt lat="52.068620" lon="4.796511">
        <ele>-2.250301</ele>
        <time>2026-08-19T17:18:23.848Z</time>
      </trkpt>
      <trkpt lat="52.069825" lon="4.791529">
        <ele>-3.096750</ele>
        <time>2026-08-19T17:19:27.566Z</time>
      </trkpt>
      <trkpt lat="52.069878" lon="4.791382">
        <ele>-3.133250</ele>
        <time>2026-08-19T17:19:29.712Z</time>
      </trkpt>
      <trkpt lat="52.070255" lon="4.791570">
        <ele>-3.270635</ele>
        <time>2026-08-19T17:19:34.750Z</time>
      </trkpt>
      <trkpt lat="52.070512" lon="4.791720">
        <ele>-3.365767</ele>
        <time>2026-08-19T17:19:38.246Z</time>
      </trkpt>
      <trkpt lat="52.070903" lon="4.791846">
        <ele>-3.328028</ele>
        <time>2026-08-19T17:19:43.653Z</time>
      </trkpt>
      <trkpt lat="52.071191" lon="4.791928">
        <ele>-3.252200</ele>
        <time>2026-08-19T17:19:47.984Z</time>
      </trkpt>
      <trkpt lat="52.072999" lon="4.792471">
        <ele>-2.654387</ele>
        <time>2026-08-19T17:20:19.177Z</time>
      </trkpt>
      <trkpt lat="52.073311" lon="4.792556">
        <ele>-2.510900</ele>
        <time>2026-08-19T17:20:24.852Z</time>
      </trkpt>
      <trkpt lat="52.073904" lon="4.792742">
        <ele>-2.236974</ele>
        <time>2026-08-19T17:20:34.773Z</time>
      </trkpt>
      <trkpt lat="52.074310" lon="4.792827">
        <ele>-2.093594</ele>
        <time>2026-08-19T17:20:40.953Z</time>
      </trkpt>
      <trkpt lat="52.075163" lon="4.792801">
        <ele>-1.941147</ele>
        <time>2026-08-19T17:20:54.404Z</time>
      </trkpt>
      <trkpt lat="52.075193" lon="4.792794">
        <ele>-1.935732</ele>
        <time>2026-08-19T17:20:54.877Z</time>
      </trkpt>
      <trkpt lat="52.075581" lon="4.792788">
        <ele>-1.866398</ele>
        <time>2026-08-19T17:21:00.872Z</time>
      </trkpt>
      <trkpt lat="52.075716" lon="4.792751">
        <ele>-1.841936</ele>
        <time>2026-08-19T17:21:02.982Z</time>
      </trkpt>
      <trkpt lat="52.077551" lon="4.792621">
        <ele>-1.570635</ele>
        <time>2026-08-19T17:21:30.838Z</time>
      </trkpt>
      <trkpt lat="52.077822" lon="4.792596">
        <ele>-1.526322</ele>
        <time>2026-08-19T17:21:35.335Z</time>
      </trkpt>
      <trkpt lat="52.078101" lon="4.792572">
        <ele>-1.465458</ele>
        <time>2026-08-19T17:21:39.931Z</time>
      </trkpt>
      <trkpt lat="52.078287" lon="4.792518">
        <ele>-1.424299</ele>
        <time>2026-08-19T17:21:43.045Z</time>
      </trkpt>
      <trkpt lat="52.078421" lon="4.792403">
        <ele>-1.391297</ele>
        <time>2026-08-19T17:21:45.539Z</time>
      </trkpt>
      <trkpt lat="52.078617" lon="4.792099">
        <ele>-1.332309</ele>
        <time>2026-08-19T17:21:49.966Z</time>
      </trkpt>
      <trkpt lat="52.079135" lon="4.791217">
        <ele>-1.168977</ele>
        <time>2026-08-19T17:22:01.555Z</time>
      </trkpt>
      <trkpt lat="52.079281" lon="4.791033">
        <ele>-1.149015</ele>
        <time>2026-08-19T17:22:04.207Z</time>
      </trkpt>
      <trkpt lat="52.079490" lon="4.790940">
        <ele>-1.145942</ele>
        <time>2026-08-19T17:22:07.229Z</time>
      </trkpt>
      <trkpt lat="52.079873" lon="4.790904">
        <ele>-1.140502</ele>
        <time>2026-08-19T17:22:12.562Z</time>
      </trkpt>
      <trkpt lat="52.080162" lon="4.790875">
        <ele>-1.136397</ele>
        <time>2026-08-19T17:22:16.668Z</time>
      </trkpt>
      <trkpt lat="52.082021" lon="4.790693">
        <ele>-0.885681</ele>
        <time>2026-08-19T17:22:45.860Z</time>
      </trkpt>
      <trkpt lat="52.082354" lon="4.790659">
        <ele>-0.809882</ele>
        <time>2026-08-19T17:22:51.362Z</time>
      </trkpt>
      <trkpt lat="52.084208" lon="4.790477">
        <ele>-0.526168</ele>
        <time>2026-08-19T17:23:20.418Z</time>
      </trkpt>
      <trkpt lat="52.084559" lon="4.790442">
        <ele>-0.479911</ele>
        <time>2026-08-19T17:23:25.543Z</time>
      </trkpt>
      <trkpt lat="52.084576" lon="4.790440">
        <ele>-0.481384</ele>
        <time>2026-08-19T17:23:25.769Z</time>
      </trkpt>
      <trkpt lat="52.084839" lon="4.790417">
        <ele>-0.509729</ele>
        <time>2026-08-19T17:23:29.473Z</time>
      </trkpt>
      <trkpt lat="52.085005" lon="4.790340">
        <ele>-0.528305</ele>
        <time>2026-08-19T17:23:31.833Z</time>
      </trkpt>
      <trkpt lat="52.084740" lon="4.789544">
        <ele>-0.588174</ele>
        <time>2026-08-19T17:23:39.562Z</time>
      </trkpt>
      <trkpt lat="52.084713" lon="4.789459">
        <ele>-0.594502</ele>
        <time>2026-08-19T17:23:40.428Z</time>
      </trkpt>
      <trkpt lat="52.084487" lon="4.788701">
        <ele>-0.650219</ele>
        <time>2026-08-19T17:23:48.255Z</time>
      </trkpt>
      <trkpt lat="52.084150" lon="4.787608">
        <ele>-0.732418</ele>
        <time>2026-08-19T17:23:59.017Z</time>
      </trkpt>
      <trkpt lat="52.083979" lon="4.787066">
        <ele>-0.773635</ele>
        <time>2026-08-19T17:24:04.392Z</time>
      </trkpt>
      <trkpt lat="52.083694" lon="4.786104">
        <ele>-0.845886</ele>
        <time>2026-08-19T17:24:13.995Z</time>
      </trkpt>
      <trkpt lat="52.083668" lon="4.785948">
        <ele>-0.856821</ele>
        <time>2026-08-19T17:24:15.391Z</time>
      </trkpt>
      <trkpt lat="52.083648" lon="4.785778">
        <ele>-0.868530</ele>
        <time>2026-08-19T17:24:16.878Z</time>
      </trkpt>
      <trkpt lat="52.083619" lon="4.785174">
        <ele>-0.864714</ele>
        <time>2026-08-19T17:24:22.155Z</time>
      </trkpt>
      <trkpt lat="52.083564" lon="4.784829">
        <ele>-0.860562</ele>
        <time>2026-08-19T17:24:25.343Z</time>
      </trkpt>
      <trkpt lat="52.083392" lon="4.784236">
        <ele>-0.852922</ele>
        <time>2026-08-19T17:24:31.526Z</time>
      </trkpt>
      <trkpt lat="52.082886" lon="4.782490">
        <ele>-0.794162</ele>
        <time>2026-08-19T17:24:49.342Z</time>
      </trkpt>
      <trkpt lat="52.082615" lon="4.781267">
        <ele>-0.697801</ele>
        <time>2026-08-19T17:25:01.276Z</time>
      </trkpt>
      <trkpt lat="52.082476" lon="4.780640">
        <ele>-0.648396</ele>
        <time>2026-08-19T17:25:07.781Z</time>
      </trkpt>
      <trkpt lat="52.082392" lon="4.780380">
        <ele>-0.626623</ele>
        <time>2026-08-19T17:25:10.646Z</time>
      </trkpt>
      <trkpt lat="52.082268" lon="4.780130">
        <ele>-0.574577</ele>
        <time>2026-08-19T17:25:13.817Z</time>
      </trkpt>
      <trkpt lat="52.082157" lon="4.779916">
        <ele>-0.520225</ele>
        <time>2026-08-19T17:25:16.605Z</time>
      </trkpt>
      <trkpt lat="52.082137" lon="4.779866">
        <ele>-0.508645</ele>
        <time>2026-08-19T17:25:17.202Z</time>
      </trkpt>
      <trkpt lat="52.082056" lon="4.779606">
        <ele>-0.452068</ele>
        <time>2026-08-19T17:25:20.154Z</time>
      </trkpt>
      <trkpt lat="52.081847" lon="4.778484">
        <ele>-0.224517</ele>
        <time>2026-08-19T17:25:32.294Z</time>
      </trkpt>
      <trkpt lat="52.081815" lon="4.778310">
        <ele>-0.189265</ele>
        <time>2026-08-19T17:25:34.113Z</time>
      </trkpt>
      <trkpt lat="52.081707" lon="4.777726">
        <ele>-0.070896</ele>
        <time>2026-08-19T17:25:39.850Z</time>
      </trkpt>
      <trkpt lat="52.081498" lon="4.776676">
        <ele>-0.013998</ele>
        <time>2026-08-19T17:25:50.126Z</time>
      </trkpt>
      <trkpt lat="52.081294" lon="4.775687">
        <ele>0.025553</ele>
        <time>2026-08-19T17:25:59.899Z</time>
      </trkpt>
      <trkpt lat="52.081221" lon="4.775356">
        <ele>0.038886</ele>
        <time>2026-08-19T17:26:03.182Z</time>
      </trkpt>
      <trkpt lat="52.081207" lon="4.775289">
        <ele>0.041569</ele>
        <time>2026-08-19T17:26:03.838Z</time>
      </trkpt>
      <trkpt lat="52.081138" lon="4.774970">
        <ele>0.054390</ele>
        <time>2026-08-19T17:26:06.910Z</time>
      </trkpt>
      <trkpt lat="52.080925" lon="4.773952">
        <ele>-0.016050</ele>
        <time>2026-08-19T17:26:16.375Z</time>
      </trkpt>
      <trkpt lat="52.080837" lon="4.773523">
        <ele>-0.051310</ele>
        <time>2026-08-19T17:26:20.306Z</time>
      </trkpt>
      <trkpt lat="52.080833" lon="4.773494">
        <ele>-0.053627</ele>
        <time>2026-08-19T17:26:20.574Z</time>
      </trkpt>
      <trkpt lat="52.080806" lon="4.773331">
        <ele>-0.066789</ele>
        <time>2026-08-19T17:26:22.028Z</time>
      </trkpt>
      <trkpt lat="52.080799" lon="4.773290">
        <ele>-0.070107</ele>
        <time>2026-08-19T17:26:22.383Z</time>
      </trkpt>
      <trkpt lat="52.080725" lon="4.772804">
        <ele>-0.109143</ele>
        <time>2026-08-19T17:26:26.693Z</time>
      </trkpt>
      <trkpt lat="52.080683" lon="4.772569">
        <ele>-0.128224</ele>
        <time>2026-08-19T17:26:28.843Z</time>
      </trkpt>
      <trkpt lat="52.080637" lon="4.772307">
        <ele>-0.149467</ele>
        <time>2026-08-19T17:26:31.245Z</time>
      </trkpt>
      <trkpt lat="52.080613" lon="4.772172">
        <ele>-0.160424</ele>
        <time>2026-08-19T17:26:32.482Z</time>
      </trkpt>
      <trkpt lat="52.080504" lon="4.771422">
        <ele>-0.186614</ele>
        <time>2026-08-19T17:26:39.225Z</time>
      </trkpt>
      <trkpt lat="52.080457" lon="4.771046">
        <ele>-0.196687</ele>
        <time>2026-08-19T17:26:42.615Z</time>
      </trkpt>
      <trkpt lat="52.080412" lon="4.770689">
        <ele>-0.206253</ele>
        <time>2026-08-19T17:26:45.750Z</time>
      </trkpt>
      <trkpt lat="52.080299" lon="4.769563">
        <ele>-0.236203</ele>
        <time>2026-08-19T17:26:56.201Z</time>
      </trkpt>
      <trkpt lat="52.080233" lon="4.768904">
        <ele>-0.223892</ele>
        <time>2026-08-19T17:27:02.606Z</time>
      </trkpt>
      <trkpt lat="52.080223" lon="4.768791">
        <ele>-0.214956</ele>
        <time>2026-08-19T17:27:03.660Z</time>
      </trkpt>
      <trkpt lat="52.080157" lon="4.767955">
        <ele>-0.148978</ele>
        <time>2026-08-19T17:27:11.454Z</time>
      </trkpt>
      <trkpt lat="52.080132" lon="4.767562">
        <ele>-0.118051</ele>
        <time>2026-08-19T17:27:15.260Z</time>
      </trkpt>
      <trkpt lat="52.080123" lon="4.767422">
        <ele>-0.107033</ele>
        <time>2026-08-19T17:27:16.606Z</time>
      </trkpt>
      <trkpt lat="52.080093" lon="4.766926">
        <ele>-0.068019</ele>
        <time>2026-08-19T17:27:21.661Z</time>
      </trkpt>
      <trkpt lat="52.080064" lon="4.766154">
        <ele>-0.020449</ele>
        <time>2026-08-19T17:27:29.031Z</time>
      </trkpt>
      <trkpt lat="52.080043" lon="4.765572">
        <ele>-0.036068</ele>
        <time>2026-08-19T17:27:34.003Z</time>
      </trkpt>
      <trkpt lat="52.080036" lon="4.765213">
        <ele>-0.045690</ele>
        <time>2026-08-19T17:27:37.008Z</time>
      </trkpt>
      <trkpt lat="52.080030" lon="4.764250">
        <ele>-0.071490</ele>
        <time>2026-08-19T17:27:45.693Z</time>
      </trkpt>
      <trkpt lat="52.080042" lon="4.763637">
        <ele>-0.087920</ele>
        <time>2026-08-19T17:27:51.334Z</time>
      </trkpt>
      <trkpt lat="52.080102" lon="4.762698">
        <ele>-0.040903</ele>
        <time>2026-08-19T17:28:00.112Z</time>
      </trkpt>
      <trkpt lat="52.080168" lon="4.762253">
        <ele>-0.002965</ele>
        <time>2026-08-19T17:28:04.302Z</time>
      </trkpt>
      <trkpt lat="52.080301" lon="4.761359">
        <ele>0.073265</ele>
        <time>2026-08-19T17:28:13.199Z</time>
      </trkpt>
      <trkpt lat="52.080318" lon="4.761258">
        <ele>0.081943</ele>
        <time>2026-08-19T17:28:14.211Z</time>
      </trkpt>
      <trkpt lat="52.080329" lon="4.761152">
        <ele>0.090852</ele>
        <time>2026-08-19T17:28:15.613Z</time>
      </trkpt>
      <trkpt lat="52.080458" lon="4.761199">
        <ele>0.108679</ele>
        <time>2026-08-19T17:28:17.646Z</time>
      </trkpt>
      <trkpt lat="52.080498" lon="4.761228">
        <ele>0.114584</ele>
        <time>2026-08-19T17:28:18.317Z</time>
      </trkpt>
      <trkpt lat="52.080522" lon="4.761252">
        <ele>0.118383</ele>
        <time>2026-08-19T17:28:18.870Z</time>
      </trkpt>
      <trkpt lat="52.080576" lon="4.761324">
        <ele>0.127797</ele>
        <time>2026-08-19T17:28:20.304Z</time>
      </trkpt>
      <trkpt lat="52.080842" lon="4.761441">
        <ele>0.163051</ele>
        <time>2026-08-19T17:28:25.972Z</time>
      </trkpt>
      <trkpt lat="52.081309" lon="4.761566">
        <ele>0.220105</ele>
        <time>2026-08-19T17:28:35.852Z</time>
      </trkpt>
      <trkpt lat="52.081392" lon="4.761554">
        <ele>0.230150</ele>
        <time>2026-08-19T17:28:37.604Z</time>
      </trkpt>
      <trkpt lat="52.081449" lon="4.761427">
        <ele>0.241801</ele>
        <time>2026-08-19T17:28:39.606Z</time>
      </trkpt>
      <trkpt lat="52.081533" lon="4.761426">
        <ele>0.251928</ele>
        <time>2026-08-19T17:28:41.321Z</time>
      </trkpt>
      <trkpt lat="52.081624" lon="4.761435">
        <ele>0.262918</ele>
        <time>2026-08-19T17:28:43.185Z</time>
      </trkpt>
      <trkpt lat="52.081574" lon="4.760783">
        <ele>0.311595</ele>
        <time>2026-08-19T17:28:51.557Z</time>
      </trkpt>
      <trkpt lat="52.081712" lon="4.760226">
        <ele>0.356086</ele>
        <time>2026-08-19T17:28:57.307Z</time>
      </trkpt>
      <trkpt lat="52.081742" lon="4.760104">
        <ele>0.364293</ele>
        <time>2026-08-19T17:28:58.527Z</time>
      </trkpt>
      <trkpt lat="52.081859" lon="4.759636">
        <ele>0.372977</ele>
        <time>2026-08-19T17:29:03.253Z</time>
      </trkpt>
      <trkpt lat="52.081907" lon="4.759443">
        <ele>0.376556</ele>
        <time>2026-08-19T17:29:05.193Z</time>
      </trkpt>
      <trkpt lat="52.082142" lon="4.758693">
        <ele>0.391025</ele>
        <time>2026-08-19T17:29:12.860Z</time>
      </trkpt>
      <trkpt lat="52.082237" lon="4.758389">
        <ele>0.396887</ele>
        <time>2026-08-19T17:29:15.877Z</time>
      </trkpt>
      <trkpt lat="52.082352" lon="4.758037">
        <ele>0.403738</ele>
        <time>2026-08-19T17:29:19.604Z</time>
      </trkpt>
      <trkpt lat="52.082453" lon="4.757739">
        <ele>0.409587</ele>
        <time>2026-08-19T17:29:22.853Z</time>
      </trkpt>
      <trkpt lat="52.082593" lon="4.757613">
        <ele>0.414062</ele>
        <time>2026-08-19T17:29:26.146Z</time>
      </trkpt>
      <trkpt lat="52.082762" lon="4.757689">
        <ele>0.351926</ele>
        <time>2026-08-19T17:29:29.642Z</time>
      </trkpt>
      <trkpt lat="52.082795" lon="4.757567">
        <ele>0.322415</ele>
        <time>2026-08-19T17:29:31.248Z</time>
      </trkpt>
      <trkpt lat="52.082841" lon="4.757387">
        <ele>0.279255</ele>
        <time>2026-08-19T17:29:33.548Z</time>
      </trkpt>
      <trkpt lat="52.083214" lon="4.757626">
        <ele>0.134832</ele>
        <time>2026-08-19T17:29:41.169Z</time>
      </trkpt>
      <trkpt lat="52.083302" lon="4.757683">
        <ele>0.100709</ele>
        <time>2026-08-19T17:29:42.969Z</time>
      </trkpt>
      <trkpt lat="52.084120" lon="4.758205">
        <ele>-0.215842</ele>
        <time>2026-08-19T17:29:59.069Z</time>
      </trkpt>
      <trkpt lat="52.084352" lon="4.758280">
        <ele>-0.248245</ele>
        <time>2026-08-19T17:30:03.456Z</time>
      </trkpt>
      <trkpt lat="52.084832" lon="4.758533">
        <ele>-0.287150</ele>
        <time>2026-08-19T17:30:10.444Z</time>
      </trkpt>
      <trkpt lat="52.085937" lon="4.759209">
        <ele>-0.364942</ele>
        <time>2026-08-19T17:30:28.431Z</time>
      </trkpt>
      <trkpt lat="52.086203" lon="4.759236">
        <ele>-0.337121</ele>
        <time>2026-08-19T17:30:32.730Z</time>
      </trkpt>
      <trkpt lat="52.086327" lon="4.759209">
        <ele>-0.324061</ele>
        <time>2026-08-19T17:30:34.718Z</time>
      </trkpt>
      <trkpt lat="52.086425" lon="4.759147">
        <ele>-0.313086</ele>
        <time>2026-08-19T17:30:36.382Z</time>
      </trkpt>
      <trkpt lat="52.086624" lon="4.758881">
        <ele>-0.286204</ele>
        <time>2026-08-19T17:30:40.393Z</time>
      </trkpt>
      <trkpt lat="52.086794" lon="4.758512">
        <ele>-0.256621</ele>
        <time>2026-08-19T17:30:44.713Z</time>
      </trkpt>
      <trkpt lat="52.087401" lon="4.756984">
        <ele>-0.077234</ele>
        <time>2026-08-19T17:31:01.309Z</time>
      </trkpt>
      <trkpt lat="52.087554" lon="4.756397">
        <ele>0.020778</ele>
        <time>2026-08-19T17:31:07.243Z</time>
      </trkpt>
      <trkpt lat="52.087733" lon="4.756022">
        <ele>0.093769</ele>
        <time>2026-08-19T17:31:13.450Z</time>
      </trkpt>
      <trkpt lat="52.088073" lon="4.755160">
        <ele>0.251218</ele>
        <time>2026-08-19T17:31:27.277Z</time>
      </trkpt>
      <trkpt lat="52.088264" lon="4.754672">
        <ele>0.349879</ele>
        <time>2026-08-19T17:31:35.259Z</time>
      </trkpt>
      <trkpt lat="52.088374" lon="4.754393">
        <ele>0.407440</ele>
        <time>2026-08-19T17:31:39.987Z</time>
      </trkpt>
      <trkpt lat="52.088850" lon="4.752733">
        <ele>0.725523</ele>
        <time>2026-08-19T17:32:04.023Z</time>
      </trkpt>
      <trkpt lat="52.089070" lon="4.752081">
        <ele>0.640982</ele>
        <time>2026-08-19T17:32:12.907Z</time>
      </trkpt>
      <trkpt lat="52.089245" lon="4.751579">
        <ele>0.477586</ele>
        <time>2026-08-19T17:32:19.593Z</time>
      </trkpt>
      <trkpt lat="52.089436" lon="4.751121">
        <ele>0.320882</ele>
        <time>2026-08-19T17:32:25.655Z</time>
      </trkpt>
      <trkpt lat="52.089497" lon="4.750863">
        <ele>0.242621</ele>
        <time>2026-08-19T17:32:28.691Z</time>
      </trkpt>
      <trkpt lat="52.089510" lon="4.750535">
        <ele>0.149572</ele>
        <time>2026-08-19T17:32:32.349Z</time>
      </trkpt>
      <trkpt lat="52.089590" lon="4.750399">
        <ele>0.096271</ele>
        <time>2026-08-19T17:32:34.479Z</time>
      </trkpt>
      <trkpt lat="52.089644" lon="4.750305">
        <ele>0.059840</ele>
        <time>2026-08-19T17:32:35.940Z</time>
      </trkpt>
      <trkpt lat="52.089691" lon="4.750283">
        <ele>0.037307</ele>
        <time>2026-08-19T17:32:36.843Z</time>
      </trkpt>
      <trkpt lat="52.089786" lon="4.750369">
        <ele>-0.012779</ele>
        <time>2026-08-19T17:32:38.877Z</time>
      </trkpt>
      <trkpt lat="52.089889" lon="4.750335">
        <ele>-0.058618</ele>
        <time>2026-08-19T17:32:40.840Z</time>
      </trkpt>
      <trkpt lat="52.089915" lon="4.750326">
        <ele>-0.065517</ele>
        <time>2026-08-19T17:32:41.346Z</time>
      </trkpt>
      <trkpt lat="52.090849" lon="4.748943">
        <ele>-0.393251</ele>
        <time>2026-08-19T17:33:05.325Z</time>
      </trkpt>
      <trkpt lat="52.091318" lon="4.748252">
        <ele>-0.508916</ele>
        <time>2026-08-19T17:33:18.204Z</time>
      </trkpt>
      <trkpt lat="52.091532" lon="4.747826">
        <ele>-0.476114</ele>
        <time>2026-08-19T17:33:25.030Z</time>
      </trkpt>
      <trkpt lat="52.091603" lon="4.747397">
        <ele>-0.449630</ele>
        <time>2026-08-19T17:33:30.618Z</time>
      </trkpt>
      <trkpt lat="52.091591" lon="4.746927">
        <ele>-0.421589</ele>
        <time>2026-08-19T17:33:36.579Z</time>
      </trkpt>
      <trkpt lat="52.091544" lon="4.746669">
        <ele>-0.405548</ele>
        <time>2026-08-19T17:33:39.989Z</time>
      </trkpt>
      <trkpt lat="52.091447" lon="4.746425">
        <ele>-0.388224</ele>
        <time>2026-08-19T17:33:43.705Z</time>
      </trkpt>
      <trkpt lat="52.090690" lon="4.744700">
        <ele>-0.139552</ele>
        <time>2026-08-19T17:34:11.212Z</time>
      </trkpt>
      <trkpt lat="52.090264" lon="4.743887">
        <ele>0.014989</ele>
        <time>2026-08-19T17:34:25.038Z</time>
      </trkpt>
      <trkpt lat="52.090034" lon="4.743360">
        <ele>0.089126</ele>
        <time>2026-08-19T17:34:33.530Z</time>
      </trkpt>
      <trkpt lat="52.090116" lon="4.743244">
        <ele>0.099560</ele>
        <time>2026-08-19T17:34:35.852Z</time>
      </trkpt>
      <trkpt lat="52.090168" lon="4.743167">
        <ele>0.106312</ele>
        <time>2026-08-19T17:34:37.365Z</time>
      </trkpt>
      <trkpt lat="52.090240" lon="4.743025">
        <ele>0.117176</ele>
        <time>2026-08-19T17:34:39.841Z</time>
      </trkpt>
      <trkpt lat="52.090219" lon="4.742768">
        <ele>0.132475</ele>
        <time>2026-08-19T17:34:43.343Z</time>
      </trkpt>
      <trkpt lat="52.090331" lon="4.742455">
        <ele>0.153849</ele>
        <time>2026-08-19T17:34:48.109Z</time>
      </trkpt>
      <trkpt lat="52.090332" lon="4.742209">
        <ele>0.168365</ele>
        <time>2026-08-19T17:34:51.280Z</time>
      </trkpt>
      <trkpt lat="52.090221" lon="4.741927">
        <ele>0.188128</ele>
        <time>2026-08-19T17:34:55.464Z</time>
      </trkpt>
      <trkpt lat="52.090113" lon="4.741770">
        <ele>0.202035</ele>
        <time>2026-08-19T17:34:58.308Z</time>
      </trkpt>
      <trkpt lat="52.089974" lon="4.741306">
        <ele>0.232496</ele>
        <time>2026-08-19T17:35:02.902Z</time>
      </trkpt>
      <trkpt lat="52.089790" lon="4.740432">
        <ele>0.018494</ele>
        <time>2026-08-19T17:35:10.839Z</time>
      </trkpt>
      <trkpt lat="52.089773" lon="4.740343">
        <ele>-0.014378</ele>
        <time>2026-08-19T17:35:11.586Z</time>
      </trkpt>
      <trkpt lat="52.089723" lon="4.740088">
        <ele>-0.108786</ele>
        <time>2026-08-19T17:35:13.722Z</time>
      </trkpt>
      <trkpt lat="52.089716" lon="4.739994">
        <ele>-0.142182</ele>
        <time>2026-08-19T17:35:14.480Z</time>
      </trkpt>
      <trkpt lat="52.089759" lon="4.739864">
        <ele>-0.194255</ele>
        <time>2026-08-19T17:35:15.624Z</time>
      </trkpt>
      <trkpt lat="52.089833" lon="4.739791">
        <ele>-0.243928</ele>
        <time>2026-08-19T17:35:16.713Z</time>
      </trkpt>
      <trkpt lat="52.089970" lon="4.739712">
        <ele>-0.327360</ele>
        <time>2026-08-19T17:35:18.500Z</time>
      </trkpt>
      <trkpt lat="52.090177" lon="4.739621">
        <ele>-0.450444</ele>
        <time>2026-08-19T17:35:21.109Z</time>
      </trkpt>
      <trkpt lat="52.090680" lon="4.739467">
        <ele>-0.744247</ele>
        <time>2026-08-19T17:35:27.630Z</time>
      </trkpt>
      <trkpt lat="52.091221" lon="4.739324">
        <ele>-0.825275</ele>
        <time>2026-08-19T17:35:35.071Z</time>
      </trkpt>
      <trkpt lat="52.092370" lon="4.739100">
        <ele>-0.925122</ele>
        <time>2026-08-19T17:35:52.715Z</time>
      </trkpt>
      <trkpt lat="52.092712" lon="4.739022">
        <ele>-0.941658</ele>
        <time>2026-08-19T17:35:57.902Z</time>
      </trkpt>
      <trkpt lat="52.092837" lon="4.739009">
        <ele>-0.943380</ele>
        <time>2026-08-19T17:35:59.762Z</time>
      </trkpt>
      <trkpt lat="52.093580" lon="4.738947">
        <ele>-0.953609</ele>
        <time>2026-08-19T17:36:10.517Z</time>
      </trkpt>
      <trkpt lat="52.094654" lon="4.738885">
        <ele>-0.890981</ele>
        <time>2026-08-19T17:36:26.486Z</time>
      </trkpt>
      <trkpt lat="52.096193" lon="4.738688">
        <ele>-0.579733</ele>
        <time>2026-08-19T17:36:51.495Z</time>
      </trkpt>
      <trkpt lat="52.097414" lon="4.738593">
        <ele>-0.837991</ele>
        <time>2026-08-19T17:37:08.410Z</time>
      </trkpt>
      <trkpt lat="52.097677" lon="4.738650">
        <ele>-0.894046</ele>
        <time>2026-08-19T17:37:11.965Z</time>
      </trkpt>
      <trkpt lat="52.097744" lon="4.738760">
        <ele>-0.914151</ele>
        <time>2026-08-19T17:37:13.242Z</time>
      </trkpt>
      <trkpt lat="52.097804" lon="4.738755">
        <ele>-0.926843</ele>
        <time>2026-08-19T17:37:14.052Z</time>
      </trkpt>
      <trkpt lat="52.097850" lon="4.738696">
        <ele>-0.939216</ele>
        <time>2026-08-19T17:37:14.844Z</time>
      </trkpt>
      <trkpt lat="52.097866" lon="4.738604">
        <ele>-0.945028</ele>
        <time>2026-08-19T17:37:15.659Z</time>
      </trkpt>
      <trkpt lat="52.098075" lon="4.738431">
        <ele>-0.950123</ele>
        <time>2026-08-19T17:37:18.942Z</time>
      </trkpt>
      <trkpt lat="52.098818" lon="4.738047">
        <ele>-0.967062</ele>
        <time>2026-08-19T17:37:30.711Z</time>
      </trkpt>
      <trkpt lat="52.099365" lon="4.737637">
        <ele>-0.980148</ele>
        <time>2026-08-19T17:37:39.774Z</time>
      </trkpt>
      <trkpt lat="52.099384" lon="4.737617">
        <ele>-0.980639</ele>
        <time>2026-08-19T17:37:40.111Z</time>
      </trkpt>
      <trkpt lat="52.099571" lon="4.737442">
        <ele>-0.979202</ele>
        <time>2026-08-19T17:37:43.360Z</time>
      </trkpt>
      <trkpt lat="52.100512" lon="4.736713">
        <ele>-0.931486</ele>
        <time>2026-08-19T17:37:59.093Z</time>
      </trkpt>
      <trkpt lat="52.101474" lon="4.735757">
        <ele>-0.889605</ele>
        <time>2026-08-19T17:38:15.884Z</time>
      </trkpt>
      <trkpt lat="52.101672" lon="4.735553">
        <ele>-0.883816</ele>
        <time>2026-08-19T17:38:19.432Z</time>
      </trkpt>
      <trkpt lat="52.103805" lon="4.733309">
        <ele>-0.751037</ele>
        <time>2026-08-19T17:38:57.204Z</time>
      </trkpt>
      <trkpt lat="52.104414" lon="4.732838">
        <ele>-0.675640</ele>
        <time>2026-08-19T17:39:07.747Z</time>
      </trkpt>
      <trkpt lat="52.104684" lon="4.732569">
        <ele>-0.626151</ele>
        <time>2026-08-19T17:39:12.694Z</time>
      </trkpt>
      <trkpt lat="52.105155" lon="4.732006">
        <ele>-0.534798</ele>
        <time>2026-08-19T17:39:21.759Z</time>
      </trkpt>
      <trkpt lat="52.105402" lon="4.731827">
        <ele>-0.492529</ele>
        <time>2026-08-19T17:39:26.018Z</time>
      </trkpt>
      <trkpt lat="52.105908" lon="4.731604">
        <ele>-0.446374</ele>
        <time>2026-08-19T17:39:33.964Z</time>
      </trkpt>
      <trkpt lat="52.106183" lon="4.731487">
        <ele>-0.450645</ele>
        <time>2026-08-19T17:39:38.309Z</time>
      </trkpt>
      <trkpt lat="52.106350" lon="4.731416">
        <ele>-0.453239</ele>
        <time>2026-08-19T17:39:40.979Z</time>
      </trkpt>
      <trkpt lat="52.106497" lon="4.731306">
        <ele>-0.455670</ele>
        <time>2026-08-19T17:39:43.495Z</time>
      </trkpt>
      <trkpt lat="52.106581" lon="4.731333">
        <ele>-0.456957</ele>
        <time>2026-08-19T17:39:44.827Z</time>
      </trkpt>
      <trkpt lat="52.106828" lon="4.731272">
        <ele>-0.460711</ele>
        <time>2026-08-19T17:39:48.621Z</time>
      </trkpt>
      <trkpt lat="52.106934" lon="4.731240">
        <ele>-0.462332</ele>
        <time>2026-08-19T17:39:50.233Z</time>
      </trkpt>
      <trkpt lat="52.107124" lon="4.731172">
        <ele>-0.465255</ele>
        <time>2026-08-19T17:39:53.100Z</time>
      </trkpt>
      <trkpt lat="52.107169" lon="4.731140">
        <ele>-0.465993</ele>
        <time>2026-08-19T17:39:53.804Z</time>
      </trkpt>
      <trkpt lat="52.107274" lon="4.731076">
        <ele>-0.467678</ele>
        <time>2026-08-19T17:39:55.388Z</time>
      </trkpt>
      <trkpt lat="52.107356" lon="4.731007">
        <ele>-0.469065</ele>
        <time>2026-08-19T17:39:56.669Z</time>
      </trkpt>
      <trkpt lat="52.107444" lon="4.731211">
        <ele>-0.503889</ele>
        <time>2026-08-19T17:39:59.579Z</time>
      </trkpt>
      <trkpt lat="52.107459" lon="4.731361">
        <ele>-0.546702</ele>
        <time>2026-08-19T17:40:00.816Z</time>
      </trkpt>
      <trkpt lat="52.107444" lon="4.733098">
        <ele>-1.036085</ele>
        <time>2026-08-19T17:40:14.828Z</time>
      </trkpt>
      <trkpt lat="52.107512" lon="4.734156">
        <ele>-1.309156</ele>
        <time>2026-08-19T17:40:23.348Z</time>
      </trkpt>
      <trkpt lat="52.107611" lon="4.735120">
        <ele>-1.403598</ele>
        <time>2026-08-19T17:40:31.743Z</time>
      </trkpt>
      <trkpt lat="52.107635" lon="4.735669">
        <ele>-1.456781</ele>
        <time>2026-08-19T17:40:36.655Z</time>
      </trkpt>
      <trkpt lat="52.107633" lon="4.736101">
        <ele>-1.498525</ele>
        <time>2026-08-19T17:40:40.586Z</time>
      </trkpt>
      <trkpt lat="52.107587" lon="4.736580">
        <ele>-1.545372</ele>
        <time>2026-08-19T17:40:45.024Z</time>
      </trkpt>
      <trkpt lat="52.107474" lon="4.737223">
        <ele>-1.563091</ele>
        <time>2026-08-19T17:40:51.195Z</time>
      </trkpt>
      <trkpt lat="52.107227" lon="4.738135">
        <ele>-1.517148</ele>
        <time>2026-08-19T17:41:00.406Z</time>
      </trkpt>
      <trkpt lat="52.106915" lon="4.738789">
        <ele>-1.478976</ele>
        <time>2026-08-19T17:41:08.096Z</time>
      </trkpt>
      <trkpt lat="52.106881" lon="4.739003">
        <ele>-1.468787</ele>
        <time>2026-08-19T17:41:10.174Z</time>
      </trkpt>
      <trkpt lat="52.106895" lon="4.739257">
        <ele>-1.457032</ele>
        <time>2026-08-19T17:41:12.573Z</time>
      </trkpt>
      <trkpt lat="52.106943" lon="4.739444">
        <ele>-1.447690</ele>
        <time>2026-08-19T17:41:14.493Z</time>
      </trkpt>
      <trkpt lat="52.107042" lon="4.739630">
        <ele>-1.441306</ele>
        <time>2026-08-19T17:41:16.819Z</time>
      </trkpt>
      <trkpt lat="52.107173" lon="4.739788">
        <ele>-1.437859</ele>
        <time>2026-08-19T17:41:19.353Z</time>
      </trkpt>
      <trkpt lat="52.108960" lon="4.741480">
        <ele>-1.547609</ele>
        <time>2026-08-19T17:41:50.146Z</time>
      </trkpt>
      <trkpt lat="52.109102" lon="4.741628">
        <ele>-1.593455</ele>
        <time>2026-08-19T17:41:52.434Z</time>
      </trkpt>
      <trkpt lat="52.109294" lon="4.741829">
        <ele>-1.655525</ele>
        <time>2026-08-19T17:41:55.474Z</time>
      </trkpt>
      <trkpt lat="52.110816" lon="4.743337">
        <ele>-2.163158</ele>
        <time>2026-08-19T17:42:19.312Z</time>
      </trkpt>
      <trkpt lat="52.112015" lon="4.744580">
        <ele>-2.532319</ele>
        <time>2026-08-19T17:42:39.791Z</time>
      </trkpt>
      <trkpt lat="52.113439" lon="4.746142">
        <ele>-2.780949</ele>
        <time>2026-08-19T17:43:03.868Z</time>
      </trkpt>
      <trkpt lat="52.117937" lon="4.750760">
        <ele>-2.768602</ele>
        <time>2026-08-19T17:44:23.307Z</time>
      </trkpt>
      <trkpt lat="52.118419" lon="4.751222">
        <ele>-2.847884</ele>
        <time>2026-08-19T17:44:31.849Z</time>
      </trkpt>
      <trkpt lat="52.119023" lon="4.751823">
        <ele>-2.948221</ele>
        <time>2026-08-19T17:44:42.074Z</time>
      </trkpt>
      <trkpt lat="52.119231" lon="4.752168">
        <ele>-3.051997</ele>
        <time>2026-08-19T17:44:45.897Z</time>
      </trkpt>
      <trkpt lat="52.119315" lon="4.752332">
        <ele>-3.132242</ele>
        <time>2026-08-19T17:44:47.517Z</time>
      </trkpt>
      <trkpt lat="52.119360" lon="4.752421">
        <ele>-3.175561</ele>
        <time>2026-08-19T17:44:48.375Z</time>
      </trkpt>
      <trkpt lat="52.119562" lon="4.752656">
        <ele>-3.327468</ele>
        <time>2026-08-19T17:44:51.408Z</time>
      </trkpt>
      <trkpt lat="52.120280" lon="4.753351">
        <ele>-3.838575</ele>
        <time>2026-08-19T17:45:01.736Z</time>
      </trkpt>
      <trkpt lat="52.120402" lon="4.753470">
        <ele>-3.925595</ele>
        <time>2026-08-19T17:45:03.530Z</time>
      </trkpt>
      <trkpt lat="52.122993" lon="4.755552">
        <ele>-3.551316</ele>
        <time>2026-08-19T17:45:49.224Z</time>
      </trkpt>
      <trkpt lat="52.124118" lon="4.756225">
        <ele>-3.298864</ele>
        <time>2026-08-19T17:46:07.994Z</time>
      </trkpt>
      <trkpt lat="52.124840" lon="4.756611">
        <ele>-3.156088</ele>
        <time>2026-08-19T17:46:19.680Z</time>
      </trkpt>
      <trkpt lat="52.124999" lon="4.756649">
        <ele>-3.125894</ele>
        <time>2026-08-19T17:46:22.198Z</time>
      </trkpt>
      <trkpt lat="52.125397" lon="4.756862">
        <ele>-3.047181</ele>
        <time>2026-08-19T17:46:28.803Z</time>
      </trkpt>
      <trkpt lat="52.127825" lon="4.758263">
        <ele>-2.344058</ele>
        <time>2026-08-19T17:47:10.540Z</time>
      </trkpt>
      <trkpt lat="52.128032" lon="4.758361">
        <ele>-2.323815</ele>
        <time>2026-08-19T17:47:13.799Z</time>
      </trkpt>
      <trkpt lat="52.129296" lon="4.759162">
        <ele>-2.173082</ele>
        <time>2026-08-19T17:47:33.392Z</time>
      </trkpt>
      <trkpt lat="52.130284" lon="4.759698">
        <ele>-2.004098</ele>
        <time>2026-08-19T17:47:49.198Z</time>
      </trkpt>
      <trkpt lat="52.130923" lon="4.759967">
        <ele>-1.780724</ele>
        <time>2026-08-19T17:48:00.245Z</time>
      </trkpt>
      <trkpt lat="52.131376" lon="4.759961">
        <ele>-1.491817</ele>
        <time>2026-08-19T17:48:08.364Z</time>
      </trkpt>
      <trkpt lat="52.131442" lon="4.760116">
        <ele>-1.417968</ele>
        <time>2026-08-19T17:48:11.087Z</time>
      </trkpt>
      <trkpt lat="52.131498" lon="4.760249">
        <ele>-1.354830</ele>
        <time>2026-08-19T17:48:13.437Z</time>
      </trkpt>
      <trkpt lat="52.131576" lon="4.760434">
        <ele>-1.266968</ele>
        <time>2026-08-19T17:48:16.659Z</time>
      </trkpt>
      <trkpt lat="52.131623" lon="4.760546">
        <ele>-1.213856</ele>
        <time>2026-08-19T17:48:18.549Z</time>
      </trkpt>
      <trkpt lat="52.131684" lon="4.760692">
        <ele>-1.144717</ele>
        <time>2026-08-19T17:48:21.083Z</time>
      </trkpt>
      <trkpt lat="52.131736" lon="4.760815">
        <ele>-1.086251</ele>
        <time>2026-08-19T17:48:23.212Z</time>
      </trkpt>
      <trkpt lat="52.131913" lon="4.761236">
        <ele>-0.886488</ele>
        <time>2026-08-19T17:48:30.370Z</time>
      </trkpt>
      <trkpt lat="52.132068" lon="4.761606">
        <ele>-0.789609</ele>
        <time>2026-08-19T17:48:36.570Z</time>
      </trkpt>
      <trkpt lat="52.132129" lon="4.761750">
        <ele>-0.789609</ele>
        <time>2026-08-19T17:48:38.914Z</time>
      </trkpt>
      <trkpt lat="52.132219" lon="4.761967">
        <ele>-0.789609</ele>
        <time>2026-08-19T17:48:42.398Z</time>
      </trkpt>
      <trkpt lat="52.132380" lon="4.762353">
        <ele>-0.789609</ele>
        <time>2026-08-19T17:48:48.608Z</time>
      </trkpt>
      <trkpt lat="52.132495" lon="4.762599">
        <ele>-0.789609</ele>
        <time>2026-08-19T17:48:52.573Z</time>
      </trkpt>
      <trkpt lat="52.132551" lon="4.762695">
        <ele>-0.789609</ele>
        <time>2026-08-19T17:48:54.237Z</time>
      </trkpt>
      <trkpt lat="52.132637" lon="4.762827">
        <ele>-0.789609</ele>
        <time>2026-08-19T17:48:56.625Z</time>
      </trkpt>
    </trkseg>
  </trk>
</gpx>